[[{"header":{"parameterUnit":"m.s-1","parameterCategory":1,"la1":30.6,"la2":28.766,"lo1":-90.7593,"lo2":-88.6598,"dy":0.0162,"dx":0.0183,"nx":116,"ny":114,"refTime":"2023-09-26T00:00:00:Z","depth":0,"parameterNumber":2,"parameterNumberName":"U-component_of_WINDS"},"data":[0.0,0.0,0.0,0.0,0.0,0.0,0.0,0.0,0.0,0.0,0.0,0.0,0.0,0.0,0.0,0.0,0.0,0.0,0.0,0.0,0.0,0.0,0.0,0.0,0.0,0.0,0.0,0.0,0.0,0.0,0.0,0.0,0.0,0.0,0.0,0.0,0.0,0.0,0.0,0.0,0.0,0.0,0.0,0.0,0.0,0.0,0.0,0.0,0.0,0.0,0.0,0.0,0.0,0.0,0.0,0.0,0.0,0.0,0.0,0.0,0.0,0.0,0.0,0.0,0.0,0.0,0.0,0.0,0.0,0.0,0.0,0.0,0.0,0.0,0.0,0.0,0.0,0.0,0.0,0.0,0.0,0.0,0.0,0.0,0.0,0.0,0.0,0.0,0.0,0.0,0.0,0.0,0.0,0.0,0.0,0.0,0.0,0.0,0.0,0.0,0.0,0.0,0.0,0.0,0.0,0.0,0.0,0.0,0.0,0.0,0.0,0.0,0.0,0.0,0.0,0.0,0.0,0.0,0.0,0.0,0.0,0.0,0.0,0.0,0.0,0.0,0.0,0.0,0.0,0.0,0.0,0.0,0.0,0.0,0.0,0.0,0.0,0.0,0.0,0.0,0.0,0.0,0.0,0.0,0.0,0.0,0.0,0.0,0.0,0.0,0.0,0.0,0.0,0.0,0.0,0.0,0.0,0.0,0.0,0.0,0.0,0.0,0.0,0.0,0.0,0.0,0.0,0.0,0.0,0.0,0.0,0.0,0.0,0.0,0.0,0.0,0.0,0.0,0.0,0.0,0.0,0.0,0.0,0.0,0.0,0.0,0.0,0.0,0.0,0.0,0.0,0.0,0.0,0.0,0.0,0.0,0.0,0.0,0.0,0.0,0.0,0.0,0.0,0.0,0.0,0.0,0.0,0.0,0.0,0.0,0.0,0.0,0.0,0.0,0.0,0.0,0.0,0.0,0.0,0.0,0.0,0.0,0.0,0.0,0.0,0.0,0.0,0.0,0.0,0.0,0.0,0.0,0.0,0.0,0.0,0.0,0.0,0.0,0.0,0.0,0.0,0.0,0.0,0.0,0.0,0.0,0.0,0.0,0.0,0.0,0.0,0.0,0.0,0.0,0.0,0.0,0.0,0.0,0.0,0.0,0.0,0.0,0.0,0.0,0.0,0.0,0.0,0.0,0.0,0.0,0.0,0.0,0.0,0.0,0.0,0.0,0.0,0.0,0.0,0.0,0.0,0.0,0.0,0.0,0.0,0.0,0.0,0.0,0.0,0.0,0.0,0.0,0.0,0.0,0.0,0.0,0.0,0.0,0.0,0.0,0.0,0.0,0.0,0.0,0.0,0.0,0.0,0.0,0.0,0.0,0.0,0.0,0.0,0.0,0.0,0.0,0.0,0.0,0.0,0.0,0.0,0.0,0.0,0.0,0.0,0.0,0.0,0.0,0.0,0.0,0.0,0.0,0.0,0.0,0.0,0.0,0.0,0.0,0.0,0.0,0.0,0.0,0.0,0.0,0.0,0.0,0.0,0.0,0.0,0.0,0.0,0.0,0.0,0.0,0.0,0.0,0.0,0.0,0.0,0.0,0.0,0.0,0.0,0.0,0.0,0.0,0.0,0.0,0.0,0.0,0.0,0.0,0.0,0.0,0.0,0.0,0.0,0.0,0.0,0.0,0.0,0.0,0.0,0.0,0.0,0.0,0.0,0.0,0.0,0.0,0.0,0.0,0.0,0.0,0.0,0.0,0.0,0.0,0.0,0.0,0.0,0.0,0.0,0.0,0.0,0.0,0.0,0.0,0.0,0.0,0.0,0.0,0.0,0.0,0.0,0.0,0.0,0.0,0.0,0.0,0.0,0.0,0.0,0.0,0.0,0.0,0.0,0.0,0.0,0.0,0.0,0.0,0.0,0.0,0.0,0.0,0.0,0.0,0.0,0.0,0.0,0.0,0.0,0.0,0.0,0.0,0.0,0.0,0.0,0.0,0.0,0.0,0.0,0.0,0.0,0.0,0.0,0.0,0.0,0.0,0.0,0.0,0.0,0.0,0.0,0.0,0.0,0.0,0.0,0.0,0.0,0.0,0.0,0.0,0.0,0.0,0.0,0.0,0.0,0.0,0.0,0.0,0.0,0.0,0.0,0.0,0.0,0.0,0.0,0.0,0.0,0.0,0.0,0.0,0.0,0.0,0.0,0.0,0.0,0.0,0.0,0.0,0.0,0.0,0.0,0.0,0.0,0.0,0.0,0.0,0.0,0.0,0.0,0.0,0.0,0.0,0.0,0.0,0.0,0.0,0.0,0.0,0.0,0.0,0.0,0.0,0.0,0.0,0.0,0.0,0.0,0.0,0.0,0.0,0.0,0.0,0.0,0.0,0.0,0.0,0.0,0.0,0.0,0.0,0.0,0.0,0.0,0.0,0.0,0.0,0.0,0.0,0.0,0.0,0.0,0.0,0.0,0.0,0.0,0.0,0.0,0.0,0.0,0.0,0.0,0.0,0.0,0.0,0.0,0.0,0.0,0.0,0.0,0.0,0.0,0.0,0.0,0.0,0.0,0.0,0.0,0.0,0.0,0.0,0.0,0.0,0.0,0.0,0.0,0.0,0.0,0.0,0.0,0.0,0.0,0.0,0.0,0.0,0.0,0.0,0.0,0.0,0.0,0.0,0.0,0.0,0.0,0.0,0.0,0.0,0.0,0.0,0.0,0.0,0.0,0.0,0.0,0.0,0.0,0.0,0.0,0.0,0.0,0.0,0.0,0.0,0.0,0.0,0.0,0.0,0.0,0.0,0.0,0.0,0.0,0.0,0.0,0.0,0.0,0.0,0.0,0.0,0.0,0.0,0.0,0.0,0.0,0.0,0.0,0.0,0.0,0.0,0.0,0.0,0.0,0.0,0.0,0.0,0.0,0.0,0.0,0.0,0.0,0.0,0.0,0.0,0.0,0.0,0.0,0.0,0.0,0.0,0.0,0.0,0.0,0.0,0.0,0.0,0.0,0.0,0.0,0.0,0.0,0.0,0.0,0.0,0.0,0.0,0.0,0.0,0.0,0.0,0.0,0.0,0.0,0.0,0.0,0.0,0.0,0.0,0.0,0.0,0.0,0.0,0.0,0.0,0.0,0.0,0.0,0.0,0.0,0.0,0.0,0.0,0.0,0.0,0.0,0.0,0.0,0.0,0.0,0.0,0.0,0.0,0.0,0.0,0.0,0.0,0.0,0.0,0.0,0.0,0.0,0.0,0.0,0.0,0.0,0.0,0.0,0.0,0.0,0.0,0.0,0.0,0.0,0.0,0.0,0.0,0.0,0.0,0.0,0.0,0.0,0.0,0.0,0.0,0.0,0.0,0.0,0.0,0.0,0.0,0.0,0.0,0.0,0.0,0.0,0.0,0.0,0.0,0.0,0.0,0.0,0.0,0.0,0.0,0.0,0.0,0.0,0.0,0.0,0.0,0.0,0.0,0.0,0.0,0.0,0.0,0.0,0.0,0.0,0.0,0.0,0.0,0.0,0.0,0.0,0.0,0.0,0.0,0.0,0.0,0.0,0.0,0.0,0.0,0.0,0.0,0.0,0.0,0.0,0.0,0.0,0.0,0.0,0.0,0.0,0.0,0.0,0.0,0.0,0.0,0.0,0.0,0.0,0.0,0.0,0.0,0.0,0.0,0.0,0.0,0.0,0.0,0.0,0.0,0.0,0.0,0.0,0.0,0.0,0.0,0.0,0.0,0.0,0.0,0.0,0.0,0.0,0.0,0.0,0.0,0.0,0.0,0.0,0.0,0.0,0.0,0.0,0.0,0.0,0.0,0.0,0.0,0.0,0.0,0.0,0.0,0.0,0.0,0.0,0.0,0.0,0.0,0.0,0.0,0.0,0.0,0.0,0.0,0.0,0.0,0.0,0.0,0.0,0.0,0.0,0.0,0.0,0.0,0.0,0.0,0.0,0.0,0.0,0.0,0.0,0.0,0.0,0.0,0.0,0.0,0.0,0.0,0.0,0.0,0.0,0.0,0.0,0.0,0.0,0.0,0.0,0.0,0.0,0.0,0.0,0.0,0.0,0.0,0.0,0.0,0.0,0.0,0.0,0.0,0.0,0.0,0.0,0.0,0.0,0.0,0.0,0.0,0.0,0.0,0.0,0.0,0.0,0.0,0.0,0.0,0.0,0.0,0.0,0.0,0.0,0.0,0.0,0.0,0.0,0.0,0.0,0.0,0.0,0.0,0.0,0.0,0.0,0.0,0.0,0.0,0.0,0.0,0.0,0.0,0.0,0.0,0.0,0.0,0.0,0.0,0.0,0.0,0.0,0.0,0.0,0.0,0.0,0.0,0.0,0.0,0.0,0.0,0.0,0.0,0.0,0.0,0.0,0.0,0.0,0.0,0.0,0.0,0.0,0.0,0.0,0.0,0.0,0.0,0.0,0.0,0.0,0.0,0.0,0.0,0.0,0.0,0.0,0.0,0.0,0.0,0.0,0.0,0.0,0.0,0.0,0.0,0.0,0.0,0.0,0.0,0.0,0.0,0.0,0.0,0.0,0.0,0.0,0.0,0.0,0.0,0.0,0.0,0.0,0.0,0.0,0.0,0.0,0.0,0.0,0.0,0.0,0.0,0.0,0.0,0.0,0.0,0.0,0.0,0.0,0.0,0.0,0.0,0.0,0.0,0.0,0.0,0.0,0.0,0.0,0.0,0.0,0.0,0.0,0.0,0.0,0.0,0.0,0.0,0.0,0.0,0.0,0.0,0.0,0.0,0.0,0.0,0.0,0.0,0.0,0.0,0.0,0.0,0.0,0.0,0.0,0.0,0.0,0.0,0.0,0.0,0.0,0.0,0.0,0.0,0.0,0.0,0.0,0.0,0.0,0.0,0.0,0.0,0.0,0.0,0.0,0.0,0.0,0.0,0.0,0.0,0.0,0.0,0.0,0.0,0.0,0.0,0.0,0.0,0.0,0.0,0.0,0.0,0.0,0.0,0.0,0.0,0.0,0.0,0.0,0.0,0.0,0.0,0.0,0.0,0.0,0.0,0.0,0.0,0.0,0.0,0.0,0.0,0.0,0.0,0.0,0.0,0.0,0.0,0.0,0.0,0.0,0.0,0.0,0.0,0.0,0.0,0.0,0.0,0.0,0.0,0.0,0.0,0.0,0.0,0.0,0.0,0.0,0.0,0.0,0.0,0.0,0.0,0.0,0.0,0.0,0.0,0.0,0.0,0.0,0.0,0.0,0.0,0.0,0.0,0.0,0.0,0.0,0.0,0.0,0.0,0.0,0.0,0.0,0.0,0.0,0.0,0.0,0.0,0.0,0.0,0.0,0.0,0.0,0.0,0.0,0.0,0.0,0.0,0.0,0.0,0.0,0.0,0.0,0.0,0.0,0.0,0.0,0.0,0.0,0.0,0.0,0.0,0.0,0.0,0.0,0.0,0.0,0.0,0.0,0.0,0.0,0.0,0.0,0.0,0.0,0.0,0.0,0.0,0.0,0.0,0.0,0.0,0.0,0.0,0.0,0.0,0.0,0.0,0.0,0.0,0.0,0.0,0.0,0.0,0.0,0.0,0.0,0.0,0.0,0.0,0.0,0.0,0.0,0.0,0.0,0.0,0.0,0.0,0.0,0.0,0.0,0.0,0.0,0.0,0.0,0.0,0.0,0.0,0.0,0.0,0.0,0.0,0.0,0.0,0.0,0.0,0.0,0.0,0.0,0.0,0.0,0.0,0.0,0.0,0.0,0.0,0.0,0.0,0.0,0.0,0.0,0.0,0.0,0.0,0.0,0.0,0.0,0.0,0.0,0.0,0.0,0.0,0.0,0.0,0.0,0.0,0.0,0.0,0.0,0.0,0.0,0.0,0.0,0.0,0.0,0.0,0.0,0.0,0.0,0.0,0.0,0.0,0.0,0.0,0.0,0.0,0.0,0.0,0.0,0.0,0.0,0.0,0.0,0.0,0.0,0.0,0.0,0.0,0.0,0.0,0.0,0.0,0.0,0.0,0.0,0.0,0.0,0.0,0.0,0.0,0.0,0.0,0.0,0.0,0.0,0.0,0.0,0.0,0.0,0.0,0.0,0.0,0.0,0.0,0.0,0.0,0.0,0.0,2.1096,2.0311,0.0,0.0,0.0,0.0,0.0,0.0,0.0,0.0,0.0,0.0,0.0,0.0,0.0,0.0,0.0,0.0,0.0,0.0,0.0,0.0,0.0,0.0,0.0,0.0,0.0,0.0,0.0,0.0,0.0,0.0,0.0,0.0,0.0,0.0,0.0,0.0,0.0,0.8499,0.8696,0.9091,0.9645,0.932,0.9205,0.9216,0.0,0.0,0.0,0.0,0.0,0.0,0.0,0.0,0.0,0.0,0.0,0.0,0.0,0.0,0.0,0.0,0.0,0.0,0.0,0.0,0.0,0.0,0.0,0.0,0.0,0.0,0.0,0.0,0.0,0.0,0.0,0.0,0.0,0.0,0.0,0.0,0.0,0.0,0.0,0.0,0.0,0.0,0.0,0.0,0.0,0.0,0.0,0.0,0.0,0.0,0.0,0.0,0.0,0.0,0.0,0.0,0.0,0.0,0.0,0.0,0.0,0.0,0.0,0.0,0.0,0.0,0.0,0.0,0.0,0.0,2.2733,2.185,0.0,0.0,0.0,0.0,0.0,0.0,0.0,0.0,0.0,0.0,0.0,0.0,0.0,0.0,0.0,0.0,0.0,0.0,0.0,0.0,0.0,0.0,0.0,0.8321,0.8444,0.8689,0.871,0.8723,0.0,0.0,0.0,0.0,0.0,0.0,0.8054,0.8208,0.8349,0.8451,0.8954,0.9399,0.9842,0.9842,0.9861,0.9932,0.9559,0.0,0.0,0.0,0.0,0.0,0.0,0.0,0.0,0.0,0.0,0.0,0.0,0.0,0.0,0.0,0.0,0.0,0.0,0.0,0.0,0.0,0.0,0.0,0.0,0.0,0.0,0.0,0.0,0.0,0.0,0.0,0.0,0.0,0.0,0.0,0.0,0.0,0.0,0.0,0.0,0.0,0.0,0.0,0.0,0.0,0.0,0.0,0.0,0.0,0.0,0.0,0.0,0.0,0.0,0.0,0.0,0.0,0.0,0.0,0.0,0.0,0.0,0.0,2.5558,2.5852,2.6132,2.6079,2.6186,2.6359,2.4593,2.3728,2.3492,2.2258,0.0,0.0,0.0,0.0,0.0,0.0,0.0,0.0,0.0,0.0,0.0,0.0,0.0,0.0,0.0,0.0,0.0,0.0,0.0,0.0,0.826,0.8403,0.8526,0.8696,0.8804,0.8879,0.8879,0.0,0.0,0.0,0.0,0.0,0.826,0.8287,0.8546,0.9091,0.9907,1.0453,1.0738,1.0738,1.0839,1.0967,1.0105,0.9667,0.953,0.0,0.0,0.0,0.0,0.0,0.0,0.0,0.0,0.0,0.0,0.0,0.0,0.0,0.0,0.0,0.0,0.0,0.0,0.0,0.0,0.0,0.0,0.0,0.0,0.0,0.0,0.0,0.0,0.0,0.0,0.0,0.0,0.0,0.0,0.0,0.0,0.0,0.0,0.0,0.0,0.0,1.363,1.3781,0.0,0.0,0.0,0.0,0.0,0.0,0.0,0.0,0.0,0.0,0.0,0.0,0.0,2.4686,2.588,2.676,2.7389,2.7724,2.7989,2.8297,2.8521,2.831,2.8217,2.823,2.7724,0.0,2.481,2.4356,0.0,0.0,0.0,0.0,0.0,0.0,0.0,0.0,0.0,0.0,0.0,0.0,0.0,0.0,0.0,0.0,0.0,0.0,0.0,0.0,0.0,0.8696,0.8947,0.9076,0.9271,0.9332,0.9198,0.8906,0.0,0.0,0.0,0.8088,0.8294,0.852,0.9062,0.9934,1.0385,1.0819,1.1164,1.1252,1.1367,1.1525,1.1124,1.0636,1.0086,0.9781,0.0,0.0,0.0,0.0,0.0,0.0,0.0,0.0,0.0,0.0,0.0,0.0,0.0,0.0,0.0,0.0,0.0,0.0,0.0,0.0,0.0,0.0,0.0,0.0,0.0,0.0,0.0,0.0,0.0,0.0,0.0,0.0,0.0,0.0,0.0,0.0,0.0,0.0,0.0,1.2953,1.4145,1.4888,1.5082,1.4985,0.0,0.0,0.0,0.0,0.0,0.0,0.0,0.0,0.0,2.4419,2.537,2.6441,2.7629,2.8177,2.8764,2.9436,2.957,2.974,3.002,2.9726,2.9499,2.9325,2.9075,2.8203,2.6987,2.6026,2.4703,2.3233,0.0,0.0,0.0,0.0,2.171,2.179,0.0,0.0,0.0,0.0,0.0,0.0,0.0,0.0,0.0,0.0,0.0,0.0,0.8581,0.8995,0.9315,0.9476,0.9693,0.9693,0.943,0.9075,0.8777,0.8526,0.8235,0.8167,0.8349,0.8885,0.9629,1.0548,1.0778,1.1104,1.1504,1.1584,1.1712,1.1884,1.1813,1.1401,1.0758,1.0387,1.0008,0.9632,0.0,0.0,0.0,0.0,0.0,0.0,0.0,0.0,0.0,0.0,0.0,0.0,0.0,0.0,0.0,0.0,0.0,0.0,0.0,0.0,0.0,0.0,0.0,0.0,0.0,0.0,0.0,0.0,0.0,0.0,0.0,0.0,0.0,0.0,0.0,0.0,0.0,1.3851,1.4904,1.6162,1.6335,1.6229,0.0,0.0,0.0,0.0,0.0,0.0,2.2794,2.3704,2.4841,2.6201,2.7105,2.8083,2.9045,2.9339,2.986,3.0581,3.0581,3.0742,3.1009,3.0635,3.0354,3.0127,2.9753,2.9299,2.8738,2.7482,2.6213,2.4999,2.4609,2.4017,2.3327,2.3522,2.3576,2.3656,0.0,0.0,0.0,0.0,0.0,0.0,0.0,0.0,0.0,0.0,0.0,0.8587,0.8852,0.9184,0.9483,0.9744,0.9785,0.9693,0.943,0.9075,0.8777,0.8526,0.8362,0.8349,0.8492,0.944,1.0197,1.0677,1.1145,1.1511,1.1773,1.178,1.1904,1.2084,1.1898,1.1692,1.1496,1.1056,1.0691,1.0371,0.9652,0.0,0.0,0.0,0.0,0.0,0.0,0.0,0.0,0.0,0.0,0.0,0.0,0.0,0.0,0.0,0.0,0.0,0.0,0.0,0.0,0.0,0.0,0.0,0.0,0.0,0.0,0.0,0.0,0.0,0.0,0.0,0.0,0.0,0.0,0.0,0.0,0.0,0.0,1.7575,1.8128,0.0,0.0,0.0,0.0,2.131,2.2009,2.3441,2.5961,2.6435,2.7164,2.8401,2.9312,2.9927,3.0319,3.0568,3.0862,3.1183,3.1183,3.1343,3.161,3.1036,3.0768,3.0715,3.014,2.9726,2.9392,2.8751,2.7629,2.6293,2.6266,2.5558,2.4572,2.517,2.5384,2.5464,0.0,0.0,0.0,0.0,0.0,0.0,0.0,0.0,0.7952,0.7982,0.8446,0.8791,0.8899,0.9551,1.0036,1.0107,1.029,1.0197,0.9805,0.9442,0.9089,0.8764,0.8452,0.8634,0.9327,1.0062,1.0671,1.1151,1.1314,1.1443,1.1545,1.1545,1.1579,1.1633,1.1674,1.1631,1.1563,1.1341,1.1029,1.0704,1.0181,0.9666,0.0,0.0,0.0,0.0,0.0,0.0,0.0,0.0,0.0,0.0,0.0,0.0,0.0,0.0,0.0,0.0,0.0,0.0,0.0,0.0,0.0,0.0,0.0,0.0,0.0,0.0,0.0,0.0,0.0,0.0,0.0,0.0,0.0,0.0,0.0,0.0,0.0,1.876,1.9167,0.0,1.9807,2.038,2.1367,2.2729,2.4231,2.5743,2.7294,2.8132,2.8795,2.9432,3.0127,3.0621,3.0915,3.1022,3.1223,3.1517,3.1517,3.1463,3.137,3.0969,3.0688,3.0533,3.0087,2.986,2.9753,2.9539,2.8804,2.7802,2.7643,2.7148,2.6613,2.6627,2.664,2.6667,0.0,0.0,0.0,0.0,0.0,0.0,0.0,0.0,0.8047,0.8148,0.8669,0.9041,0.919,0.9903,1.0383,1.0383,1.0527,1.04,0.99,0.9578,0.9225,0.8852,0.8676,0.9036,0.9958,1.0412,1.0839,1.124,1.1287,1.1314,1.1314,1.1314,1.1314,1.1356,1.1423,1.1497,1.1538,1.1436,1.128,1.1029,1.0663,1.0202,0.9713,0.0,0.0,0.0,0.0,0.0,0.0,0.0,0.0,0.0,0.0,0.0,0.0,0.0,0.0,0.0,0.0,0.0,0.0,0.0,0.0,0.0,0.0,0.0,0.0,0.0,0.0,0.0,0.0,0.0,0.0,0.0,0.0,0.0,0.0,1.6398,1.8077,1.9602,2.0393,2.1021,2.1512,2.2441,2.3521,2.4745,2.6352,2.7697,2.8583,2.9473,3.002,3.0207,3.0782,3.1183,3.137,3.137,3.1476,3.1711,3.157,3.1423,3.1209,3.0822,3.0587,3.0386,3.0047,2.9913,2.9913,2.9913,2.9579,2.9005,2.8604,2.8203,2.7871,2.767,2.7603,2.7576,0.0,0.0,0.0,0.0,0.0,0.0,0.7988,0.7988,0.8121,0.8445,0.89,0.9349,0.9737,1.0215,1.0487,1.0487,1.0487,1.0236,0.9652,0.9469,0.9184,0.8743,0.9049,0.956,1.0301,1.0432,1.0656,1.0921,1.1084,1.1186,1.1186,1.1172,1.1172,1.1179,1.1179,1.1274,1.1382,1.1389,1.1396,1.1375,1.1043,1.0745,1.0439,0.0,0.0,0.0,0.0,0.0,0.0,0.0,0.0,0.0,0.0,0.0,0.0,0.0,0.0,0.0,0.0,0.0,0.0,0.0,0.0,0.0,0.0,0.0,0.0,0.0,0.0,0.0,0.0,0.0,0.0,0.0,0.0,0.0,1.4535,1.7076,1.9165,2.0018,2.1778,2.3173,2.3731,2.4833,2.6073,2.7318,2.8277,2.9162,2.9855,3.0474,3.0795,3.0795,3.1417,3.1711,3.1711,3.1711,3.1711,3.1711,3.1383,3.1236,3.1196,3.0635,3.0413,3.0373,3.0047,2.9913,2.9913,2.9913,2.9913,2.9847,2.9228,2.8684,2.8205,2.8192,2.8179,2.8098,0.0,0.0,0.0,0.0,0.0,0.0,0.7988,0.7988,0.8121,0.8445,0.89,0.9315,0.9632,1.0066,1.0337,1.0337,1.0337,1.0175,0.9758,0.9523,0.9308,0.907,0.9662,1.0145,1.0426,1.0657,1.0914,1.1104,1.0928,1.0839,1.0839,1.0655,1.0614,1.0716,1.0792,1.0989,1.1268,1.1341,1.1457,1.1538,1.1348,1.1056,1.0759,0.0,0.0,0.0,0.0,0.0,0.0,0.0,0.0,0.0,0.0,0.0,0.0,0.0,0.0,0.0,0.0,0.0,0.0,0.0,0.0,0.0,0.0,0.0,0.0,0.0,0.0,0.0,0.0,0.0,0.0,0.0,1.2831,1.3925,1.5206,1.7018,1.8686,1.9903,2.1193,2.2461,2.3687,2.5348,2.6811,2.7832,2.896,2.9699,2.9913,3.0474,3.0795,3.0795,3.1417,3.1711,3.1711,3.1711,3.1711,3.1711,3.1583,3.133,3.0902,3.0742,3.0434,3.0034,2.9953,2.9913,2.9913,2.9913,2.9793,2.9566,2.9148,2.8895,2.8738,2.8353,2.8179,2.8098,0.0,0.0,0.0,0.0,0.0,0.0,0.7988,0.7988,0.8169,0.8615,0.8981,0.9342,0.9717,1.0086,1.0288,1.0188,1.0127,0.9958,0.9652,0.9476,0.9451,0.9523,1.0043,1.0378,1.0582,1.0664,1.0799,1.0914,1.0649,1.0534,1.0534,1.0365,1.0358,1.0493,1.0582,1.0792,1.1084,1.1268,1.1382,1.1525,1.1558,1.1435,1.1266,1.1117,1.0989,1.0833,1.0772,1.0704,1.0676,1.0622,0.0,0.0,0.0,0.0,0.0,0.0,0.0,0.0,0.0,0.0,0.0,0.0,0.0,0.0,0.0,0.0,0.0,0.0,0.0,0.0,0.0,0.0,0.0,0.0,1.3011,1.396,1.4916,1.6689,1.8283,1.9406,2.1048,2.2641,2.4106,2.5982,2.7504,2.8501,2.9373,2.9913,2.9913,3.0474,3.0795,3.0795,3.1417,3.1711,3.1711,3.1711,3.1711,3.1711,3.1543,3.1303,3.0969,3.0715,3.0421,3.01,2.9967,2.9913,2.9913,2.9913,2.982,2.9633,0.0,0.0,0.0,0.0,2.8524,2.843,0.0,0.0,0.0,0.0,0.0,0.0,0.7988,0.7988,0.8204,0.8831,0.9049,0.9383,0.9927,1.0148,1.0175,1.0001,0.9852,0.9686,0.9451,0.9435,0.9639,1.0028,1.0236,1.0446,1.0657,1.0561,1.0487,1.0466,1.0324,1.0288,1.0288,1.0236,1.0349,1.0466,1.0466,1.0643,1.0921,1.1104,1.1288,1.1416,1.1728,1.1807,1.178,1.1671,1.1681,1.1681,1.1538,1.1416,1.137,1.1485,0.0,0.0,0.0,0.0,0.0,0.0,0.0,0.0,0.0,0.0,0.0,0.0,0.0,0.0,0.0,0.0,0.0,0.0,0.0,0.0,0.0,0.0,0.0,0.0,1.3193,1.3863,1.4123,1.6116,1.7864,1.8671,2.1028,2.3164,2.4707,2.6578,2.8146,2.9137,2.9671,2.9967,2.9967,3.0528,0.0,0.0,0.0,3.1711,3.1711,3.1711,3.1711,3.1711,3.1396,3.1263,3.1162,3.0688,3.0467,3.0386,3.0087,2.994,2.9913,2.9913,2.9913,2.9887,2.9593,2.9325,2.9041,2.9001,2.9001,2.8908,0.0,0.0,0.0,0.0,0.0,0.0,0.7988,0.7988,0.8204,0.8831,0.8933,0.9176,0.9771,0.9859,0.9866,0.9839,0.9704,0.9625,0.9571,0.9758,0.9981,1.0229,1.0493,1.0602,1.0534,1.0507,1.0432,1.0356,1.0136,1.0062,1.0062,0.9934,1.0059,1.0356,1.0356,1.0555,1.0921,1.1104,1.1288,1.143,1.1887,1.1945,1.1807,1.1938,1.2054,1.2155,1.2128,1.2169,1.223,1.2149,1.1993,1.1839,1.1531,1.1321,0.0,0.0,0.0,0.0,0.0,0.0,0.0,0.0,0.0,0.0,0.0,0.0,0.0,0.0,0.0,0.0,0.0,0.0,0.0,1.3132,1.3424,1.3887,1.455,1.5849,1.7061,1.7956,2.0153,2.2378,2.4397,2.6449,2.8146,2.9137,2.9901,3.0319,3.0319,3.0822,3.1142,3.1142,3.149,3.1711,3.1711,3.1711,3.1711,3.1711,3.161,0.0,3.1223,3.1116,3.0808,3.04,3.0346,3.014,2.9913,2.9913,2.9913,2.9887,2.9593,2.9446,2.9366,2.9081,2.9001,2.8948,0.0,0.0,0.0,0.0,0.0,0.0,0.7988,0.7988,0.8175,0.8628,0.875,0.8967,0.9435,0.9557,0.9598,0.9598,0.9537,0.953,0.9605,0.9852,1.0116,1.0378,1.0527,1.0568,1.0493,1.0344,1.0236,1.0168,0.9981,0.9907,0.9907,0.9907,1.0028,1.0315,1.0351,1.0595,1.0921,1.1104,1.1288,1.143,1.1914,1.205,1.1972,1.2196,1.2379,1.2522,1.2596,1.2671,1.2732,1.2732,1.2676,1.2513,1.2244,1.202,1.1755,0.0,0.0,0.0,0.0,0.0,0.0,0.0,0.0,0.0,0.0,0.0,0.0,0.0,0.0,1.2724,1.2915,0.0,1.3478,1.3702,1.4141,1.4646,1.533,1.6593,1.7695,1.8311,2.0858,2.3276,2.507,2.7206,2.8841,2.9707,3.0183,3.0467,3.0568,3.0982,3.1176,3.1176,3.1517,3.1711,3.1711,3.1711,3.1711,3.1711,3.1711,3.1597,3.1436,3.1289,3.1062,3.0782,3.0635,3.0488,3.0341,3.0194,3.0314,3.0528,3.0087,2.9833,2.9686,2.9495,2.9428,2.9388,0.0,0.0,0.0,0.0,0.0,0.0,0.0,0.7988,0.8121,0.8445,0.8587,0.8777,0.9104,0.9274,0.9369,0.9369,0.9424,0.949,0.9639,0.99,1.0184,1.048,1.0493,1.0466,1.0405,1.0143,0.997,0.9974,0.9852,0.9805,0.9839,0.9961,1.0116,1.0331,1.0473,1.0657,1.0928,1.1131,1.1329,1.147,1.1928,1.2118,1.2173,1.24,1.2596,1.2706,1.2874,1.2996,1.3057,1.3173,1.3159,1.3057,1.2868,1.2651,1.2366,1.1891,1.166,0.0,0.0,0.0,0.0,0.0,0.0,0.0,0.0,1.2576,1.2807,1.3152,1.3377,1.3559,1.3838,1.4023,1.4277,1.4532,1.5179,1.586,1.6526,1.7936,1.9122,1.9767,2.2274,2.4553,2.6049,2.8058,2.9591,3.0341,3.0507,3.0635,3.0862,3.1156,3.1316,3.1316,3.1543,3.1711,3.1711,3.1711,3.1711,3.1711,3.1711,3.1711,3.1711,3.1423,3.1276,3.1209,3.0915,3.0795,3.0768,3.0587,3.0715,3.1089,3.0621,3.0301,3.0087,3.002,3.0007,2.9967,0.0,0.0,0.0,0.0,0.0,0.0,0.0,0.0,0.8121,0.8445,0.8526,0.8621,0.8899,0.9117,0.9234,0.9234,0.9429,0.9646,0.9758,1.0086,1.0324,1.0487,1.0493,1.0365,1.0076,1.0004,0.9954,0.9819,0.9798,0.9859,0.9994,0.9977,1.017,1.0473,1.0629,1.0752,1.0934,1.1246,1.1457,1.1619,1.1975,1.2179,1.2284,1.244,1.2596,1.2693,1.2752,1.2922,1.3193,1.3207,1.3254,1.3322,1.3173,1.3098,1.2963,1.2386,1.2203,1.2121,1.178,1.1843,1.2036,1.2169,1.2311,1.2488,0.0,1.3207,1.3587,1.3928,1.4278,1.4618,1.4787,1.5195,1.566,1.6132,1.6545,1.7291,1.8637,1.9889,2.128,2.3059,2.3958,2.5071,2.6704,2.8516,2.9801,3.0354,3.0835,3.1142,3.1122,3.1463,3.1623,3.1623,3.1698,3.1711,3.1711,3.1711,3.1711,3.1711,3.1711,3.1711,3.1711,3.1684,3.1476,3.1209,3.0915,3.0795,3.0795,3.0755,3.0782,3.0835,3.0768,3.0728,3.0662,3.0453,3.036,3.0319,0.0,0.0,0.0,0.0,0.0,0.0,0.0,0.0,0.0,0.8182,0.8303,0.8437,0.8533,0.8757,0.8933,0.9022,0.9306,0.9578,0.9771,1.0107,1.0385,1.0616,1.0541,1.0432,1.0278,1.0197,1.0154,1.0086,1.0086,1.012,1.0188,1.0238,1.0419,1.0629,1.0752,1.0948,1.1219,1.143,1.157,1.1732,1.2074,1.223,1.2305,1.2447,1.2542,1.2583,1.2501,1.261,0.0,1.2779,1.2827,1.2915,1.3112,1.299,1.2766,1.2698,1.2494,1.2298,1.2307,1.2467,1.2703,1.299,1.318,1.341,1.3885,1.4211,1.4496,1.4787,1.5072,1.5302,1.5652,1.6068,1.6641,1.7382,1.8312,1.9411,2.0601,2.2176,2.3686,2.5105,2.6332,2.7339,2.8054,2.9416,3.0445,3.0849,3.1089,3.1303,3.1476,3.1597,3.1711,3.1711,3.1711,3.1711,3.1711,3.1711,3.1711,3.1711,3.1711,3.1711,3.1711,3.1711,3.1597,3.1476,3.1356,3.1303,3.1289,3.1116,3.1142,3.1289,3.1116,3.1142,3.1296,3.0782,3.0547,3.0386,0.0,0.0,0.0,0.0,0.0,0.0,0.0,0.0,0.0,0.0,0.8334,0.845,0.8517,0.8729,0.8925,0.905,0.9313,0.9609,0.9923,1.0097,1.0351,1.0643,1.0555,1.0473,1.0465,1.0363,1.0315,1.0315,1.0315,1.0356,1.0405,1.0507,1.0683,1.0914,1.1029,1.1239,1.1525,1.1674,1.1823,1.1979,1.2203,1.2311,1.2359,1.2461,1.2447,1.2366,1.2264,1.2318,1.2433,1.2345,1.2345,1.2447,1.2813,1.2705,1.2501,1.2807,1.2737,1.2515,1.2645,1.2935,1.3241,1.3648,1.3876,1.418,1.4701,1.4984,1.5174,1.5472,1.5588,1.576,1.6213,1.6843,1.7639,1.8687,2.0194,2.1592,2.2754,2.435,2.5833,2.6872,2.8315,2.931,2.9525,3.0366,3.0996,3.1209,3.1303,3.1436,3.1711,3.1711,3.1711,3.1711,3.1711,3.1711,3.1711,3.1711,3.1711,3.1711,3.1711,3.1711,3.1711,3.1711,3.1711,3.1711,3.1711,3.1711,3.1698,3.1436,3.1476,3.1698,3.1436,3.1476,3.1671,3.1196,3.0795,3.052,0.0,0.0,0.0,0.0,0.0,0.0,0.0,0.0,0.0,0.0,0.0,0.0,0.0,0.9209,0.9346,0.9475,0.9536,0.9773,1.0242,1.0118,1.0157,1.0487,1.0493,1.0426,1.0322,1.0315,1.0315,1.0315,1.0315,1.0426,1.0704,1.0677,1.0948,1.1375,1.1531,1.1644,1.1793,1.1979,1.2173,1.2277,1.2284,1.2372,1.2494,1.2501,1.2325,1.2111,1.2111,1.2207,1.225,1.1915,1.1952,1.2139,1.2264,1.2311,1.2352,1.2611,1.2834,1.2948,1.2766,1.3119,1.3682,1.398,1.4387,1.4748,1.5099,1.5289,1.5479,1.5826,1.573,1.578,1.6454,1.7568,1.8853,2.0306,2.2052,2.3709,2.5183,2.6276,2.7418,2.866,2.9584,3.0319,3.1076,3.1162,3.1162,3.1176,3.149,3.1711,3.1711,3.1711,3.1711,3.1711,3.1711,3.1711,3.1711,3.1711,3.1711,3.1711,3.1711,3.1711,3.1711,3.1711,3.1711,3.1711,3.1711,3.1711,3.1711,3.1711,3.1711,3.1711,3.1711,3.1711,3.1711,3.1698,3.1323,3.0742,0.0,0.0,0.0,0.0,0.0,0.0,0.0,0.0,0.0,0.0,0.0,0.0,0.0,0.0,0.0,0.0,0.9627,0.9885,1.0266,1.0519,1.076,1.0944,1.1225,1.1344,1.1294,1.1025,1.0895,1.0895,1.0776,1.0738,1.084,1.0968,1.1199,1.1545,1.1599,1.1755,1.1993,1.2186,1.2244,1.2298,1.2393,1.2406,1.2352,1.2288,1.2088,1.187,0.0,1.1533,1.156,1.1423,1.1458,1.1581,1.2036,1.2006,1.1925,1.2325,1.2684,1.3057,1.3261,1.362,1.4041,1.4588,1.4855,1.514,1.5588,1.5717,1.5779,1.5881,1.5655,1.5725,1.6698,1.7691,1.9003,2.0955,2.3101,2.4936,2.6063,2.7525,2.8699,2.93,3.0057,3.0717,3.1149,3.1396,3.1517,3.1517,3.1657,3.1711,3.1711,3.1711,3.1711,3.1711,3.1711,3.1711,3.1711,3.1711,3.1711,3.1711,3.1711,3.1711,3.1711,3.1711,3.1711,3.1711,3.1711,3.1711,3.1711,3.1711,3.1711,3.1711,3.1711,3.1711,3.1711,3.1711,3.1303,3.0782,0.0,0.0,0.0,0.0,0.0,0.0,0.0,0.0,0.0,0.0,0.0,0.0,0.0,0.0,0.0,0.0,0.0,0.9999,1.0311,1.0599,1.0814,1.1012,1.1258,1.1402,1.1402,1.1145,1.107,1.1128,1.1056,1.1126,1.1293,1.1337,1.1566,1.1875,1.173,1.1864,1.2186,1.225,1.2257,1.2254,1.2311,1.2196,1.1959,1.19,1.166,0.0,1.1172,1.1016,1.0968,1.1023,1.1111,1.1274,1.1717,1.1911,1.2016,1.2237,1.2759,1.3336,1.3585,1.4041,1.454,1.4936,1.5282,1.5547,1.584,1.5901,1.5888,1.5784,1.5452,1.5512,1.6628,1.7726,1.9265,2.1592,2.4051,2.6077,2.7204,2.8507,2.9491,2.9978,3.0491,3.0942,3.1343,3.1557,3.1711,3.1711,3.1711,3.1711,3.1711,3.1711,3.1711,3.1711,3.1711,3.1711,3.1711,3.1711,3.1711,3.1711,3.1711,3.1711,3.1711,3.1711,3.1711,3.1711,3.1711,3.1711,3.1711,3.1711,3.1711,3.1711,3.1711,3.1711,3.1711,3.1711,3.1303,3.0795,0.0,0.0,0.0,0.0,0.0,0.0,0.0,0.0,0.0,0.0,0.0,0.0,0.0,0.0,0.0,0.0,0.0,0.0,1.0383,1.0376,1.0472,1.0702,1.0762,1.0777,1.0777,1.0739,1.0814,1.0993,1.1132,1.1451,1.1952,1.1767,1.1909,1.2358,1.1958,1.1982,1.2268,1.2268,1.2186,1.205,1.205,1.1791,1.1369,1.1362,1.109,1.0704,1.084,1.0711,1.0527,1.0677,1.0941,1.1261,1.1389,1.2033,1.2638,1.242,1.3057,1.3808,1.3842,1.4428,1.5064,1.5174,1.5588,1.5901,1.5901,1.5894,1.5847,1.5635,1.5166,1.5098,1.6322,1.7835,1.9742,2.231,2.4816,2.7021,2.8585,2.9207,2.9806,3.0675,3.0782,3.1022,3.1644,3.1711,3.1711,3.1711,3.1711,3.1711,3.1711,3.1711,3.1711,3.1711,3.1711,3.1711,3.1711,3.1711,3.1711,3.1711,3.1711,3.1711,3.1711,3.1711,3.1711,3.1711,3.1711,3.1711,3.1711,3.1711,3.1711,3.1711,3.1711,3.1711,3.1711,3.1711,3.1303,3.0808,0.0,0.0,0.0,0.0,0.0,0.0,0.0,0.0,0.0,0.0,0.0,0.0,0.0,0.0,0.0,0.0,0.0,0.0,1.0395,1.0755,1.1004,1.1062,1.1361,1.1534,1.1534,1.1232,1.1096,1.1134,1.1024,1.104,1.1165,1.127,1.1501,1.1811,1.1716,1.1717,1.1839,1.1839,1.1677,1.1424,1.1424,1.126,1.1016,1.0934,1.0786,1.0677,1.0636,1.0629,1.0683,1.0806,1.1198,1.1708,1.1979,1.2372,1.274,1.3044,1.3458,1.3923,1.4529,1.4903,1.5215,1.5636,1.582,1.5901,1.5901,1.6056,1.6063,1.5678,1.5508,1.5788,1.6984,1.8173,1.9914,2.2824,2.495,2.6807,2.8559,2.9207,2.9726,3.044,3.0662,3.0942,3.1303,3.1543,3.1711,3.1711,3.1711,3.1711,3.1711,3.1711,3.1711,3.1711,3.1711,3.1711,3.1711,3.1711,3.1711,3.1711,3.1711,3.1711,3.1711,3.1711,3.1711,3.1711,3.1711,3.1711,3.1711,3.1711,3.1711,3.1711,3.1711,3.1711,3.1711,3.1711,3.1436,3.1089,0.0,0.0,0.0,0.0,0.0,0.0,0.0,0.0,0.0,0.0,0.0,0.0,0.0,0.0,0.0,0.0,0.0,0.0,0.0,1.0636,1.0879,1.0988,1.1191,1.1326,1.1326,1.1094,1.1017,1.1096,1.1054,1.1126,1.131,1.1324,1.1441,1.1625,1.1495,1.1472,1.1586,1.1617,1.1434,0.0,0.0,1.0932,1.0515,1.0427,1.0393,1.0393,1.0405,1.0622,1.0975,1.1396,1.1726,1.2094,1.2467,1.2874,1.3227,1.3519,1.3946,1.4441,1.493,1.5309,1.5636,1.6133,1.6251,1.621,1.632,1.6393,1.6344,1.5965,1.593,1.6361,1.7517,1.8877,2.064,2.3138,2.5091,2.6876,2.8487,2.903,2.9553,3.0319,3.0667,3.0902,3.1149,3.149,3.1711,3.1711,3.1711,3.1711,3.1711,3.1711,3.1711,3.1711,3.1711,3.1711,3.1711,3.1711,3.1778,3.1864,3.1864,3.1931,3.2099,3.1917,3.1864,3.1851,3.1764,3.1711,3.1711,3.1711,3.1711,3.1711,3.1711,3.1711,3.1711,3.1711,3.1476,3.1162,0.0,0.0,0.0,0.0,0.0,0.0,0.0,0.0,0.0,0.0,0.0,0.0,0.0,0.0,0.0,0.0,0.0,0.0,0.0,0.0,1.0617,1.0825,1.077,1.0751,1.0751,1.0724,1.0797,1.096,1.1078,1.1313,1.1638,1.1482,1.1456,1.1596,1.1315,1.1217,1.1325,1.1448,1.1264,1.0866,1.1055,1.0717,1.0112,0.0,1.0153,1.0194,1.0435,1.0862,1.1448,1.2124,1.2336,1.244,1.2989,1.3471,1.3869,1.3903,1.4455,1.5078,1.5201,1.5636,1.6104,1.6672,1.6804,1.6843,1.6997,1.6942,1.6776,1.6438,1.6529,1.7042,1.8154,1.9824,2.1693,2.3511,2.5407,2.7131,2.8452,2.8868,2.9379,3.0199,3.0587,3.0849,3.1142,3.1436,3.1623,3.1711,3.1711,3.1711,3.1711,3.1711,3.1711,3.1711,3.1711,3.1711,3.1711,3.1751,3.1851,3.2104,3.2144,3.234,3.2581,3.2278,3.2144,3.2091,3.1837,3.1751,3.1711,3.1711,3.1711,3.1711,3.1711,3.1711,3.1711,3.1711,3.1503,3.1276,0.0,0.0,0.0,0.0,0.0,0.0,0.0,0.0,0.0,0.0,1.0216,1.0019,0.0,0.0,0.0,0.0,0.0,0.0,0.0,0.0,0.0,1.1455,1.1181,1.1017,1.1017,1.0798,1.0704,1.0745,1.0769,1.0818,1.0883,1.0851,1.0936,1.1113,1.1056,1.0949,1.0819,1.1026,1.0899,1.0582,1.0805,1.0782,1.0662,1.0832,1.0972,0.0,1.1427,1.1773,1.2164,1.2442,1.2574,1.28,1.362,1.4034,1.4265,1.4464,1.4848,1.5208,1.5438,1.5994,1.6672,1.7343,1.7671,1.7802,1.7686,1.7809,1.7767,1.7225,1.7706,1.8506,1.941,2.0946,2.2697,2.4599,2.6079,2.7446,2.8758,2.9219,2.9459,2.9619,3.0159,3.0541,3.0835,3.1129,3.1396,3.1698,3.1711,3.1711,3.1711,3.1711,3.1711,3.1711,3.1711,3.1711,3.1711,3.1904,3.2051,3.2104,3.2393,3.2541,3.2594,3.2541,3.238,3.2104,3.2051,3.1891,3.1711,3.1711,3.1711,3.1711,3.1711,3.1711,3.1711,3.1711,3.1684,3.1557,0.0,0.0,0.0,0.0,0.0,0.0,0.0,1.0757,1.1125,1.1394,1.1409,1.1302,1.1042,1.1027,1.1076,0.0,0.0,0.0,0.0,0.0,0.0,1.2051,1.1756,1.1564,1.1564,1.1318,1.1162,1.1162,0.0,1.1072,1.0907,1.0907,1.0874,1.0854,1.0854,1.0791,1.0711,1.098,1.0917,1.0618,1.0928,1.0967,1.0808,1.101,1.1258,0.0,1.1727,1.2026,1.2365,1.2773,1.3179,1.3626,1.4084,1.4682,1.5321,1.5426,1.6036,1.6708,1.6894,1.7663,1.8586,1.9511,1.9858,1.995,1.9762,1.9625,1.9362,1.8778,1.9101,1.979,2.0633,2.1983,2.3378,2.4637,2.6186,2.7475,2.8214,2.9005,2.9486,2.9486,3.0052,3.052,3.0768,3.1049,3.1343,3.165,3.1711,3.1711,3.1711,3.1711,3.1711,3.1711,3.1711,3.1711,3.1711,3.1957,3.2185,3.238,3.2674,3.2902,3.2986,3.2888,3.2661,3.2367,3.2171,3.1931,3.1711,3.1711,3.1711,3.1711,3.1711,3.1711,3.1711,3.1711,3.1711,3.1698,0.0,0.0,0.0,0.0,0.0,0.0,0.0,1.1604,1.2043,1.236,1.2737,1.2786,1.2311,1.2116,1.2092,0.0,0.0,0.0,0.0,0.0,0.0,0.0,0.0,0.0,1.2382,0.0,0.0,1.1873,1.1873,0.0,0.0,0.0,0.0,0.0,1.0888,1.0861,1.0795,1.1155,1.1109,0.0,0.0,1.1246,1.1027,0.0,0.0,0.0,0.0,1.2295,1.2704,1.3165,1.3949,1.474,1.4845,1.5575,1.6406,1.6597,1.7444,1.8352,1.856,1.955,2.0741,2.1774,2.2125,2.218,2.1992,2.1579,2.101,2.0355,2.0468,2.0932,2.1635,2.2811,2.3828,2.4442,2.5963,2.7242,2.7562,2.8631,2.9392,2.9392,2.9958,3.0453,3.0755,3.0996,3.1289,3.1684,3.1711,3.1711,3.1711,3.1711,3.1711,3.1711,3.1711,3.1711,3.1711,3.2024,3.2367,3.2594,3.2955,3.3187,3.34,3.3106,3.2875,3.2581,3.2238,3.1931,3.1711,3.1711,3.1711,3.1711,3.1711,3.1711,3.1711,3.1711,3.1711,3.1711,0.0,0.0,0.0,0.0,0.0,0.0,0.0,1.2775,1.3149,1.3667,1.3763,1.3956,1.4376,1.3763,1.3342,0.0,0.0,0.0,0.0,0.0,0.0,0.0,0.0,0.0,0.0,0.0,0.0,1.2772,1.2772,0.0,0.0,0.0,0.0,0.0,0.0,1.1345,1.1097,1.1495,0.0,0.0,0.0,0.0,0.0,0.0,0.0,0.0,0.0,1.3168,1.3743,1.3744,1.4844,1.6275,1.6635,1.6833,1.7089,1.7884,1.868,1.9453,1.9911,2.1051,2.237,2.3147,2.372,2.3948,2.3505,2.2944,2.2288,2.1423,2.1475,2.1798,2.2177,2.3078,2.3972,2.4509,2.5653,2.6667,2.7269,2.8323,2.9041,2.9041,2.9593,3.0181,3.0742,3.0822,3.1062,3.1671,3.1711,3.1711,3.1711,3.1711,3.1711,3.1711,3.1711,3.1711,3.1711,3.2273,3.2567,3.2607,3.3106,3.3387,3.34,3.3106,3.2875,3.2581,3.2238,3.1931,3.1711,3.1711,3.1711,3.1711,3.1711,3.1711,3.1711,3.1711,3.1711,3.1711,0.0,0.0,0.0,0.0,0.0,0.0,1.339,1.3787,1.4148,1.4352,1.4651,1.4938,1.5166,1.501,1.4771,1.4496,0.0,0.0,0.0,0.0,0.0,0.0,0.0,0.0,0.0,0.0,1.4266,1.4159,1.4008,0.0,0.0,0.0,0.0,0.0,0.0,1.2119,1.1672,1.2062,0.0,0.0,0.0,0.0,0.0,0.0,0.0,0.0,0.0,0.0,1.4602,1.4946,1.6132,1.76,1.8176,1.9003,1.9794,1.9947,2.0955,2.2132,2.2942,2.4362,2.5759,2.6152,2.642,2.6377,2.547,2.4555,2.3635,2.2674,2.2294,2.2207,2.2585,2.3102,2.3634,2.4048,2.5104,2.6066,2.6653,2.7749,2.8631,2.8948,2.9406,2.9953,3.0715,3.0795,3.1036,3.1671,3.1711,3.1711,3.1711,3.1711,3.1711,3.1711,3.1711,3.1711,3.1711,3.2078,3.242,3.2594,3.2959,3.3146,3.3146,3.3026,3.2719,3.2278,3.2158,3.1931,3.1711,3.1711,3.1711,3.1711,3.1711,3.1711,3.1711,3.1711,3.1711,3.1711,0.0,0.0,0.0,0.0,0.0,1.4196,1.4364,1.4675,1.4951,1.5022,1.5356,1.5594,1.5594,1.5817,1.5822,1.5486,1.5451,0.0,0.0,0.0,0.0,0.0,0.0,0.0,0.0,0.0,1.5473,1.5393,1.519,1.4922,0.0,0.0,1.397,1.3521,0.0,0.0,0.0,0.0,0.0,0.0,0.0,0.0,0.0,0.0,0.0,0.0,0.0,0.0,0.0,0.0,0.0,1.8735,1.9558,2.0619,2.162,2.1782,2.288,2.433,2.5364,2.6813,2.8033,2.8167,2.8124,2.7744,2.6655,2.5488,2.439,2.3435,2.2837,2.2551,2.2859,2.3046,2.3313,2.375,2.4609,2.5491,2.6172,2.7309,2.8272,2.8801,2.9245,2.9833,3.0715,3.0955,3.1223,3.1684,3.1711,3.1711,3.1711,3.1711,3.1711,3.1711,3.1711,3.1711,3.1711,3.1957,3.2211,3.246,3.2755,3.2902,3.2902,3.2759,3.2492,3.2104,3.2011,3.1851,3.1711,3.1711,3.1711,3.1711,3.1711,3.1711,3.1711,3.157,3.1597,3.1711,0.0,0.0,0.0,0.0,0.0,0.0,1.5404,1.5499,1.5571,1.5761,1.5784,1.5808,1.5808,1.6086,1.6297,1.6297,1.6297,0.0,0.0,0.0,0.0,0.0,0.0,0.0,0.0,0.0,1.6551,1.6297,1.6271,1.5992,1.5485,1.5485,1.5286,1.4953,0.0,0.0,0.0,0.0,0.0,0.0,0.0,0.0,0.0,0.0,0.0,0.0,0.0,0.0,0.0,0.0,0.0,0.0,0.0,2.1276,2.1847,2.3095,2.4306,2.5502,2.6602,2.7655,2.8492,2.8388,2.8116,2.7581,2.6613,2.5453,2.4359,2.3479,2.3073,2.2893,2.2893,2.2893,2.3094,2.371,2.4262,2.4957,2.5877,2.7001,2.7923,2.8537,2.9125,2.9833,3.0715,3.1316,3.1711,3.1711,3.1711,3.1711,3.1711,3.1711,3.1711,3.1711,3.1711,3.1711,3.1711,3.1957,3.2104,3.2104,3.246,3.2594,3.2594,3.2251,3.2104,3.2091,3.1797,3.1724,3.1711,3.1711,3.1711,3.1711,3.1711,3.1711,3.1684,3.1343,3.1423,3.1623,0.0,0.0,0.0,0.0,0.0,0.0,0.0,1.5713,1.5737,1.5784,1.5808,1.5808,1.5808,1.6099,1.6297,1.6297,1.6484,0.0,0.0,0.0,0.0,0.0,0.0,0.0,0.0,0.0,1.7095,1.7186,1.7014,1.6828,1.6669,1.6418,1.6178,1.5885,1.5817,1.5618,0.0,0.0,0.0,0.0,0.0,0.0,1.6043,0.0,0.0,0.0,0.0,0.0,0.0,0.0,0.0,0.0,0.0,0.0,0.0,2.3725,2.4635,2.5613,2.669,2.7607,2.8234,2.7984,2.7693,2.7143,2.604,2.5159,2.4346,2.3479,2.3086,2.2893,2.2893,2.2893,2.3094,2.371,2.4088,2.4783,2.6079,2.6961,2.7776,2.8735,2.978,3.0568,3.1036,3.1436,3.1711,3.1711,3.1711,3.1711,3.1711,3.1711,3.1711,3.1711,3.1711,3.1711,3.1711,3.1757,3.1904,3.2104,3.2198,3.2238,3.2238,3.2144,3.1998,3.1797,3.1751,3.1711,3.1711,3.1711,3.1711,3.1711,3.1711,3.1543,3.1356,3.1263,3.1156,3.1089,0.0,0.0,0.0,0.0,0.0,0.0,0.0,1.5808,1.5808,1.5808,1.5808,1.5808,1.5808,1.6192,1.6458,1.6458,1.6807,0.0,0.0,0.0,0.0,0.0,0.0,0.0,0.0,1.7353,1.734,1.7608,1.7516,1.745,1.7358,1.725,1.7064,1.6802,1.6783,1.6694,0.0,0.0,0.0,0.0,0.0,0.0,1.7418,0.0,0.0,0.0,0.0,0.0,0.0,0.0,0.0,0.0,0.0,0.0,0.0,0.0,2.4213,2.4885,2.6267,2.705,2.7456,2.7162,2.6774,2.6225,2.5237,2.4532,2.3919,2.3287,2.3215,2.3174,2.2934,2.3174,2.3496,2.3763,2.4289,2.505,2.6079,2.7055,2.8072,2.9188,3.0314,3.1022,3.1162,3.149,3.1711,3.1711,3.1711,3.1711,3.1711,3.1711,3.1711,3.1711,3.1711,3.1711,3.1711,3.1711,3.1757,3.1944,3.1944,3.1944,3.1944,3.1944,3.1837,3.1711,3.1711,3.1711,0.0,3.1711,3.1711,3.1711,3.1543,3.1383,3.1196,3.0982,3.0929,3.0969,0.0,0.0,0.0,0.0,0.0,0.0,0.0,1.5808,1.5808,1.5808,1.5808,1.5808,1.5808,1.6328,1.67,1.67,0.0,0.0,0.0,0.0,0.0,0.0,0.0,0.0,0.0,1.7301,1.7301,1.7608,1.7849,1.7849,1.7622,1.7889,1.7876,1.7662,1.7674,1.7669,0.0,0.0,0.0,0.0,1.8288,1.8386,0.0,0.0,0.0,0.0,0.0,0.0,0.0,0.0,0.0,0.0,0.0,0.0,0.0,0.0,0.0,0.0,0.0,2.5998,2.6185,2.5904,2.5422,2.4836,2.4275,2.3714,0.0,2.296,2.3375,2.3616,2.3014,2.3594,2.4115,2.3884,2.477,2.5625,2.6011,2.7322,2.8687,2.9833,3.0702,3.1209,3.1249,3.1503,3.1711,3.1711,3.1711,3.1711,3.1711,3.1711,3.1711,3.1711,3.1711,3.1711,3.1711,3.1711,3.1711,3.1711,3.1711,3.1711,3.1711,3.1711,3.1711,3.1711,3.1711,3.1711,3.1711,3.1711,3.1711,3.161,3.133,3.1162,3.1129,3.0595,3.0728,3.1156,0.0,0.0,0.0,0.0,0.0,0.0,0.0,0.0,0.0,0.0,1.5808,1.5808,1.5808,1.6328,1.67,0.0,0.0,0.0,0.0,0.0,0.0,0.0,0.0,0.0,0.0,1.71,1.7061,1.7608,1.7662,1.7769,1.7916,1.7955,1.8103,1.8277,1.8302,1.8393,0.0,0.0,0.0,0.0,1.9176,1.9419,0.0,0.0,0.0,0.0,2.0824,2.0909,0.0,0.0,0.0,0.0,0.0,0.0,0.0,0.0,2.3,2.3094,2.3509,0.0,2.4405,2.4338,2.4218,2.3981,0.0,2.3385,2.3233,2.296,2.3375,2.3616,2.3014,2.3594,2.4182,2.4115,2.489,2.5772,2.652,2.7896,2.9259,3.0448,3.0768,3.1076,3.1517,3.1623,3.1711,3.1711,3.1711,3.1711,3.1711,3.1711,3.1711,3.1711,3.1711,3.1711,3.1711,3.1711,3.1711,3.1711,3.1711,3.1711,3.1711,3.1711,3.1711,3.1711,3.1711,3.1711,3.1711,3.1711,3.153,3.1316,3.1249,3.1089,3.0875,3.0742,3.0782,3.0915,0.0,0.0,0.0,0.0,0.0,0.0,0.0,0.0,0.0,0.0,0.0,0.0,0.0,0.0,0.0,0.0,0.0,0.0,0.0,0.0,0.0,0.0,0.0,1.714,1.7595,1.7167,1.7153,1.7608,1.7889,1.8009,1.7995,1.8275,1.8436,1.8504,1.8637,1.8851,0.0,0.0,0.0,0.0,1.97,0.0,0.0,0.0,0.0,0.0,2.1109,2.1109,0.0,2.1662,2.1903,2.2071,0.0,0.0,0.0,0.0,2.2893,2.2893,2.2893,2.3134,2.3388,2.3388,2.3388,2.3348,2.3153,2.3113,2.3073,2.2934,2.3496,2.3781,2.318,2.3915,2.4556,2.4422,2.5251,2.636,2.7614,2.8721,2.978,3.0688,3.1133,3.1543,3.2002,3.2232,3.2374,3.2374,3.2374,3.228,3.2043,3.2043,3.1901,3.1724,3.1711,3.1711,3.1711,3.1711,3.1711,3.1711,3.1711,3.1711,3.1711,3.1711,3.1711,3.1711,3.1711,3.1711,3.1711,3.1517,3.137,3.1209,3.1076,3.0929,3.0795,3.0795,3.0875,3.1009,0.0,0.0,0.0,0.0,0.0,0.0,0.0,0.0,0.0,0.0,0.0,0.0,0.0,0.0,0.0,0.0,0.0,0.0,0.0,0.0,0.0,0.0,0.0,1.734,1.7595,1.7353,1.734,1.7608,1.8143,1.8289,1.8103,1.8636,1.8811,1.8637,1.8878,1.9132,0.0,0.0,0.0,1.9441,1.997,0.0,0.0,0.0,0.0,0.0,0.0,0.0,0.0,2.1489,2.1783,2.2031,2.2325,0.0,0.0,0.0,0.0,0.0,2.2893,2.2934,2.2974,2.2974,2.3,2.3041,2.3041,2.3041,2.3041,2.3041,2.3674,2.4102,2.3532,2.4382,2.5064,2.4773,2.5798,2.7161,2.8761,2.9584,3.0217,3.0853,3.1607,3.2234,3.2475,3.2927,3.3224,3.3224,3.3224,3.2974,3.2563,3.2455,3.2232,3.1806,3.1758,3.1711,3.1711,3.1711,3.1711,3.1711,3.1711,3.1711,3.1711,3.1711,3.1711,3.1711,3.1711,3.1711,3.165,3.1343,3.1196,3.1129,3.0889,3.0795,3.0795,3.0849,3.1049,3.1289,0.0,0.0,0.0,0.0,0.0,0.0,0.0,0.0,0.0,0.0,0.0,0.0,0.0,0.0,0.0,0.0,0.0,0.0,0.0,0.0,0.0,1.7608,1.7327,1.734,1.7595,1.7353,1.734,1.7608,1.7916,1.8196,1.8437,1.8743,1.9038,1.9267,1.9308,1.9348,1.9401,0.0,1.9401,1.9441,1.997,0.0,0.0,0.0,0.0,0.0,0.0,0.0,0.0,2.1489,2.1783,2.2031,2.2325,0.0,0.0,0.0,0.0,0.0,2.2893,2.306,2.326,2.326,2.3447,2.3669,2.3669,2.3669,2.3669,2.3669,2.4128,2.4426,2.4128,2.4823,2.5438,2.5384,2.6573,2.7856,2.8855,2.9893,3.0758,3.1313,3.2103,3.2734,3.3041,3.3177,3.3224,3.3224,3.3224,3.3163,3.3069,3.2658,3.2361,3.228,3.1901,3.1711,3.1711,3.1711,3.1711,3.1711,3.1711,3.1711,3.1711,3.1711,3.1711,3.1711,3.1711,3.1711,3.165,3.1343,3.1076,3.0849,3.0808,3.0795,3.0822,3.1062,3.1343,3.1597,0.0,0.0,0.0,0.0,0.0,0.0,0.0,0.0,0.0,0.0,0.0,0.0,0.0,0.0,0.0,0.0,0.0,0.0,0.0,0.0,0.0,1.7608,1.7488,1.7474,1.7608,1.7474,1.7474,1.7608,1.805,1.8357,1.8504,1.8958,1.9239,1.9401,1.9401,1.9401,1.9401,1.9562,1.9629,1.9682,0.0,0.0,0.0,0.0,0.0,0.0,0.0,0.0,0.0,0.0,2.1542,2.1836,2.2098,0.0,0.0,0.0,0.0,0.0,2.2893,2.3241,2.3567,2.3567,2.371,2.3843,2.3968,2.4008,2.4048,2.4209,2.4583,2.4836,2.4703,2.5264,2.6037,2.6919,2.8042,2.9089,2.9934,3.0746,3.1433,3.1877,3.2658,3.3246,3.3558,3.3836,3.4038,3.4038,3.4038,3.3883,3.3587,3.3116,3.2705,3.2421,3.1948,3.1711,3.1711,3.1711,3.1711,3.1711,3.1711,3.1711,3.1711,3.1711,3.1711,3.1711,3.1711,3.1583,3.141,3.1116,3.0915,3.0795,3.0795,3.0889,3.1062,3.1356,3.1557,3.1711,0.0,0.0,0.0,0.0,0.0,0.0,0.0,0.0,0.0,0.0,0.0,0.0,0.0,0.0,0.0,0.0,0.0,0.0,0.0,0.0,1.7541,1.7608,1.7608,1.7608,1.7608,1.7608,1.7608,1.7608,1.8196,1.8557,1.8704,1.9187,1.9401,1.9401,1.9401,1.9428,1.9508,1.9706,1.984,1.9947,0.0,0.0,0.0,0.0,0.0,0.0,0.0,0.0,0.0,0.0,0.0,0.0,0.0,0.0,0.0,2.2813,2.2893,2.2893,2.2893,2.3295,2.3688,2.379,2.3964,2.4165,2.4356,2.4516,2.4676,2.4903,2.5184,2.5411,2.5478,2.6142,2.7094,2.8331,2.9319,3.0237,3.0937,3.1645,3.2197,3.2553,3.3279,3.3844,3.4089,3.4461,3.471,3.471,3.471,3.4508,3.4118,3.3634,3.3116,3.2597,3.2138,3.1806,3.1711,3.1711,3.1711,3.1711,3.1711,3.1711,3.1711,3.1711,3.1711,3.1711,3.1711,3.1543,3.1303,3.1009,3.0889,3.0889,3.0889,3.1076,3.1356,3.1631,3.1711,3.1711,0.0,0.0,0.0,0.0,0.0,0.0,0.0,0.0,0.0,0.0,0.0,0.0,0.0,0.0,0.0,0.0,0.0,0.0,0.0,0.0,1.7353,1.7595,1.7608,1.7608,1.7608,1.7608,1.7608,1.7608,1.8196,1.8799,1.9334,1.9374,1.9401,1.9401,1.9401,1.9548,1.9773,1.9786,1.996,2.0197,2.0548,0.0,0.0,0.0,0.0,0.0,0.0,0.0,0.0,0.0,0.0,0.0,0.0,0.0,2.2472,2.2813,2.2893,2.2893,2.2893,2.31,2.342,2.3736,2.4419,2.4997,2.5048,2.5476,2.5877,2.5891,2.6131,2.6373,2.6653,2.7784,2.8742,2.8838,2.9979,3.0937,3.1304,3.2271,3.3057,3.3372,3.4135,3.4633,3.4648,3.4663,3.471,3.471,3.471,3.4695,3.4648,3.4118,3.3634,3.3177,3.2658,3.2138,3.1711,3.1711,3.1711,3.1711,3.1711,3.1711,3.1711,3.1711,3.1711,3.1711,3.1711,3.1711,3.1657,3.1316,3.1196,3.1196,3.1196,3.1383,3.1684,3.1711,3.1711,3.1711,0.0,0.0,0.0,0.0,0.0,0.0,0.0,0.0,0.0,0.0,0.0,0.0,0.0,0.0,0.0,0.0,0.0,0.0,0.0,1.6913,1.7246,1.7367,1.7515,1.7608,1.7608,1.7608,1.7608,1.7608,1.8196,1.8812,1.9401,1.9401,1.9401,1.9401,1.9401,1.9455,1.9589,1.992,2.0104,2.0237,2.0748,2.0949,0.0,0.0,0.0,0.0,0.0,0.0,0.0,0.0,2.1189,2.1323,2.1649,2.1957,2.2205,2.2498,2.2746,2.2893,2.2893,2.3086,2.3394,2.3736,2.4472,2.5224,2.5772,2.6386,2.6974,2.7495,2.7576,2.7496,2.7375,2.8326,2.9293,2.9828,3.1028,3.2033,3.2461,3.3203,3.379,3.392,3.4412,3.471,3.471,3.471,3.471,3.471,3.471,3.471,3.471,3.4212,3.3681,3.321,3.2705,3.2185,3.1711,3.1711,3.1711,3.1711,3.1711,3.1711,3.1711,3.1711,3.1711,3.1711,3.1711,3.157,3.1383,3.1276,3.1176,3.1203,3.1423,3.157,3.1711,3.1711,3.1711,3.1711,0.0,0.0,0.0,0.0,0.0,0.0,0.0,0.0,0.0,0.0,0.0,0.0,0.0,0.0,0.0,0.0,0.0,0.0,1.6284,1.6697,1.6939,1.7033,1.7314,1.7474,1.7474,1.7568,1.7608,1.7608,1.8196,1.8744,1.9225,1.9348,1.9401,1.9401,1.9401,1.9441,1.9562,1.992,2.017,2.0384,2.0815,2.1029,0.0,0.0,0.0,0.0,0.0,0.0,0.0,0.0,2.1109,2.1162,2.1489,2.1783,2.2044,2.2338,2.2632,2.2893,2.2893,2.3086,2.3394,2.3736,2.4472,2.5396,2.6426,2.7162,2.7817,2.8577,2.8724,2.866,2.8323,2.9186,3.0142,3.0797,3.192,3.2914,3.3434,3.3888,3.4256,3.4358,3.4563,3.471,3.471,3.471,3.471,3.471,3.4607,3.4549,3.4549,3.4106,3.3536,3.293,3.2556,3.204,3.1443,3.1443,3.1443,3.1443,3.1443,3.1537,3.1711,3.1711,3.1711,3.1711,3.1711,3.1557,3.137,3.137,3.137,3.1383,3.1583,3.1711,3.1711,3.1711,3.1711,3.1711,0.0,0.0,0.0,0.0,0.0,0.0,0.0,0.0,0.0,0.0,0.0,0.0,0.0,0.0,0.0,0.0,0.0,0.0,1.627,1.6297,1.6431,1.6687,1.702,1.7206,1.7206,1.7461,1.7608,1.7608,1.8224,1.8637,1.8903,1.9225,1.9401,1.9401,1.9401,1.9562,1.98,1.98,2.0134,2.0699,2.0712,2.0855,2.1109,0.0,0.0,0.0,0.0,0.0,0.0,0.0,2.1109,2.1162,2.1489,2.1783,2.2044,2.2338,2.2632,2.2893,2.2893,2.31,2.3372,2.3701,2.4472,2.5478,2.6988,2.7777,2.8366,2.8895,2.9468,2.9833,2.9539,3.0513,3.1427,3.1735,3.2617,3.3435,3.4124,3.4227,3.4344,3.4666,3.471,3.471,3.471,3.4695,3.4695,3.4695,3.4402,3.4212,3.4212,3.3859,3.3273,3.2345,3.2299,3.1794,3.0795,3.0795,3.0795,3.0795,3.0795,3.1102,3.1711,3.1711,3.1711,3.1711,3.1711,3.1711,3.1711,3.1711,3.1711,3.1711,3.1711,3.1711,3.1711,3.1711,3.1711,3.1711,0.0,0.0,0.0,0.0,0.0,0.0,0.0,0.0,0.0,0.0,0.0,0.0,0.0,0.0,0.0,0.0,0.0,0.0,1.5928,1.6152,1.6337,1.6417,1.6913,1.7206,1.7206,1.7461,1.7689,1.7876,1.8303,1.8637,1.8903,1.9225,1.9401,1.9401,1.9401,1.9441,1.9535,1.972,2.0013,2.0388,2.0619,2.0855,2.1109,0.0,0.0,0.0,0.0,0.0,0.0,0.0,0.0,0.0,2.1489,2.1783,2.2044,2.2338,2.2779,2.3193,2.3193,2.3554,2.4008,2.4302,2.5037,2.6118,2.759,2.835,2.9058,3.006,3.0408,3.0381,2.9887,3.0828,3.1679,3.1763,3.299,3.3947,3.4183,3.4417,3.4592,3.4695,3.471,3.471,3.471,3.4505,3.4358,3.4358,3.4066,3.383,3.383,3.3454,3.2939,3.2345,3.1932,3.1427,3.0795,3.0795,3.0795,3.0795,3.0795,3.0996,3.1356,3.1356,3.1476,3.1711,3.1711,3.1711,3.1711,3.1711,3.1711,3.1711,3.1711,3.1711,3.1711,3.1711,3.1711,3.1711,0.0,0.0,0.0,0.0,0.0,0.0,0.0,0.0,0.0,0.0,0.0,0.0,0.0,0.0,0.0,0.0,0.0,0.0,0.0,1.5992,1.6099,1.6099,1.6685,1.7113,1.7341,1.7515,1.7729,1.7995,1.8343,1.8584,1.8758,1.9201,1.9401,1.9401,1.9401,1.9401,1.9401,1.9589,1.9867,2.0224,2.0428,2.0748,2.1109,0.0,0.0,0.0,0.0,0.0,0.0,0.0,0.0,0.0,2.1529,2.1943,2.2398,2.2539,2.302,2.3527,2.3647,2.4102,2.4623,2.4879,2.5732,2.6934,2.8526,2.9392,3.0069,3.0822,3.1062,3.0996,3.0528,3.1208,3.1877,3.2047,3.2917,3.3654,3.3769,3.3956,3.4085,3.4085,3.4085,3.4085,3.4085,3.3798,3.3596,3.3596,3.3194,3.2935,3.2935,3.2534,3.2101,3.1662,3.1299,3.0935,3.0448,3.0448,3.0448,3.0448,3.0568,3.0768,3.1049,3.1169,3.1383,3.1711,3.1711,3.1711,3.1711,3.1711,3.1711,3.1711,3.1711,3.1711,3.1711,3.1711,3.1711,3.1711,0.0,0.0,0.0,0.0,0.0,0.0,0.0,0.0,0.0,0.0,0.0,0.0,0.0,0.0,0.0,0.0,0.0,0.0,0.0,0.0,1.5808,1.5808,1.6393,1.6981,1.7595,1.7608,1.7716,1.7955,1.833,1.8504,1.8544,1.9134,1.9401,1.9401,1.9401,1.9401,1.9401,1.9401,1.9706,2.0197,2.0197,2.0557,2.1109,2.1109,0.0,0.0,0.0,0.0,0.0,0.0,0.0,0.0,2.1622,2.2211,2.2907,2.2934,2.3388,2.395,2.4235,2.477,2.5317,2.5638,2.6613,2.7991,2.9619,3.0662,3.1263,3.1263,3.1476,3.1583,3.1316,3.1637,3.2046,3.2367,3.2597,3.2841,3.3182,3.3224,3.3224,3.3224,3.3224,3.321,3.3182,3.2841,3.2645,3.2617,3.2071,3.1749,3.1749,3.1424,3.1062,3.0616,3.0571,3.0316,2.9913,2.9913,2.9913,2.9913,3.0194,3.052,3.0768,3.1076,3.1383,3.1711,3.1711,3.1711,3.1711,3.1711,3.1711,3.1711,3.1711,3.1711,3.1711,3.1711,3.1711,3.1711,0.0,0.0,0.0,0.0,0.0,0.0,0.0,0.0,0.0,0.0,0.0,0.0,0.0,0.0,0.0,0.0,0.0,0.0,0.0,0.0,1.5808,1.5808,1.6393,1.6981,1.7595,1.7608,1.7635,1.7689,1.8223,1.8611,1.881,1.9227,1.9401,1.9401,1.9401,1.9401,1.9401,1.9401,1.9706,2.0197,2.0197,2.0557,2.1109,2.1109,2.1109,0.0,0.0,0.0,0.0,0.0,0.0,0.0,2.185,2.2372,2.2947,2.3153,2.3772,2.4532,2.509,2.5825,2.6573,2.7094,2.8297,2.9566,3.0408,3.1102,3.157,3.157,3.1671,3.1698,3.1631,3.1995,3.2339,3.2408,3.2791,3.314,3.321,3.3224,3.3224,3.3224,3.3224,3.3126,3.2827,3.2533,3.2299,3.2001,3.1637,3.1427,3.1427,3.1,3.0705,3.0616,3.0227,3.0003,2.9913,2.9913,2.9913,2.9913,2.998,3.0167,3.052,3.0996,3.1383,3.1711,3.1711,3.1711,3.1711,3.1711,3.1711,3.1711,3.1711,3.1711,3.1711,3.1711,3.1711,3.1711,0.0,0.0,0.0,0.0,0.0,0.0,0.0,0.0,0.0,0.0,0.0,0.0,0.0,0.0,0.0,0.0,0.0,0.0,0.0,0.0,1.5928,1.6208,1.654,1.6981,1.7595,1.7608,1.7649,1.7782,1.8263,1.8571,1.8731,1.9187,1.9401,1.9401,1.9401,1.9401,1.9401,1.9401,1.9706,2.0197,2.0197,2.0557,2.1109,2.1109,2.1109,2.1109,2.1109,0.0,0.0,0.0,0.0,0.0,0.0,0.0,2.3388,2.3661,2.4275,2.501,2.5732,2.6466,2.7308,2.847,2.9446,3.0287,3.0862,3.1343,3.1711,3.1711,3.1711,3.1711,3.1711,3.1901,3.2043,3.2043,3.228,3.2469,3.2469,3.2469,3.2469,3.2469,3.2469,3.2345,3.1997,3.1743,3.1441,3.114,3.0838,3.0616,3.0616,3.0406,3.0272,3.0272,3.0048,2.9847,2.9713,2.9713,2.9633,2.9455,2.978,3.014,3.0627,3.0875,3.1102,3.1249,3.1249,3.1249,3.1249,3.1249,3.1249,3.1249,3.1249,3.1249,3.1249,3.1249,3.133,3.1463,0.0,0.0,0.0,0.0,0.0,0.0,0.0,0.0,0.0,0.0,0.0,0.0,0.0,0.0,0.0,0.0,0.0,0.0,0.0,0.0,0.0,1.6607,1.6687,1.6954,1.7528,1.7582,1.7702,1.7942,1.8424,1.8665,1.8679,1.9214,1.9468,1.9468,1.9468,1.9468,1.9468,1.9415,1.9706,2.0197,2.0197,2.0557,2.1109,2.1109,2.1109,2.1109,2.1109,2.1109,2.1149,2.1489,0.0,0.0,0.0,0.0,2.387,2.4182,2.469,2.5358,2.6293,2.7122,2.8072,2.9606,3.0221,3.0614,3.1102,3.145,3.1711,3.1711,3.1711,3.1711,3.1711,3.1711,3.1711,3.1711,3.1711,3.1711,3.1711,3.1671,3.1597,3.1597,3.1597,3.145,3.1116,3.0902,3.0648,3.036,3.006,2.9913,2.9913,2.9913,2.99,2.9847,2.9847,2.97,2.9406,2.9406,2.9312,2.9081,2.9659,3.0167,3.0648,3.0648,3.0702,3.0795,3.0795,3.0795,3.0795,3.0795,3.0795,3.0795,3.0795,3.0795,3.0795,3.0795,3.0942,3.1156,0.0,0.0,0.0,0.0,0.0,0.0,0.0,0.0,0.0,0.0,1.5808,0.0,0.0,0.0,0.0,0.0,0.0,0.0,1.5808,0.0,0.0,1.6337,1.6567,1.686,1.7246,1.7474,1.7635,1.7649,1.8746,1.9281,1.9281,1.9586,1.9746,1.9746,1.9746,1.9746,1.972,1.9508,1.9706,2.0197,2.0197,2.0557,2.1109,2.1109,2.1109,2.1109,2.1109,2.1109,2.1149,2.1489,2.1783,0.0,0.0,0.0,2.391,2.4386,2.4959,2.5705,2.6881,2.8192,2.9366,3.0159,3.0515,3.0822,3.1156,3.145,3.1711,3.1711,3.1711,3.1711,3.1711,3.1711,3.1711,3.1711,3.1711,3.1711,3.1711,3.145,3.1289,3.1289,3.1289,3.1076,3.0574,3.0662,3.0568,3.002,2.994,2.9913,2.9913,2.9913,2.9806,2.9553,2.9539,2.9392,2.9055,2.9055,2.9205,2.9432,2.9753,2.9953,3.0034,3.0034,3.0314,3.0795,3.0795,3.0795,3.0795,3.0795,3.0795,3.0795,3.0795,3.0795,3.0795,3.0795,3.0822,3.0889,0.0,0.0,0.0,0.0,0.0,0.0,0.0,0.0,0.0,0.0,0.0,1.5808,0.0,0.0,0.0,1.5808,1.5808,1.5808,1.5808,1.5808,1.5941,1.6284,1.6417,1.6618,1.6926,1.722,1.7367,1.7367,1.8558,1.9227,1.9415,2.003,2.0294,2.0281,2.012,2.001,2.004,1.9907,2.0094,2.0481,2.0481,2.0735,2.1109,2.1109,2.1109,2.1109,2.1109,2.1109,2.1176,2.1676,2.1917,2.2124,2.2886,0.0,0.0,0.0,2.5411,2.6266,2.7483,2.8484,2.9379,2.9967,3.0327,3.0621,3.0915,3.1089,3.1223,3.1383,3.1423,3.1476,3.1684,3.1711,3.1711,3.1711,3.153,3.1423,3.1423,3.1169,3.0982,3.0982,3.0982,3.0822,3.044,3.052,3.0381,2.9953,2.9913,2.9847,2.9686,2.9673,2.9539,2.9245,2.9232,2.9098,2.8761,2.8804,2.8938,2.9245,2.9526,2.9753,2.9913,2.9913,3.006,3.0301,3.0301,3.0301,3.0301,3.0301,3.0301,3.0301,3.0301,3.0301,3.0301,3.0301,3.0408,3.0595,0.0,0.0,0.0,0.0,0.0,0.0,0.0,0.0,0.0,0.0,0.0,0.0,0.0,0.0,0.0,0.0,1.5808,1.5808,1.5808,1.5808,1.5901,1.6152,1.6257,1.6404,1.6593,1.6979,1.7206,1.7206,1.8424,1.9145,1.9415,2.0298,2.0753,2.0806,2.0481,2.0347,2.0304,2.0237,2.0401,2.0712,2.0712,2.0855,2.1109,2.1109,2.1203,2.1336,2.1336,2.1336,2.1416,2.205,2.2144,2.2151,2.314,2.3794,0.0,0.0,0.0,2.6974,2.7924,2.8524,2.9028,2.9659,3.0034,3.0373,3.0621,3.0742,3.0849,3.1076,3.1122,3.1276,3.1423,3.1617,3.1684,3.157,3.137,3.1196,3.1129,3.0862,3.0688,3.0688,3.0688,3.0568,3.0319,3.036,3.0253,2.9833,2.9806,2.9673,2.9392,2.9366,2.9232,2.8895,2.8895,2.8791,2.8497,2.8564,2.8711,2.8895,2.9232,2.9486,2.9655,2.9655,2.974,2.9806,2.9887,2.9913,2.9913,2.9913,2.9913,2.9913,2.9913,2.9913,2.9913,2.9913,3.01,3.0453,0.0,0.0,0.0,0.0,0.0,0.0,0.0,0.0,0.0,0.0,0.0,0.0,1.5808,1.5808,1.5808,1.5808,1.5808,1.5808,1.5808,1.5808,1.5808,1.5821,1.6126,0.0,1.6324,1.6911,1.7206,1.7206,1.8652,1.9388,1.9415,2.0298,2.0828,2.1069,2.0788,2.0686,2.0641,2.0317,2.0401,2.0712,2.0712,2.0855,2.1109,2.1109,2.1456,2.1937,2.1937,2.1937,2.2064,2.2653,2.2479,2.2191,2.3415,2.3955,2.4436,0.0,0.0,0.0,2.8098,2.8419,2.8778,2.9366,2.9726,3.002,3.036,3.0641,3.0795,3.0808,3.1036,3.1142,3.0889,3.1289,3.1583,3.1289,3.1189,3.1129,3.0849,3.0614,3.0426,3.0426,3.0426,3.0306,2.9967,3.0194,3.0172,2.9553,2.9499,2.9379,2.9041,2.9015,2.8881,2.8644,2.8631,2.8484,2.8219,2.8457,2.8617,2.8631,2.8881,2.9028,2.9041,2.9041,2.9245,2.9526,2.9793,2.9913,2.9913,2.9913,2.9913,2.9913,2.9913,2.9913,2.9913,2.9913,3.01,3.0453,0.0,0.0,0.0,0.0,0.0,0.0,0.0,0.0,0.0,0.0,0.0,0.0,0.0,1.5808,1.5808,1.5808,1.5808,1.5808,1.5808,1.5808,1.5808,1.5808,1.6112,1.6297,1.6297,1.6898,1.7206,1.7206,1.8291,1.9027,1.9401,1.991,2.0374,2.0828,2.0753,2.0806,2.0949,2.0842,2.0855,2.0949,2.0949,2.1015,2.1149,2.1523,2.1804,2.2031,2.2452,2.2345,2.2071,2.2693,2.2592,2.2445,2.3447,2.4272,2.5037,2.6439,2.7269,2.7762,2.8098,2.8419,2.8657,2.8871,2.9138,2.9432,2.9726,2.9873,3.006,3.0434,3.0595,3.0702,3.0782,3.1116,3.1289,3.0996,3.0795,3.0635,3.0574,3.0145,2.9918,3.006,2.9913,2.9833,2.9913,2.9847,2.9713,2.9499,2.9312,2.9072,2.8778,2.8721,2.8617,2.8366,2.8353,2.8299,2.8179,2.8457,2.8604,2.8604,2.8855,2.9001,2.9001,2.9001,2.9055,2.9219,2.9513,2.974,2.9913,2.9913,2.9913,2.9913,2.9913,3.0034,3.0207,3.0207,3.0381,3.0675,0.0,0.0,0.0,0.0,0.0,0.0,0.0,0.0,0.0,0.0,0.0,0.0,0.0,0.0,1.5808,1.5808,1.5901,1.5915,1.5808,1.5901,1.5979,1.5979,1.6259,1.6444,1.6444,1.6951,1.7206,1.7206,1.7943,1.8544,1.8931,1.9319,1.9773,2.0271,2.0365,2.0601,2.0962,2.0962,2.1015,2.1109,2.1109,2.1109,2.1162,2.1657,2.205,2.2372,2.288,2.2766,2.2512,2.3041,2.2934,2.2712,2.3549,2.4553,2.5663,2.6934,2.7468,2.7762,2.8098,2.8339,2.847,2.8577,2.8751,2.8935,2.9272,2.9339,2.9472,3.0012,3.0186,3.0274,3.0461,3.0742,3.0875,3.0675,3.0533,3.0333,3.0145,2.9726,2.9513,2.9606,2.9446,2.9406,2.9562,2.9446,2.9299,2.9192,2.9005,2.8764,2.847,2.8364,2.8203,2.8045,2.8031,2.8085,2.8179,2.8393,2.8457,2.8457,2.8551,2.8548,2.8548,2.8484,2.8551,2.8751,2.8951,2.9312,2.978,2.9873,2.9913,2.9913,2.9913,3.0034,3.0266,3.0373,3.0587,3.0835,0.0,0.0,0.0,0.0,0.0,0.0,0.0,0.0,0.0,1.5835,0.0,0.0,0.0,0.0,0.0,1.5835,1.6112,1.6166,1.5848,1.6126,1.631,1.631,1.6567,1.6714,1.6714,1.7033,1.7219,1.7219,1.7716,1.7982,1.8009,1.8609,1.9065,1.9401,1.9653,2.0094,2.0686,2.0699,2.0842,2.1096,2.1109,2.1109,2.1149,2.1489,2.2144,2.2934,2.3233,2.3305,2.3345,2.3688,2.3415,2.3027,2.3656,2.4847,2.6172,2.7041,2.7468,2.7762,0.0,0.0,0.0,2.8524,2.8591,2.8671,2.8921,2.8988,2.9068,2.9406,2.97,2.9887,2.9887,3.0127,3.036,3.036,3.0373,3.0186,2.9566,2.9472,2.9352,2.9028,2.8988,2.8988,2.9001,2.8988,2.8868,2.8631,2.8591,2.8444,2.8192,2.7898,2.7696,2.7696,2.7696,2.7884,2.8165,2.8165,2.8165,2.8152,2.7829,2.7682,2.7682,2.7443,2.7617,2.8165,2.8179,2.8687,2.9472,2.978,2.9913,2.9913,2.9913,2.9927,2.9967,3.0306,3.06,3.0835,0.0,0.0,0.0,0.0,0.0,0.0,1.6433,0.0,1.6435,0.0,0.0,0.0,1.6435,1.6435,1.6435,1.6435,1.654,1.6553,1.6473,1.654,1.658,1.658,1.6899,1.7046,1.7046,1.7341,1.7488,1.7488,1.7622,1.7796,1.7995,1.8155,1.8529,1.9052,1.9132,1.9492,2.0067,2.0494,2.0753,2.0846,2.1029,2.1109,2.1189,2.1911,2.2325,2.2659,2.3621,2.3652,2.3372,2.3915,2.387,2.3736,2.4716,2.5598,2.636,2.6814,2.7295,2.7722,2.7802,0.0,0.0,0.0,0.0,0.0,2.8657,2.8724,2.8804,2.9055,2.9188,2.9242,2.9242,2.9308,2.9406,2.9406,2.9579,2.9673,2.9499,2.9112,2.8898,2.8988,2.8815,2.8804,2.8975,2.8801,2.8698,2.8617,2.8203,2.7909,2.7829,2.7749,2.7696,2.7696,2.7696,2.7736,2.7816,2.7657,2.755,2.755,2.7469,2.7429,2.7416,2.7349,2.7389,2.7576,2.8005,2.8326,2.8607,2.9299,2.9726,2.9913,2.9913,3.0047,3.0319,3.0568,3.0728,3.0862,0.0,0.0,0.0,0.0,0.0,1.6391,1.666,1.67,1.67,0.0,0.0,0.0,1.6899,1.7101,1.7154,1.6939,1.7007,1.6967,1.6727,1.682,1.6913,1.6913,1.7193,1.738,1.738,1.7528,1.7608,1.7608,1.7608,1.7675,1.7836,1.7956,1.8263,1.8744,1.8836,1.9185,1.9653,2.0241,2.0561,2.0726,2.0989,2.1109,2.1176,2.1817,2.2138,2.2378,2.3447,2.3585,2.3385,2.4008,2.4168,2.4315,2.5371,2.5932,2.6332,2.6707,2.7148,2.7549,2.7669,2.7951,2.8179,2.8179,0.0,0.0,2.8419,2.8417,2.8497,2.8804,2.8815,2.8855,2.8975,2.9001,2.9001,2.9001,2.9085,2.9112,2.9112,2.8818,2.8617,2.8657,2.8511,2.8484,2.8644,2.8511,2.8364,2.8243,2.7896,2.7642,2.7522,2.7402,2.7388,2.7509,2.7402,2.7388,2.7522,2.7389,2.7309,2.7309,2.7134,2.7081,2.7081,2.7001,2.7001,2.7094,2.7442,2.7844,2.8232,2.8888,2.9366,2.9753,2.9873,3.002,3.0207,3.0501,3.0608,3.0748,0.0,0.0,1.5955,1.6297,1.6377,1.6498,1.6754,1.6807,1.6807,0.0,1.6834,1.6967,1.7313,1.7756,1.7862,1.7393,1.7528,1.7408,1.6887,1.71,1.7246,1.7246,1.7474,1.7595,1.7635,1.7622,1.7595,1.7635,1.7595,1.7608,1.7622,1.7836,1.8143,1.8504,1.8758,1.9052,1.9441,1.9957,2.0401,2.0739,2.1069,2.1243,2.1336,2.1662,2.1943,2.2245,2.3113,2.3385,2.3479,2.4102,2.4516,2.4917,2.5743,2.6011,2.6145,2.6627,2.7001,2.7362,2.7575,2.7938,2.8179,2.8138,2.8138,0.0,2.8098,2.8085,2.8165,2.8404,2.8457,2.8551,2.8788,2.8855,2.8855,2.8895,2.8724,2.8564,2.8604,2.8577,2.8457,2.8219,2.8179,2.8179,2.8179,2.8152,2.8031,2.7722,2.7642,2.7468,2.7229,2.6947,2.6947,2.7242,2.6961,2.6947,2.7255,2.7229,2.7202,2.7202,2.6907,2.6774,2.676,2.6507,2.6533,2.6774,2.6814,2.7281,2.8112,2.8417,2.8925,2.9513,2.9806,2.9913,2.9953,3.0293,3.0386,3.044,0.0,1.6019,1.6273,1.6567,1.6846,1.71,1.7394,1.7408,1.7408,1.7408,1.7596,1.7876,1.8196,1.833,1.8357,1.8264,1.8063,1.7876,1.7742,1.7609,1.7528,1.7528,1.7582,1.7702,1.7929,1.7716,1.7702,1.7929,1.7702,1.7608,1.7608,1.7649,1.7969,1.849,1.8544,1.8865,1.9441,1.9957,2.0401,2.0779,2.151,2.2131,2.2586,2.2859,2.302,2.3118,2.3794,2.4035,2.4128,2.4716,2.5264,2.577,2.5944,2.6158,2.6333,2.644,2.6894,2.7322,2.7376,2.7777,2.8125,2.7843,2.7789,0.0,2.7536,2.7483,2.7496,2.7563,2.7563,2.7657,2.7909,2.7963,2.8043,2.8326,2.8312,2.8366,2.8577,2.839,2.8259,2.8192,2.8179,2.8179,2.8179,2.7965,2.7762,2.7696,2.7255,2.6867,2.6573,2.672,2.6854,2.6907,2.6814,2.6814,2.6907,2.668,2.656,2.656,2.6507,2.6466,2.6466,2.6413,2.6426,2.6493,2.672,2.7054,2.7523,2.8058,2.8767,2.9513,2.9806,2.9913,2.9953,3.0293,3.0207,3.0087,1.6019,1.6166,1.6431,1.6872,1.7099,1.73,1.7568,1.7716,1.7782,1.7782,1.8303,1.8758,1.8933,1.9185,1.9239,1.8986,1.8798,0.0,0.0,1.8116,1.8036,1.8036,1.8036,1.8103,1.8236,1.7942,1.7862,1.7995,1.7729,1.7608,1.7608,1.7608,1.7929,1.849,1.849,1.8839,1.9441,1.9957,2.0464,2.0949,2.1697,2.2245,2.2672,2.2979,2.3193,2.3372,2.3995,2.4489,2.4903,2.5197,2.5623,2.6051,2.6293,2.6493,2.664,2.6787,2.7175,2.7482,2.7482,2.7737,2.7924,2.7736,2.7589,0.0,0.0,2.7309,2.7309,2.7309,2.7309,2.7349,2.7496,2.7482,2.7576,2.7724,2.775,2.7804,2.7909,2.8098,2.8179,2.8179,2.8179,2.8125,2.7978,2.7789,2.7575,2.7281,2.6854,2.66,2.66,2.66,2.668,2.6814,2.668,2.66,2.66,2.6466,2.6386,2.6386,2.6386,2.6386,2.6386,2.6386,2.6386,2.64,2.6547,2.6854,2.7336,2.7777,2.8444,2.9285,2.9593,2.9793,2.994,3.0087,3.0047,2.998,1.6244,1.6337,1.6551,1.7112,1.7246,1.7341,1.7568,1.7822,1.8049,1.8249,1.9025,1.9602,1.9722,2.0227,2.0361,1.987,1.9709,1.9401,1.8784,1.8637,1.8544,1.849,1.849,1.8517,1.8571,1.8249,1.8103,1.8103,1.7822,1.7635,1.7608,1.7649,1.7969,1.849,1.8544,1.8905,1.9522,1.9983,2.0544,2.1162,2.175,2.2191,2.2525,2.28,2.3126,2.3532,2.4155,2.4903,2.5585,2.5531,2.5785,2.6238,2.668,2.6827,2.6947,2.7121,2.7388,2.7602,2.7549,2.7575,2.7602,2.7549,2.7348,2.7202,0.0,0.0,0.0,2.7135,2.7135,2.7162,2.7215,2.7175,2.7242,2.7296,2.7309,2.7309,2.7309,2.771,2.8018,2.8018,2.8018,2.7924,2.7642,2.7562,2.7308,2.6774,2.652,2.6466,2.664,2.6493,2.6466,2.6653,2.648,2.6386,2.6386,2.6386,2.6386,2.6386,2.6386,2.6386,2.6386,2.6386,2.6386,2.6386,2.6386,2.6694,2.7242,2.7495,2.811,2.8911,2.9325,2.9659,2.9913,2.9913,2.9913,2.9953,1.6284,1.6473,1.6767,1.7139,1.7394,1.7568,1.7608,1.7822,1.8303,1.9147,1.9746,2.0304,2.0855,2.143,2.1689,2.1368,2.086,2.0311,1.9693,1.913,1.8758,1.8504,1.849,1.8611,1.8836,1.8584,1.8437,1.8437,1.8116,1.7822,1.7622,1.7836,1.8143,1.8504,1.8758,1.9199,1.9773,2.0064,2.0544,2.1162,2.175,2.2345,2.2853,2.288,2.3415,2.4182,2.477,2.5422,2.5904,2.5598,2.6052,2.6734,2.676,2.7001,2.7215,2.6934,2.7081,2.7296,2.6987,2.7108,2.7255,2.6987,2.6894,2.68,2.6547,0.0,2.6493,2.6493,0.0,2.656,2.6827,0.0,0.0,2.7269,2.7309,2.7309,2.7309,2.7362,2.7403,2.7403,2.7403,2.7389,2.7362,2.7081,2.6787,2.6466,2.6413,2.6293,2.6105,2.6305,2.6332,2.6105,2.6279,2.6386,2.6386,2.6386,2.6386,2.6386,2.6386,2.6386,2.6386,2.6386,2.6386,2.6386,2.6386,2.6573,2.6894,2.7188,2.7724,2.8366,2.9165,2.9659,2.9913,2.9913,2.9913,2.9927,1.6526,1.6779,1.7086,1.7381,1.7528,1.7649,1.7796,1.8397,1.9011,1.9546,2.0267,2.0931,2.155,2.2171,2.2479,2.2358,2.1924,2.1443,2.0886,2.0267,1.9813,1.9519,1.9345,1.9225,1.9185,1.8891,1.8744,1.8744,1.8249,1.7956,1.7822,1.7956,1.8183,1.8504,1.8798,1.9252,1.9826,2.0294,2.0735,2.1162,2.175,2.2231,2.2619,2.2827,2.3527,2.4492,2.5117,2.5636,2.5957,2.5611,2.5985,2.6627,2.6974,2.7202,2.7322,2.7321,2.7295,2.7282,2.7108,2.7041,2.6974,2.6854,2.6694,2.6547,2.6413,0.0,2.6386,2.6386,0.0,0.0,0.0,0.0,0.0,0.0,2.68,2.68,2.68,2.6653,2.6734,2.7242,2.7309,2.7175,2.6787,2.6493,2.6199,2.5905,2.5879,2.5825,2.5705,2.5812,2.5905,2.5998,2.6118,2.6265,2.6386,2.6386,2.6386,2.6386,2.6386,2.6386,2.6386,2.6386,2.6386,2.6386,2.6386,2.656,2.6841,2.7148,2.7657,2.8259,2.8938,2.9406,2.9686,2.986,2.9913,2.9913,1.6927,1.7086,1.7286,1.7555,1.7649,1.7862,1.8316,1.9092,1.976,2.0214,2.1189,2.2031,2.2539,2.3295,2.3683,2.3522,2.3193,2.2752,2.2117,2.1435,2.0869,2.0464,2.0201,1.9867,1.9522,1.9279,1.905,1.889,1.8463,1.8223,1.8143,1.8223,1.8369,1.8624,1.8918,1.9372,1.9947,2.0374,2.0815,2.1269,2.1777,2.2258,2.2712,2.318,2.3941,2.4786,2.5331,2.5705,2.5957,2.5611,2.5905,2.648,2.6987,2.7242,2.7336,2.7415,2.7308,2.7162,2.7081,2.6867,2.6707,2.6707,2.6547,0.0,0.0,0.0,0.0,2.6386,2.6386,0.0,0.0,0.0,2.636,2.6279,0.0,2.6239,2.6159,2.6011,2.6145,2.6867,2.6881,2.6613,2.6186,2.5998,2.5745,2.5531,2.5518,2.5478,2.5398,2.5464,2.5571,2.5757,2.5917,2.6091,2.6266,2.6346,2.6386,2.6386,2.6386,2.6386,2.6386,2.6386,2.6386,2.6386,2.6386,2.6507,2.6734,2.7108,2.7563,2.8018,2.8657,2.9098,2.9406,2.978,2.9913,2.9913,1.7528,1.7367,1.7286,1.7555,1.7809,1.8303,1.9227,1.9826,2.0521,2.1422,2.2813,2.383,2.4102,2.5208,2.5663,2.5101,2.4743,2.4159,2.3292,2.2445,2.1683,2.1109,2.0802,2.0374,1.98,1.9773,1.9492,1.889,1.8876,1.8744,1.8477,1.8743,1.8876,1.889,1.9254,1.9679,2.0184,2.021,2.0748,2.1596,2.1903,2.2512,2.3359,2.4212,2.4783,2.5104,2.5411,2.5705,2.5957,2.5611,2.5905,0.0,0.0,2.7028,2.7255,2.6934,2.68,2.6774,2.6493,2.6413,2.64,2.64,0.0,0.0,0.0,0.0,2.6386,0.0,0.0,0.0,2.6386,2.6386,0.0,0.0,2.6011,0.0,0.0,2.5531,2.5651,2.5998,2.5745,2.5558,2.5545,2.5531,2.5518,2.5518,2.5518,2.5384,2.5141,2.5358,2.5384,2.5155,2.5703,2.5998,2.6011,2.6292,2.6386,2.6386,2.6386,2.6386,2.6386,2.6386,2.6386,2.6386,2.6386,2.6386,2.6453,2.7068,2.7322,2.7416,2.827,2.8804,2.9081,2.9655,2.9913,2.9913,1.8197,1.813,1.809,1.817,1.8277,1.8571,1.9294,2.0391,2.1315,2.181,2.33,2.4529,2.5024,2.5772,2.6159,2.5959,2.5678,2.513,2.4212,2.3332,2.2605,2.2004,2.1323,2.0775,2.0388,2.0,1.9706,1.9506,1.9118,1.885,1.8784,1.885,1.889,1.8903,1.9267,1.9693,2.021,2.0441,2.1042,2.1917,2.2398,2.3027,2.3701,2.4332,2.4823,2.5155,2.5411,2.5571,2.5611,2.5331,2.5491,2.5865,2.6159,2.6359,2.6412,2.6319,2.6292,2.6186,0.0,0.0,2.6145,2.6145,0.0,0.0,0.0,0.0,0.0,0.0,0.0,0.0,0.0,2.6265,2.6118,0.0,2.5824,2.5625,0.0,2.5344,2.5197,2.509,2.5344,2.5438,2.5251,2.5224,2.5144,2.4906,2.4893,2.4853,2.4759,2.4877,2.4983,2.5115,2.5315,2.5503,2.5665,2.5758,2.5905,2.6145,2.6145,2.6238,2.6386,2.6386,2.6386,2.6386,2.6386,2.6386,2.6413,2.6814,2.7094,2.7376,2.8072,2.8484,2.8818,2.9406,2.9753,2.9913,1.8931,1.8784,1.8611,1.8504,1.8692,1.9027,1.9586,2.1034,2.2198,2.2599,2.4249,2.552,2.5932,2.66,2.6921,2.6573,2.6373,2.5892,2.4973,2.4186,2.3439,2.2732,2.2098,2.1456,2.0873,2.0454,2.0107,1.98,1.9426,1.9185,1.9078,1.9078,1.9078,1.9092,1.9308,1.9693,2.021,2.0441,2.1082,2.2058,2.2893,2.3576,2.4142,2.473,2.4997,2.5155,2.5411,2.5518,2.5464,2.5184,2.5197,2.5411,2.5705,2.5837,2.5837,2.5837,2.5837,2.5797,2.5558,2.5651,0.0,2.5837,2.5917,0.0,2.6238,0.0,2.6386,0.0,0.0,0.0,0.0,0.0,2.5931,2.5717,0.0,2.5317,0.0,2.4957,2.473,2.4613,2.4933,2.513,2.4943,2.4823,2.469,2.4452,2.4382,2.4329,2.4329,2.4422,2.4569,2.4756,2.5007,2.517,2.5358,2.5464,2.5611,2.5798,2.5944,2.6091,2.6279,2.6346,2.6386,2.6386,2.6386,2.6386,2.6413,2.6707,2.7001,2.7349,2.7844,2.8243,2.8671,2.9272,2.9673,2.9913,1.972,1.9345,1.885,1.8597,1.9067,1.9655,2.0184,2.179,2.3174,2.379,2.5585,2.6854,2.6827,2.767,2.7831,2.6921,2.68,2.6466,2.5571,2.4933,2.4239,2.3372,2.3046,2.2372,2.1216,2.1149,2.0722,1.9867,1.984,1.9679,1.9415,1.9401,1.9401,1.9401,1.9401,1.9679,2.0184,2.0197,2.0909,2.2084,2.3268,2.4048,2.4599,2.5237,2.5304,2.5104,2.5411,2.5518,2.5464,2.5157,2.5101,2.5104,2.5371,2.5451,2.5451,2.5451,2.5464,2.5464,2.5464,2.5478,2.5491,2.5491,2.5718,0.0,0.0,0.0,2.6386,0.0,0.0,0.0,0.0,0.0,0.0,2.5208,0.0,2.493,2.4599,2.4356,2.4289,2.4519,2.4559,2.4559,2.4572,2.4356,2.4182,2.4182,2.3928,2.3803,2.3803,2.4035,2.4182,2.4182,2.4743,2.5074,2.5074,2.5331,2.5478,2.5491,2.5837,2.5984,2.6011,2.6292,2.6386,2.6386,2.6386,2.6386,2.6413,2.6694,2.6987,2.7336,2.7562,2.8056,2.8671,2.9245,2.9646,2.99,1.9495,1.9533,1.9546,1.9479,1.9977,2.0565,2.1154,2.2726,2.4075,2.47,2.6185,2.7228,2.7455,2.7911,2.7911,2.7255,2.7148,2.668,2.5585,2.517,2.4676,2.4008,2.3295,2.276,2.2452,2.181,2.1248,2.0775,2.0304,1.9973,1.9679,1.9495,1.9401,1.9401,1.9401,1.9602,1.992,2.0117,2.0909,2.2031,2.2552,2.3126,2.3719,2.4519,2.4773,2.4823,2.5293,2.5518,2.5438,2.4879,2.4719,2.473,2.4583,2.4543,2.4543,2.4543,2.4653,2.4826,2.4826,2.5024,2.5197,2.5197,2.5411,2.5678,0.0,0.0,0.0,0.0,0.0,0.0,0.0,0.0,0.0,2.5141,2.4716,2.4329,2.4035,2.3964,2.395,2.3981,2.3995,2.4075,2.4289,2.4048,2.3888,2.3888,2.3843,2.3803,2.3803,2.3884,2.3888,2.3888,2.4235,2.4436,2.4436,2.4716,2.497,2.5197,2.5491,2.5745,2.6011,2.6292,2.6386,2.6386,2.6386,2.6386,2.64,2.6466,2.68,2.7309,2.7389,2.7883,2.8644,2.9018,2.9339,2.9593,2.0134,2.0054,2.0007,2.0121,2.0829,2.1429,2.1737,2.314,2.4502,2.5396,2.6667,2.7603,2.7898,2.8205,2.8098,2.7362,2.7309,2.6867,2.5772,2.5438,2.501,2.4422,2.3781,2.3295,2.2907,2.2412,2.189,2.1328,2.0708,2.0281,1.9987,1.9589,1.9401,1.9401,1.9401,1.9562,1.984,2.0388,2.1069,2.189,2.2539,2.3145,0.0,2.4653,2.5066,2.5237,2.5438,2.5424,2.5237,2.4649,2.4412,2.4396,2.4102,2.4022,2.4022,2.4022,2.4128,2.4262,2.4262,2.4476,2.4703,2.4703,2.5104,2.5531,2.561,2.5944,2.6159,0.0,2.5879,2.577,0.0,0.0,0.0,2.4743,2.4315,2.3955,2.383,2.3661,2.3621,2.379,2.3576,2.3522,2.3794,2.3674,2.3581,2.3581,2.3482,2.3415,2.3415,2.35,2.3581,2.3581,2.3981,2.4209,2.4209,2.4452,2.4679,2.489,2.5317,2.5598,2.581,2.6199,2.6386,2.6386,2.6386,2.6386,2.6386,2.6386,2.6653,2.7094,2.7348,2.7843,2.843,2.8591,2.8925,2.9312,2.0876,2.0491,2.0253,2.0416,2.1427,2.219,2.2123,2.3413,2.4802,2.5893,2.6987,2.7749,2.8098,2.8323,2.8163,2.7376,2.7309,2.6934,2.6051,2.5718,2.5304,2.4679,2.4422,2.3875,2.3094,2.3,2.2559,2.1756,2.1087,2.0588,2.025,1.9653,1.9401,1.9401,1.9401,1.9575,1.9907,2.0748,2.1309,2.1743,2.2899,2.3741,2.4342,2.5144,2.5638,2.5904,2.5598,2.5331,2.5021,2.4396,2.4209,2.4155,2.3897,2.3803,2.3817,2.3857,2.387,2.387,2.387,2.4035,2.4249,2.4209,2.4836,2.5384,2.5144,2.5543,2.5864,2.5558,2.5478,2.5384,2.513,0.0,0.0,2.4235,2.3901,2.3736,2.3696,2.3434,2.3367,2.3656,2.3215,0.0,2.3145,2.3212,2.3212,2.3172,2.2993,2.288,2.284,2.31,2.326,2.326,2.3808,2.4102,2.4142,2.4399,2.4559,2.4613,2.5199,2.5518,2.5531,2.6119,2.6386,2.6386,2.6386,2.6386,2.6386,2.6386,2.6587,2.6934,2.7482,2.7883,2.8179,2.8179,2.847,2.8921,1.963,1.9879,2.0086,1.9744,2.1045,2.2248,2.2577,2.4302,2.5701,2.6107,2.6865,2.7496,2.7749,2.7829,2.7696,2.7349,2.7309,2.6934,2.6051,2.5944,2.565,2.5024,2.4716,2.4332,2.3981,2.3487,2.3046,2.2666,2.1563,2.0882,2.0575,1.9776,1.9401,1.9401,1.9401,1.9666,2.017,2.0811,2.1416,2.2017,2.3207,2.4035,2.4572,2.501,2.5331,2.5585,2.5531,2.5331,2.5021,2.4396,2.4209,2.4155,2.3897,2.3803,2.3857,2.4062,2.4128,2.4128,2.4128,2.4342,2.4466,2.4262,2.469,2.5144,2.5128,2.5344,2.5571,2.5518,2.5317,2.5144,2.5128,0.0,0.0,0.0,0.0,0.0,0.0,2.3014,2.3,2.3054,2.296,2.2827,2.2592,2.2806,2.288,2.2592,2.2752,2.2786,2.2512,2.2779,2.2974,2.2974,2.33,2.3594,2.3884,2.4142,2.4396,2.4613,2.5199,2.5518,2.5531,2.6119,2.6386,2.6386,2.6386,2.6386,2.6386,2.6386,2.6707,2.7215,2.7562,2.7883,2.8179,2.8179,2.8259,2.8379,2.0528,2.0606,2.0595,2.0099,2.1198,2.2436,2.3243,2.4943,2.6225,2.6585,2.7127,2.7549,2.7682,2.7884,2.7791,2.7349,2.7443,2.7188,2.6453,2.6266,2.6024,2.5596,2.5104,2.473,2.4399,2.4008,2.3554,2.31,2.2218,2.1483,2.0895,2.0468,1.9977,1.9401,1.9401,1.9853,2.0677,2.0989,2.1724,2.2739,2.3509,2.4115,2.4639,2.497,2.5264,2.5518,2.5518,2.5331,2.501,2.4569,2.4329,2.4155,2.3897,2.3803,2.383,2.3941,2.3981,2.3981,2.3981,2.4195,2.4382,2.4235,2.4649,2.5037,2.489,2.5077,2.5251,2.5053,2.4943,2.481,2.4649,2.4142,0.0,0.0,0.0,0.0,0.0,2.2893,2.284,2.2645,2.2632,2.2512,2.2218,2.2325,2.2385,2.2205,2.2325,2.2352,2.2205,2.2472,2.2632,2.2632,2.3086,2.3474,2.3803,2.4062,2.4342,2.4613,2.5199,2.5518,2.5531,2.6119,2.6386,2.6386,2.6386,2.6386,2.6386,2.6386,2.6774,2.7322,2.7415,2.7791,2.8179,2.8179,2.8179,2.8232,2.1347,2.1192,2.1024,2.0425,2.1386,2.2572,2.3628,2.5268,2.6518,2.6882,2.7326,2.7602,2.7602,2.7857,2.7831,2.7429,2.7562,2.7482,2.6947,2.664,2.636,2.6105,2.5529,2.5037,2.4693,2.4382,2.3981,2.3479,2.2745,2.2004,2.1203,2.1136,2.0615,1.9776,1.9829,2.0405,2.1309,2.1496,2.2298,2.3447,2.3808,2.4302,2.4799,2.501,2.5304,2.5611,2.5611,2.5384,2.505,2.4839,2.4543,2.4168,2.3928,2.3897,2.391,2.3941,2.3955,2.3977,2.391,2.4075,2.4275,2.4222,2.4596,2.4903,2.4572,2.473,2.481,2.4516,2.4412,2.4382,2.4155,2.3688,0.0,0.0,0.0,0.0,0.0,2.284,2.2719,2.2411,2.2365,2.2191,2.183,2.1804,2.175,2.163,2.1844,2.1997,2.193,2.2164,2.2352,2.2418,2.2852,2.3313,2.3674,2.3968,2.4262,2.4519,2.5159,2.5518,2.5531,2.6119,2.6386,2.6386,2.6386,2.6386,2.6386,2.6386,2.6774,2.7309,2.7309,2.767,2.8179,2.8179,2.8179,2.8219,2.0468,2.0624,2.0698,1.9904,2.114,2.2444,2.326,2.5092,2.6454,2.6622,2.7062,2.7349,2.7349,2.7376,2.7469,2.7642,2.7682,2.7562,2.7282,2.6947,2.6653,2.636,2.5785,2.5331,2.505,2.4489,2.4182,2.4128,2.2945,2.2111,2.1542,2.1229,2.1056,2.0962,2.1261,2.1582,0.0,2.2766,2.3354,2.3817,2.4329,2.4866,2.5398,2.517,2.5462,2.5957,2.5957,2.5596,2.5117,2.5344,2.4877,2.4195,2.4168,2.4168,2.4209,2.4439,2.4519,2.4466,2.4235,2.4369,2.4492,2.4262,2.4449,2.4559,2.4315,2.4262,2.4209,2.395,2.3884,2.3884,2.3857,2.3541,2.3292,0.0,0.0,0.0,0.0,2.2632,2.2445,2.2385,2.2191,2.1804,2.1243,2.1189,2.0975,2.041,2.1376,2.1903,2.1636,2.1903,2.2151,2.2371,2.2438,2.2745,2.3332,2.3661,2.3955,2.4249,2.5104,2.5518,2.5531,2.6119,2.6386,2.6386,2.6386,2.6386,2.6386,2.6386,2.6774,2.7309,2.7309,2.767,2.8179,2.8179,2.8179,2.8192,2.1282,2.1351,2.1375,2.0807,2.1758,2.3079,2.4348,2.5798,2.688,2.7218,2.7398,2.7522,2.7522,2.7724,2.7737,2.7455,2.7602,2.7495,2.7028,2.7054,2.6881,2.6413,2.6159,2.5825,2.5344,2.4943,2.4556,2.4209,2.3728,2.2832,2.1582,2.179,2.171,2.1422,2.1716,2.2178,2.2819,2.3145,2.3665,2.4329,2.4743,2.5144,2.5504,2.5384,2.5705,2.6238,2.6051,2.573,2.5358,2.5478,2.505,2.4426,2.4426,2.4426,2.4452,2.4572,2.4599,2.4572,2.4452,2.4519,2.4572,2.4452,2.4519,2.4519,2.4262,2.4209,2.4115,2.387,2.3634,2.35,2.35,2.326,2.3046,2.3046,0.0,0.0,0.0,0.0,2.2352,2.2178,2.175,2.1296,2.0895,2.0681,2.045,2.0224,2.0637,2.0962,2.106,2.1296,2.159,2.1917,2.2231,2.2619,2.3046,2.3562,2.3915,2.4209,2.509,2.5518,2.5531,2.6119,2.6386,2.6386,2.6386,2.6386,2.6386,2.6386,2.6774,2.7309,2.7309,2.767,2.8179,2.8179,2.8179,2.8179,2.1543,2.1735,2.187,2.1669,2.2516,2.3772,2.5334,2.6405,2.7168,2.7654,2.7629,2.7602,2.7682,2.7857,2.7791,2.7456,2.7509,2.7388,2.6974,2.7188,2.7081,2.6533,2.644,2.6159,2.5651,2.5277,2.4877,2.4462,2.4289,2.3474,2.2117,2.2405,2.2432,0.0,2.2546,2.2993,2.3559,2.3639,2.4079,2.4783,2.4997,2.5358,2.5758,2.5678,2.6012,2.648,2.6225,2.5838,2.5518,2.5518,2.5079,2.4599,2.4599,2.4599,2.4599,2.4599,2.4599,2.4599,2.4599,2.4599,2.4599,2.4599,2.4599,2.4519,2.4262,2.4142,2.3968,2.3616,2.334,2.3193,2.3193,2.3041,2.2893,2.2893,0.0,0.0,0.0,2.2605,2.2271,2.193,2.1416,2.0922,2.0498,2.0227,2.0037,1.9987,1.9943,2.0147,2.0521,2.0828,2.1122,2.1448,2.1991,2.2432,2.276,2.3455,2.391,2.4088,2.505,2.5518,2.5531,2.6119,2.6386,2.6386,2.6386,2.6386,2.6386,2.6386,2.6774,2.7309,2.7309,2.767,2.8179,2.8179,2.8179,2.8179,2.0713,2.1272,2.182,2.2111,2.3191,2.4447,2.5767,2.6558,2.7168,2.7654,2.7455,2.7416,2.7669,2.7483,2.7429,2.7669,2.7483,2.7309,2.7309,2.7309,2.7134,2.6827,2.6547,2.6253,2.5998,2.5422,2.5115,2.5101,2.4489,2.3901,2.3265,0.0,2.3215,2.379,2.4048,2.4182,2.4209,2.4466,2.4796,2.5077,2.5115,2.5636,2.6346,2.6105,2.6306,2.6774,2.6493,2.6012,2.5518,2.5518,2.5079,2.4599,2.4599,2.4599,2.4599,2.4599,2.4599,2.4599,2.4599,2.4599,2.4599,2.4599,2.4599,2.4519,2.4262,2.3981,2.3643,2.3027,2.2907,2.2907,2.2907,2.2893,2.2893,2.2893,0.0,0.0,0.0,2.2605,0.0,2.1662,2.1296,2.0762,1.9893,1.9813,1.9679,1.9428,1.9401,1.9626,2.0184,2.0521,0.0,2.1109,2.1683,0.0,2.2385,2.3327,2.3803,2.383,2.4957,2.5518,2.5531,2.6119,2.6386,2.6386,2.6386,2.6386,2.6386,2.6386,2.6774,2.7309,2.7309,2.767,2.8179,2.8179,2.8179,2.8179,2.1101,2.1884,2.2576,2.2934,2.3991,2.5072,2.5991,2.6554,2.7012,2.7375,2.7362,2.7349,2.7429,2.7362,2.7215,2.7108,2.7014,2.6881,2.668,2.6854,2.6921,2.6787,2.6734,2.6547,2.6305,2.5917,2.5623,2.5371,0.0,0.0,0.0,2.3313,2.3287,2.35,2.4159,2.4609,2.481,2.4903,2.5104,2.5411,2.5812,2.6253,2.668,2.6587,2.6787,2.7028,2.6386,2.5838,2.5478,2.5291,2.4957,2.4599,2.4599,2.4599,2.4599,2.4599,2.4599,2.4599,2.4599,2.4599,2.4599,2.4599,2.4599,2.4519,2.4262,2.3821,2.3354,2.2974,2.2893,2.2893,2.2893,2.2893,2.2893,2.2893,2.2893,0.0,2.2893,0.0,2.1796,2.1609,2.0935,2.037,2.009,2.0064,2.0024,1.993,1.996,2.001,2.0197,2.029,0.0,0.0,2.1515,0.0,2.2124,2.302,2.3567,2.3817,2.4957,2.5718,2.6119,2.6306,2.6386,2.6386,2.6386,2.6386,2.6386,2.6386,2.6613,2.6987,2.7229,2.7536,2.7911,2.8112,2.8179,2.8179,2.1574,2.2397,2.3149,2.3894,2.488,2.5721,2.6345,2.6759,2.7014,2.7094,2.7094,2.7054,2.6988,2.6974,2.6907,2.6827,2.672,2.6587,2.64,2.6653,2.6774,2.6667,2.6867,2.68,2.64,2.6252,2.6011,2.5678,2.5571,2.5144,2.4422,2.4235,2.4142,2.4132,2.4679,2.5064,2.5237,2.5237,2.5411,2.5718,2.6118,2.6466,2.6774,2.6694,2.6841,2.7001,2.6265,2.5758,2.5464,2.5184,2.489,2.4599,2.4599,2.4599,2.4599,2.4599,2.4599,2.4599,2.4599,2.4599,2.4599,2.4599,2.4599,2.4519,2.4262,2.3834,2.3407,2.31,2.2974,2.2893,2.2893,2.2893,2.2893,2.2893,2.2893,2.2893,2.2893,0.0,2.1662,2.1448,2.0802,2.0307,2.0064,2.0144,2.025,2.0388,2.0401,2.0494,2.0722,2.0628,2.0797,2.1416,2.1863,2.2224,2.2485,2.326,2.3808,2.4115,2.517,2.5932,2.6386,2.6386,2.6386,2.6386,2.6386,2.6386,2.6386,2.6386,2.656,2.68,2.7028,2.7348,2.7722,2.7951,2.8085,2.8179,2.2065,2.279,2.3553,2.4847,2.567,2.6319,2.668,2.7014,2.7148,2.6827,2.6747,2.6694,2.6413,2.6386,2.6493,2.6734,2.6533,2.6386,2.6386,2.664,2.668,2.6426,2.6961,2.7001,2.6466,2.6413,2.6292,2.6024,2.5692,2.5545,2.5545,2.5518,2.5518,2.5518,2.5518,2.5531,2.5571,2.5571,2.5745,2.6051,2.6078,2.6399,2.6747,2.652,2.6573,2.672,2.6172,2.5732,2.5438,2.5144,2.4863,2.4599,2.4599,2.4599,2.4599,2.4599,2.4599,2.4599,2.4599,2.4599,2.4599,2.4599,2.4599,2.4519,2.4262,2.3995,2.375,2.3359,2.31,2.292,2.2893,2.2893,2.2893,2.2893,2.2893,2.2893,2.2893,2.2385,2.1777,2.1203,2.0882,0.0,1.9947,2.016,2.041,2.0779,2.0793,2.106,2.1649,0.0,2.147,2.2004,2.2626,2.3046,2.3319,2.3941,2.4396,2.4706,2.5558,2.6145,2.6386,2.6386,2.6386,2.6386,2.6386,2.6386,2.6386,2.6386,2.6547,2.6747,2.6774,2.7175,2.7669,2.7696,2.7924,2.8179,2.2239,2.3104,2.3896,2.452,2.5425,2.6081,2.6159,2.6453,2.6573,2.6507,2.6493,2.6466,2.64,2.6386,2.6333,2.6212,2.6306,2.6386,2.6386,2.6453,2.656,2.6707,2.664,2.6774,2.7095,2.6653,2.636,2.6332,2.6038,2.5891,2.5891,2.5625,2.5518,2.5518,2.5518,2.5758,2.6186,2.6186,2.6346,2.664,2.6907,2.6907,2.6774,2.6747,2.6627,2.6413,2.5825,2.5438,2.5144,2.4836,2.4653,2.4599,2.4599,2.4599,2.4599,2.4599,2.4599,2.4599,2.4599,2.4599,2.4599,2.4599,2.4599,2.4519,2.4262,2.4155,2.3955,2.3399,2.3238,2.314,2.2934,2.2893,2.2893,2.2893,2.2893,2.2893,2.2893,2.2385,2.189,2.1515,2.1189,2.0949,2.0815,2.1069,2.1395,0.0,2.167,2.197,2.2559,2.2519,2.2405,2.2311,2.2899,2.3367,2.3661,2.4249,2.4903,2.569,2.5891,2.6145,2.6386,2.6386,2.6386,2.6386,2.6386,2.6386,2.6386,2.6386,2.6426,2.652,2.6734,2.7041,2.7443,2.7615,2.7924,2.8179,2.2772,2.3486,2.4131,2.4674,2.5337,2.5758,2.5758,2.5892,2.5985,2.5985,2.5985,2.5985,2.5985,2.5985,2.5932,2.5772,2.6026,2.6132,2.5999,2.6119,2.6266,2.6413,2.6533,2.668,2.6854,2.668,2.652,2.6386,2.6265,2.6198,2.6185,2.5985,2.5919,2.5919,2.5919,2.6092,2.6386,2.6386,2.648,2.664,2.68,2.6734,2.6426,2.6426,2.6239,2.5932,2.5478,2.5211,2.5037,2.4693,2.4599,2.4599,2.4599,2.4599,2.4599,2.4599,2.4599,2.4599,2.4599,2.4599,2.4599,2.4599,2.4599,2.4559,2.4436,2.4302,2.4075,2.3621,2.342,2.3233,2.296,2.2893,2.2893,2.2893,2.2893,2.2893,2.2893,2.2385,2.1957,2.1796,2.1529,2.1341,2.1341,2.1609,2.1903,2.2164,2.2178,0.0,2.3046,2.3241,2.326,2.3233,2.3652,2.4062,2.4405,2.4943,2.5516,2.5998,2.6131,2.6279,2.6386,2.6386,2.6386,2.6386,2.6386,2.6386,2.6386,2.6386,2.6386,2.64,2.656,2.6894,2.7322,2.7442,2.7817,2.8179,2.3262,2.3726,2.4124,2.4799,2.5117,2.5331,2.5371,2.5424,2.5464,2.5504,2.5518,2.5518,2.5518,2.5518,2.5491,2.5451,2.5717,2.577,2.5531,2.5784,2.5931,2.5931,2.636,2.6533,2.6333,2.6613,2.664,2.6386,2.6386,2.6386,2.6386,2.6386,2.6386,2.6386,2.6386,2.6413,2.6453,2.6413,2.6386,2.6386,2.6346,2.6185,2.5931,2.5931,2.5705,2.5411,2.517,2.5088,2.497,2.4679,2.4599,2.4599,2.4599,2.4599,2.4599,2.4599,2.4599,2.4599,2.4599,2.4599,2.4599,2.4599,2.4599,2.4599,2.4599,2.4412,2.4168,2.387,2.3567,2.3287,2.296,2.2893,2.2893,2.2893,2.2827,2.28,2.288,0.0,2.2004,2.2044,2.1863,2.1716,2.1716,2.1943,2.2164,2.2458,2.2485,2.2752,2.3332,2.3634,2.3928,2.4262,2.4559,2.493,2.5277,2.581,2.6065,2.6065,2.6266,2.6386,2.6386,2.6386,2.6386,2.6386,2.6386,2.6386,2.6386,2.6386,2.6386,2.6386,2.6386,2.6787,2.7309,2.7309,2.7684,2.8179,2.2924,2.3209,2.3514,2.3915,2.4209,2.4489,2.4693,2.4983,2.5237,2.5478,2.5518,2.5518,2.5518,2.5518,2.5411,2.517,2.5222,2.5304,2.5504,2.5558,2.5585,2.5585,2.5665,2.5812,2.6051,2.6306,2.644,2.6386,2.6386,2.6386,2.6386,2.6386,2.6386,2.6386,2.6386,2.6533,2.6734,2.6493,2.6386,2.6373,2.6158,2.5877,2.5585,2.5585,2.5398,2.5144,2.509,2.4917,2.4666,2.4613,2.4599,2.4599,2.4599,2.4599,2.4599,2.4599,2.4599,2.4599,2.4599,2.4599,2.4599,2.4599,2.4599,2.4599,2.4599,2.4559,2.4422,2.3888,2.3763,2.3562,2.3,2.2893,2.2893,2.2893,2.2479,2.2331,2.2827,0.0,2.2071,2.2325,2.2311,2.2285,2.2285,2.2325,2.2472,2.28,2.2827,2.3094,2.371,2.3777,2.4022,2.4519,2.5053,2.5638,2.6186,2.6279,2.6319,2.6319,2.6373,2.6386,2.6386,2.6386,2.6386,2.6386,2.6386,2.6386,2.6386,2.6386,2.6386,2.6386,2.6386,2.6787,2.7309,2.7309,2.7684,2.8179,2.2331,2.28,2.3126,2.3295,2.3696,2.4022,2.4155,2.4289,2.4459,2.4556,2.4569,2.4569,2.4569,2.4569,2.4516,2.4419,2.4405,2.4436,2.4569,2.501,2.5277,2.5277,2.5424,2.5571,2.5718,2.5852,2.5919,2.5919,2.5919,2.5919,2.5919,2.5919,2.5919,2.5919,2.5919,2.5985,2.6106,2.5972,2.5919,2.5905,2.5772,2.5545,2.5277,2.5277,2.509,2.4836,2.4836,2.4719,2.4599,2.4599,2.4599,2.4599,2.4599,2.4599,2.4599,2.4599,2.4599,2.4599,2.4599,2.4599,2.4599,2.4599,2.4599,2.4599,2.4599,2.4599,2.4479,2.4088,2.391,2.3669,2.3193,2.3014,2.2893,2.2893,2.2666,2.2586,2.2853,2.2666,2.2546,2.2645,2.2659,2.2659,2.2659,2.2659,2.2712,2.288,2.2893,2.3161,2.3777,2.3803,2.4151,2.485,2.5291,2.5798,2.6386,2.6386,2.6386,2.6386,2.6386,2.6386,2.6386,2.6386,2.6386,2.6386,2.6386,2.6386,2.6386,2.6386,2.6386,2.6386,2.6386,2.6653,2.7041,2.7242,2.7576,2.7965,2.1683,2.2238,2.2612,2.2679,2.3081,2.3442,2.3576,2.3589,2.3643,2.379,2.3803,2.3803,2.3803,2.3803,2.3803,2.3803,2.3803,2.3803,2.3803,2.4432,2.4807,2.4807,2.4983,2.5144,2.5211,2.5211,2.5237,2.5304,2.5304,2.5304,2.5304,2.5304,2.5304,2.5304,2.5304,2.5304,2.5304,2.5237,2.5211,2.5197,2.513,2.501,2.4877,2.4877,2.477,2.4599,2.4599,2.4599,2.4599,2.4599,2.4599,2.4599,2.4599,2.4599,2.4599,2.4599,2.4599,2.4599,2.4599,2.4599,2.4599,2.4599,2.4599,2.4599,2.4599,2.4599,2.4519,2.4262,2.3968,2.371,2.3345,2.3073,2.2893,2.2893,0.0,2.2733,2.288,2.284,2.2853,2.2987,2.3067,2.3108,2.3108,2.3108,2.3108,2.3108,2.3108,2.3335,2.3848,2.391,2.4275,2.5157,2.5464,2.5865,2.6386,2.6386,2.6386,2.6386,2.6386,2.6386,2.6386,2.6386,2.6386,2.6386,2.6386,2.6386,2.6386,2.6386,2.6386,2.6386,2.6386,2.656,2.6854,2.7081,2.7388,2.7736,2.1109,2.1462,2.177,2.2004,2.2084,2.2331,2.288,2.296,2.3161,2.3736,2.3803,2.3803,2.3803,2.3803,2.3803,2.3803,2.3803,2.3803,2.3803,2.387,2.391,2.391,2.3924,2.4022,2.4289,2.4302,2.4436,2.4666,2.4666,2.4666,2.4666,2.4666,2.4666,2.4666,2.4666,2.4666,2.4653,2.4409,2.4302,2.4275,2.4044,2.4048,2.4275,2.4275,2.4422,2.4599,2.4599,2.4599,2.4599,2.4599,2.4599,2.4599,2.4599,2.4599,2.4599,2.4599,2.4599,2.4599,2.4599,2.4599,2.4599,2.4599,2.4599,2.4599,2.4599,2.4599,2.4519,2.4262,2.3968,2.371,2.3345,2.3073,2.2893,2.2893,0.0,0.0,2.2813,2.2619,2.2625,2.3185,2.3541,2.3736,2.3736,2.3736,2.3736,2.3736,2.3736,2.387,2.4155,2.4168,2.4569,2.5451,2.581,2.6118,2.6386,2.6386,2.6386,2.6386,2.6386,2.6386,2.6386,2.6386,2.6386,2.6386,2.6386,2.6386,2.6386,2.6386,2.6386,2.6386,2.6386,2.656,2.6787,2.6854,2.7215,2.7696,2.0477,2.0949,2.1309,2.1416,2.175,2.2091,2.2318,2.2345,2.2472,2.2873,2.2939,2.3006,2.3228,2.3241,2.3241,2.3241,2.3241,2.3241,2.3241,2.3241,2.3415,2.379,2.3803,2.3857,2.3928,2.3941,2.3995,2.4102,2.4102,2.4102,2.4102,2.4102,2.4102,2.4102,2.4102,2.4102,2.4088,2.3981,2.3941,2.3928,2.3843,2.387,2.3941,2.3941,2.4008,2.4102,2.4102,2.4209,2.4332,2.4332,2.4452,2.4599,2.4599,2.4599,2.4599,2.4599,2.4599,2.4599,2.4599,2.4599,2.4599,2.4599,2.4599,2.4599,2.4599,2.4599,2.4572,2.4452,2.4235,2.3955,2.3661,2.3354,2.3086,2.2934,0.0,2.2639,2.2867,2.2926,2.3038,2.3265,2.3594,2.3803,2.3803,2.3803,2.3803,2.3803,2.3803,2.3937,2.4195,2.4556,2.4983,2.5491,2.5837,2.6131,2.6386,2.6386,2.6386,2.6386,2.6386,2.6386,2.6386,2.6386,2.6386,2.6386,2.6386,2.6386,2.6386,2.6386,2.6386,2.6386,2.6386,2.6453,2.6573,2.676,2.6961,2.7175,2.001,2.0464,2.0869,2.0962,2.1309,2.1676,2.185,2.1877,2.1984,2.2245,2.2285,2.2365,2.2599,2.2626,2.2626,2.2626,2.2706,2.276,2.276,2.284,2.3081,2.3496,2.3522,2.3522,2.3522,2.3522,2.3522,2.3522,2.3522,2.3522,2.3522,2.3522,2.3522,2.3522,2.3522,2.3522,2.3522,2.3522,2.3522,2.3522,2.3522,2.3576,2.3634,2.3634,2.3723,2.3803,2.3803,2.3937,2.4062,2.4062,2.4195,2.4369,2.4369,2.4422,2.4479,2.4572,2.4599,2.4599,2.4599,2.4599,2.4599,2.4599,2.4599,2.4599,2.4599,2.4599,2.4599,2.4599,2.4409,2.4115,2.3857,2.3527,2.322,2.2947,2.2893,2.2934,2.2993,2.3273,2.35,2.3559,2.3861,2.4035,2.4035,2.4035,2.4035,2.4035,2.4035,2.4128,2.4329,2.4716,2.5117,2.5504,2.5718,2.5999,2.6386,2.6386,2.6386,2.6386,2.6386,2.6386,2.6386,2.6386,2.6386,2.6386,2.6386,2.6386,2.6386,2.6386,2.6386,2.6386,2.6386,2.6386,2.6413,2.6613,2.6747,2.6814,1.9733,1.9997,2.029,2.0615,2.0699,2.09,2.1489,2.1582,2.1689,2.197,2.201,2.201,2.1991,2.1991,2.1991,2.1991,2.2245,2.2418,2.2418,2.2733,2.2893,2.2893,2.2893,2.2893,2.2893,2.2893,2.2893,2.2893,2.2893,2.2893,2.2893,2.2893,2.2893,2.2893,2.2893,2.2893,2.2893,2.2893,2.2893,2.2893,2.2893,2.3046,2.3292,2.3292,2.3514,2.3803,2.3803,2.3803,2.3803,2.3803,2.3803,2.3803,2.3803,2.3968,2.4262,2.4506,2.4599,2.4599,2.4599,2.4599,2.4599,2.4599,2.4599,2.4599,2.4599,2.4599,2.4599,2.4599,2.4372,2.4115,2.387,2.3527,2.3233,2.296,2.2907,2.3014,2.3252,2.3581,2.3888,2.4168,2.4426,2.4599,2.4599,2.4599,2.4599,2.4599,2.4599,2.4599,2.4599,2.4599,2.4866,2.5491,2.5518,2.5798,2.6386,2.6386,2.6386,2.6386,2.6386,2.6386,2.6386,2.6386,2.6386,2.6386,2.6386,2.6386,2.6386,2.6386,2.6386,2.6386,2.6386,2.6386,2.6386,2.6386,2.6573,2.6814,1.9132,1.9426,1.972,2.0013,2.0227,2.0428,2.0601,2.0833,2.1074,2.1336,2.1582,2.1796,2.1964,2.1991,2.1991,2.1991,2.2071,2.2111,2.2111,2.2392,2.2552,2.2552,2.2786,2.2893,2.2893,2.2893,2.2893,2.2893,2.2893,2.2893,2.2893,2.2893,2.2893,2.2893,2.2893,2.2893,2.2893,2.2893,2.2893,2.2893,2.2893,2.296,2.3041,2.3041,2.3094,2.3174,2.3174,2.3273,2.346,2.346,2.3594,2.3803,2.3803,2.387,2.3955,2.4249,2.4329,2.4382,2.4546,2.4599,2.4599,2.4599,2.4599,2.4599,2.4599,2.4599,2.4599,2.4599,2.4532,2.4386,2.4128,2.4008,2.3848,2.3589,2.3536,2.3576,2.3621,2.3888,2.4102,2.4195,2.4426,2.4599,2.4599,2.4599,2.4599,2.4599,2.4599,2.4599,2.4599,2.4836,2.5117,2.5504,2.5718,2.6038,2.6386,2.6386,2.6386,2.6386,2.6386,2.6386,2.6386,2.6386,2.6386,2.6386,2.6386,2.6386,2.6386,2.6386,2.6386,2.6386,2.6386,2.6386,2.6386,2.6386,2.644,2.652,1.8663,1.8985,1.9308,1.9573,1.9867,2.0064,2.0184,2.0388,2.0561,2.0704,2.1047,2.1301,2.1475,2.1577,2.1643,2.1643,2.1783,2.189,2.1977,2.2151,2.2245,2.2245,2.2452,2.2653,2.2893,2.2893,2.2893,2.2893,2.2893,2.2893,2.2893,2.2893,2.2893,2.2893,2.2893,2.2893,2.2893,2.2893,2.2893,2.2893,2.2893,2.2893,2.2893,2.2893,2.2893,2.2893,2.2893,2.2979,2.314,2.314,2.326,2.3469,2.3554,2.3594,2.3647,2.3941,2.4035,2.4102,2.4382,2.4426,2.4426,2.4426,2.4519,2.4599,2.4599,2.4599,2.4599,2.4599,2.4599,2.4506,2.4262,2.4209,2.4115,2.3857,2.3803,2.3843,2.3928,2.4088,2.4249,2.4369,2.4492,2.4599,2.4599,2.4599,2.4599,2.4599,2.4599,2.4599,2.4599,2.4917,2.5211,2.5504,2.5837,2.6131,2.6386,2.6386,2.6386,2.6386,2.6386,2.6386,2.6386,2.6386,2.6386,2.6386,2.6386,2.6386,2.6386,2.6386,2.6386,2.6386,2.6386,2.6386,2.6386,2.6386,2.6386,2.6386,1.8397,1.8664,1.8916,1.9294,1.9546,1.9826,2.0077,2.0144,2.0157,2.0157,2.0454,2.0672,2.0672,2.0895,2.1069,2.1069,2.1381,2.1662,2.1884,2.197,2.1951,2.1951,2.201,2.2265,2.28,2.2813,2.2813,2.2813,2.2813,2.2813,2.2813,2.284,2.2853,2.2853,2.288,2.2893,2.2893,2.2893,2.2893,2.2893,2.2893,2.2893,2.2893,2.2893,2.2893,2.2893,2.2893,2.2893,2.2893,2.2893,2.2893,2.2947,2.3193,2.3252,2.334,2.3683,2.3763,2.383,2.4088,2.4168,2.4168,2.4168,2.4369,2.4519,2.4519,2.4519,2.4532,2.4559,2.4559,2.4492,2.4289,2.4249,2.4155,2.3924,2.3884,2.3977,2.4209,2.4249,2.4342,2.4572,2.4599,2.4599,2.4599,2.4599,2.4599,2.4599,2.4599,2.4599,2.4599,2.4943,2.5237,2.5504,2.5864,2.6158,2.6386,2.6386,2.6386,2.6386,2.6386,2.6386,2.6386,2.6386,2.6386,2.6386,2.6386,2.6386,2.6386,2.6386,2.6386,2.6386,2.6386,2.6386,2.6386,2.6386,2.6386,2.6386,1.8049,1.8169,1.8369,1.8903,1.9065,1.9212,1.9506,1.9746,1.9893,1.9893,2.0117,2.0304,2.0304,2.0588,2.0806,2.0806,2.1042,2.1229,2.1296,2.1555,2.1676,2.1676,2.189,2.2044,2.2211,2.2211,2.2211,2.2211,2.2211,2.2211,2.2211,2.2405,2.2512,2.2525,2.2786,2.2893,2.2893,2.2893,2.2893,2.2893,2.2893,2.2893,2.2893,2.2893,2.2893,2.2893,2.2893,2.2893,2.2893,2.2893,2.2893,2.2907,2.2974,2.3,2.302,2.334,2.342,2.3487,2.3781,2.3897,2.3897,2.3897,2.395,2.3955,2.3955,2.3955,2.4022,2.4249,2.4302,2.4342,2.4479,2.4506,2.4479,2.4426,2.4412,2.4439,2.4492,2.4506,2.4532,2.4586,2.4599,2.4599,2.4599,2.4599,2.4599,2.4599,2.4599,2.4599,2.4599,2.513,2.5451,2.5504,2.6026,2.6319,2.6386,2.6386,2.6386,2.6386,2.6386,2.6386,2.6386,2.6386,2.6386,2.6386,2.6386,2.6386,2.6386,2.6386,2.6386,2.6386,2.6386,2.6386,2.6386,2.6386,2.6386,2.6386,1.7796,1.7916,1.8089,1.8409,1.8703,1.8943,1.9132,1.9428,1.9629,1.9629,1.984,1.9997,1.9997,2.0294,2.0521,2.0699,2.0846,2.0962,2.1096,2.1256,2.1368,2.1368,2.1483,2.1563,2.1563,2.1563,2.171,2.1991,2.1991,2.1991,2.1991,2.2138,2.2285,2.2432,2.2579,2.276,2.2893,2.2893,2.2893,2.2893,2.2893,2.2893,2.2893,2.2893,2.2893,2.2893,2.2893,2.2893,2.2893,2.2893,2.2893,2.2893,2.2893,2.2893,2.2934,2.306,2.31,2.3166,2.3474,2.3554,2.3554,2.3554,2.3554,2.3594,2.3777,2.3803,2.3843,2.3968,2.4102,2.4249,2.4359,2.4506,2.4599,2.4599,2.4599,2.4599,2.4599,2.4599,2.4599,2.4599,2.4599,2.4599,2.4599,2.4599,2.4599,2.4599,2.4599,2.4599,2.4599,2.5064,2.5371,2.5504,2.5945,2.6292,2.6386,2.6386,2.6386,2.6386,2.6386,2.6386,2.6386,2.6386,2.6386,2.6386,2.6386,2.6386,2.6386,2.6386,2.6386,2.6386,2.6386,2.6386,2.6386,2.6386,2.6386,2.6386,1.7608,1.7796,1.7956,1.7982,1.8449,1.8836,1.889,1.9172,1.9401,1.9401,1.9573,1.972,1.972,1.9987,2.025,2.0605,2.0672,2.0775,2.1015,2.1082,2.1109,2.1109,2.1109,2.1109,2.1109,2.1109,2.1349,2.183,2.183,2.183,2.183,2.1884,2.2044,2.2271,2.2378,2.2552,2.2827,2.288,2.2893,2.2893,2.2893,2.2893,2.2893,2.2893,2.2893,2.2893,2.2893,2.2893,2.2893,2.2893,2.2893,2.2893,2.2893,2.2893,2.2893,2.2893,2.2893,2.296,2.318,2.3212,2.3212,2.3212,2.3212,2.3313,2.3589,2.3656,2.3683,2.379,2.3968,2.4155,2.4262,2.4439,2.4599,2.4599,2.4599,2.4599,2.4599,2.4599,2.4599,2.4599,2.4599,2.4599,2.4599,2.4599,2.4599,2.4599,2.4599,2.4599,2.4599,2.4917,2.5211,2.5504,2.5837,2.6131,2.6386,2.6386,2.6386,2.6386,2.6386,2.6386,2.6386,2.6386,2.6386,2.6386,2.6386,2.6386,2.6386,2.6386,2.6386,2.6386,2.6386,2.6386,2.6386,2.6386,2.6386,2.6386,1.7608,1.7635,1.7729,1.7969,1.8303,1.8637,1.885,1.9172,1.9401,1.9401,1.9428,1.9455,1.9455,1.9679,1.9973,2.0237,2.0535,2.0726,2.0766,2.0962,2.1109,2.1109,2.1109,2.1109,2.1109,2.1109,2.1149,2.1229,2.1229,2.1229,2.1229,2.1529,2.1662,2.1729,2.2191,2.2445,2.2498,2.2786,2.2893,2.2893,2.2893,2.2893,2.2893,2.2893,2.2893,2.2893,2.2893,2.2893,2.2893,2.2893,2.2893,2.2893,2.2893,2.2893,2.2893,2.2893,2.2893,2.2907,2.2947,2.296,2.296,2.296,2.296,2.2974,2.3014,2.3014,2.3174,2.3696,2.3843,2.3981,2.4452,2.4572,2.4599,2.4599,2.4599,2.4599,2.4599,2.4599,2.4599,2.4599,2.4599,2.4599,2.4599,2.4599,2.4599,2.4599,2.4599,2.4599,2.4599,2.4917,2.5211,2.5504,2.5837,2.6131,2.6386,2.6386,2.6386,2.6386,2.6386,2.6386,2.6386,2.6386,2.6386,2.6386,2.6386,2.6386,2.6386,2.6386,2.6386,2.6386,2.6386,2.6386,2.6386,2.6386,2.6386,2.6386,1.7608,1.7608,1.7648,1.7769,1.8009,1.8316,1.8637,1.8931,1.9185,1.9374,1.9401,1.9401,1.9401,1.9508,1.9679,1.993,2.0107,2.0321,2.0686,2.0802,2.0935,2.1096,2.1109,2.1109,2.1109,2.1109,2.1109,2.1109,2.1109,2.1109,2.1109,2.1243,2.1422,2.1596,2.185,2.2111,2.2432,2.2565,2.2746,2.2893,2.2893,2.2893,2.2893,2.2893,2.2893,2.2893,2.2893,2.2893,2.2893,2.2893,2.2893,2.2893,2.2893,2.2893,2.2893,2.2893,2.2893,2.2893,2.2893,2.2893,2.2893,2.2893,2.2893,2.2893,2.2893,2.2893,2.3027,2.3434,2.3661,2.3937,2.4315,2.4492,2.4599,2.4599,2.4599,2.4599,2.4599,2.4599,2.4599,2.4599,2.4599,2.4599,2.4599,2.4599,2.4599,2.4599,2.4599,2.4599,2.4599,2.4719,2.497,2.5264,2.5558,2.5852,2.6185,2.6306,2.6386,2.6386,2.6386,2.6386,2.6386,2.6386,2.6386,2.6386,2.6386,2.6386,2.6386,2.6386,2.6386,2.6386,2.6386,2.6386,2.6386,2.6386,2.6386,2.6386]},{"header":{"parameterUnit":"m.s-1","parameterCategory":1,"la1":30.6,"la2":28.766,"lo1":-90.7593,"lo2":-88.6598,"dy":0.0162,"dx":0.0183,"nx":116,"ny":114,"refTime":"2023-09-26T00:00:00:Z","depth":0,"parameterNumber":3,"parameterNumberName":"V-component_of_WINDS"},"data":[0.0,0.0,0.0,0.0,0.0,0.0,0.0,0.0,0.0,0.0,0.0,0.0,0.0,0.0,0.0,0.0,0.0,0.0,0.0,0.0,0.0,0.0,0.0,0.0,0.0,0.0,0.0,0.0,0.0,0.0,0.0,0.0,0.0,0.0,0.0,0.0,0.0,0.0,0.0,0.0,0.0,0.0,0.0,0.0,0.0,0.0,0.0,0.0,0.0,0.0,0.0,0.0,0.0,0.0,0.0,0.0,0.0,0.0,0.0,0.0,0.0,0.0,0.0,0.0,0.0,0.0,0.0,0.0,0.0,0.0,0.0,0.0,0.0,0.0,0.0,0.0,0.0,0.0,0.0,0.0,0.0,0.0,0.0,0.0,0.0,0.0,0.0,0.0,0.0,0.0,0.0,0.0,0.0,0.0,0.0,0.0,0.0,0.0,0.0,0.0,0.0,0.0,0.0,0.0,0.0,0.0,0.0,0.0,0.0,0.0,0.0,0.0,0.0,0.0,0.0,0.0,0.0,0.0,0.0,0.0,0.0,0.0,0.0,0.0,0.0,0.0,0.0,0.0,0.0,0.0,0.0,0.0,0.0,0.0,0.0,0.0,0.0,0.0,0.0,0.0,0.0,0.0,0.0,0.0,0.0,0.0,0.0,0.0,0.0,0.0,0.0,0.0,0.0,0.0,0.0,0.0,0.0,0.0,0.0,0.0,0.0,0.0,0.0,0.0,0.0,0.0,0.0,0.0,0.0,0.0,0.0,0.0,0.0,0.0,0.0,0.0,0.0,0.0,0.0,0.0,0.0,0.0,0.0,0.0,0.0,0.0,0.0,0.0,0.0,0.0,0.0,0.0,0.0,0.0,0.0,0.0,0.0,0.0,0.0,0.0,0.0,0.0,0.0,0.0,0.0,0.0,0.0,0.0,0.0,0.0,0.0,0.0,0.0,0.0,0.0,0.0,0.0,0.0,0.0,0.0,0.0,0.0,0.0,0.0,0.0,0.0,0.0,0.0,0.0,0.0,0.0,0.0,0.0,0.0,0.0,0.0,0.0,0.0,0.0,0.0,0.0,0.0,0.0,0.0,0.0,0.0,0.0,0.0,0.0,0.0,0.0,0.0,0.0,0.0,0.0,0.0,0.0,0.0,0.0,0.0,0.0,0.0,0.0,0.0,0.0,0.0,0.0,0.0,0.0,0.0,0.0,0.0,0.0,0.0,0.0,0.0,0.0,0.0,0.0,0.0,0.0,0.0,0.0,0.0,0.0,0.0,0.0,0.0,0.0,0.0,0.0,0.0,0.0,0.0,0.0,0.0,0.0,0.0,0.0,0.0,0.0,0.0,0.0,0.0,0.0,0.0,0.0,0.0,0.0,0.0,0.0,0.0,0.0,0.0,0.0,0.0,0.0,0.0,0.0,0.0,0.0,0.0,0.0,0.0,0.0,0.0,0.0,0.0,0.0,0.0,0.0,0.0,0.0,0.0,0.0,0.0,0.0,0.0,0.0,0.0,0.0,0.0,0.0,0.0,0.0,0.0,0.0,0.0,0.0,0.0,0.0,0.0,0.0,0.0,0.0,0.0,0.0,0.0,0.0,0.0,0.0,0.0,0.0,0.0,0.0,0.0,0.0,0.0,0.0,0.0,0.0,0.0,0.0,0.0,0.0,0.0,0.0,0.0,0.0,0.0,0.0,0.0,0.0,0.0,0.0,0.0,0.0,0.0,0.0,0.0,0.0,0.0,0.0,0.0,0.0,0.0,0.0,0.0,0.0,0.0,0.0,0.0,0.0,0.0,0.0,0.0,0.0,0.0,0.0,0.0,0.0,0.0,0.0,0.0,0.0,0.0,0.0,0.0,0.0,0.0,0.0,0.0,0.0,0.0,0.0,0.0,0.0,0.0,0.0,0.0,0.0,0.0,0.0,0.0,0.0,0.0,0.0,0.0,0.0,0.0,0.0,0.0,0.0,0.0,0.0,0.0,0.0,0.0,0.0,0.0,0.0,0.0,0.0,0.0,0.0,0.0,0.0,0.0,0.0,0.0,0.0,0.0,0.0,0.0,0.0,0.0,0.0,0.0,0.0,0.0,0.0,0.0,0.0,0.0,0.0,0.0,0.0,0.0,0.0,0.0,0.0,0.0,0.0,0.0,0.0,0.0,0.0,0.0,0.0,0.0,0.0,0.0,0.0,0.0,0.0,0.0,0.0,0.0,0.0,0.0,0.0,0.0,0.0,0.0,0.0,0.0,0.0,0.0,0.0,0.0,0.0,0.0,0.0,0.0,0.0,0.0,0.0,0.0,0.0,0.0,0.0,0.0,0.0,0.0,0.0,0.0,0.0,0.0,0.0,0.0,0.0,0.0,0.0,0.0,0.0,0.0,0.0,0.0,0.0,0.0,0.0,0.0,0.0,0.0,0.0,0.0,0.0,0.0,0.0,0.0,0.0,0.0,0.0,0.0,0.0,0.0,0.0,0.0,0.0,0.0,0.0,0.0,0.0,0.0,0.0,0.0,0.0,0.0,0.0,0.0,0.0,0.0,0.0,0.0,0.0,0.0,0.0,0.0,0.0,0.0,0.0,0.0,0.0,0.0,0.0,0.0,0.0,0.0,0.0,0.0,0.0,0.0,0.0,0.0,0.0,0.0,0.0,0.0,0.0,0.0,0.0,0.0,0.0,0.0,0.0,0.0,0.0,0.0,0.0,0.0,0.0,0.0,0.0,0.0,0.0,0.0,0.0,0.0,0.0,0.0,0.0,0.0,0.0,0.0,0.0,0.0,0.0,0.0,0.0,0.0,0.0,0.0,0.0,0.0,0.0,0.0,0.0,0.0,0.0,0.0,0.0,0.0,0.0,0.0,0.0,0.0,0.0,0.0,0.0,0.0,0.0,0.0,0.0,0.0,0.0,0.0,0.0,0.0,0.0,0.0,0.0,0.0,0.0,0.0,0.0,0.0,0.0,0.0,0.0,0.0,0.0,0.0,0.0,0.0,0.0,0.0,0.0,0.0,0.0,0.0,0.0,0.0,0.0,0.0,0.0,0.0,0.0,0.0,0.0,0.0,0.0,0.0,0.0,0.0,0.0,0.0,0.0,0.0,0.0,0.0,0.0,0.0,0.0,0.0,0.0,0.0,0.0,0.0,0.0,0.0,0.0,0.0,0.0,0.0,0.0,0.0,0.0,0.0,0.0,0.0,0.0,0.0,0.0,0.0,0.0,0.0,0.0,0.0,0.0,0.0,0.0,0.0,0.0,0.0,0.0,0.0,0.0,0.0,0.0,0.0,0.0,0.0,0.0,0.0,0.0,0.0,0.0,0.0,0.0,0.0,0.0,0.0,0.0,0.0,0.0,0.0,0.0,0.0,0.0,0.0,0.0,0.0,0.0,0.0,0.0,0.0,0.0,0.0,0.0,0.0,0.0,0.0,0.0,0.0,0.0,0.0,0.0,0.0,0.0,0.0,0.0,0.0,0.0,0.0,0.0,0.0,0.0,0.0,0.0,0.0,0.0,0.0,0.0,0.0,0.0,0.0,0.0,0.0,0.0,0.0,0.0,0.0,0.0,0.0,0.0,0.0,0.0,0.0,0.0,0.0,0.0,0.0,0.0,0.0,0.0,0.0,0.0,0.0,0.0,0.0,0.0,0.0,0.0,0.0,0.0,0.0,0.0,0.0,0.0,0.0,0.0,0.0,0.0,0.0,0.0,0.0,0.0,0.0,0.0,0.0,0.0,0.0,0.0,0.0,0.0,0.0,0.0,0.0,0.0,0.0,0.0,0.0,0.0,0.0,0.0,0.0,0.0,0.0,0.0,0.0,0.0,0.0,0.0,0.0,0.0,0.0,0.0,0.0,0.0,0.0,0.0,0.0,0.0,0.0,0.0,0.0,0.0,0.0,0.0,0.0,0.0,0.0,0.0,0.0,0.0,0.0,0.0,0.0,0.0,0.0,0.0,0.0,0.0,0.0,0.0,0.0,0.0,0.0,0.0,0.0,0.0,0.0,0.0,0.0,0.0,0.0,0.0,0.0,0.0,0.0,0.0,0.0,0.0,0.0,0.0,0.0,0.0,0.0,0.0,0.0,0.0,0.0,0.0,0.0,0.0,0.0,0.0,0.0,0.0,0.0,0.0,0.0,0.0,0.0,0.0,0.0,0.0,0.0,0.0,0.0,0.0,0.0,0.0,0.0,0.0,0.0,0.0,0.0,0.0,0.0,0.0,0.0,0.0,0.0,0.0,0.0,0.0,0.0,0.0,0.0,0.0,0.0,0.0,0.0,0.0,0.0,0.0,0.0,0.0,0.0,0.0,0.0,0.0,0.0,0.0,0.0,0.0,0.0,0.0,0.0,0.0,0.0,0.0,0.0,0.0,0.0,0.0,0.0,0.0,0.0,0.0,0.0,0.0,0.0,0.0,0.0,0.0,0.0,0.0,0.0,0.0,0.0,0.0,0.0,0.0,0.0,0.0,0.0,0.0,0.0,0.0,0.0,0.0,0.0,0.0,0.0,0.0,0.0,0.0,0.0,0.0,0.0,0.0,0.0,0.0,0.0,0.0,0.0,0.0,0.0,0.0,0.0,0.0,0.0,0.0,0.0,0.0,0.0,0.0,0.0,0.0,0.0,0.0,0.0,0.0,0.0,0.0,0.0,0.0,0.0,0.0,0.0,0.0,0.0,0.0,0.0,0.0,0.0,0.0,0.0,0.0,0.0,0.0,0.0,0.0,0.0,0.0,0.0,0.0,0.0,0.0,0.0,0.0,0.0,0.0,0.0,0.0,0.0,0.0,0.0,0.0,0.0,0.0,0.0,0.0,0.0,0.0,0.0,0.0,0.0,0.0,0.0,0.0,0.0,0.0,0.0,0.0,0.0,0.0,0.0,0.0,0.0,0.0,0.0,0.0,0.0,0.0,0.0,0.0,0.0,0.0,0.0,0.0,0.0,0.0,0.0,0.0,0.0,0.0,0.0,0.0,0.0,0.0,0.0,0.0,0.0,0.0,0.0,0.0,0.0,0.0,0.0,0.0,0.0,0.0,0.0,0.0,0.0,0.0,0.0,0.0,0.0,0.0,0.0,0.0,0.0,0.0,0.0,0.0,0.0,0.0,0.0,0.0,0.0,0.0,0.0,0.0,0.0,0.0,0.0,0.0,0.0,0.0,0.0,0.0,0.0,0.0,0.0,0.0,0.0,0.0,0.0,0.0,0.0,0.0,0.0,0.0,0.0,0.0,0.0,0.0,0.0,0.0,0.0,0.0,0.0,0.0,0.0,0.0,0.0,0.0,0.0,0.0,0.0,0.0,0.0,0.0,0.0,0.0,0.0,0.0,0.0,0.0,0.0,0.0,0.0,0.0,0.0,0.0,0.0,0.0,0.0,0.0,0.0,0.0,0.0,0.0,0.0,0.0,0.0,0.0,0.0,0.0,0.0,0.0,0.0,0.0,0.0,0.0,0.0,0.0,0.0,0.0,0.0,0.0,0.0,0.0,0.0,0.0,0.0,0.0,0.0,0.0,0.0,0.0,0.0,0.0,0.0,0.0,0.0,0.0,0.0,0.0,0.0,0.0,0.0,0.0,0.0,0.0,0.0,0.0,0.0,0.0,0.0,0.0,0.0,0.0,0.0,0.0,0.0,0.0,0.0,0.0,0.0,0.0,0.0,0.0,0.0,0.0,0.0,0.0,0.0,0.0,0.0,0.0,0.0,0.0,0.0,0.0,0.0,0.0,0.0,0.0,0.0,0.0,0.0,0.0,0.0,0.0,0.0,0.0,0.0,0.0,0.0,0.0,0.0,0.0,0.0,0.0,0.0,0.0,0.0,0.0,0.0,0.0,0.0,0.0,0.0,0.0,0.0,0.0,0.0,0.0,0.0,0.0,0.0,0.0,0.0,0.0,0.0,0.0,0.0,0.0,0.0,0.0,0.0,0.0,0.0,0.0,0.0,0.0,0.0,0.0,0.0,0.0,0.0,0.0,0.0,0.0,0.0,0.0,0.0,0.0,0.0,0.0,0.0,0.0,0.0,0.0,0.0,0.0,0.0,0.0,0.0,0.0,0.0,0.0,0.0,0.0,0.0,0.0,0.0,0.0,0.0,0.0,0.0,0.0,0.0,0.0,0.0,5.796,5.571,0.0,0.0,0.0,0.0,0.0,0.0,0.0,0.0,0.0,0.0,0.0,0.0,0.0,0.0,0.0,0.0,0.0,0.0,0.0,0.0,0.0,0.0,0.0,0.0,0.0,0.0,0.0,0.0,0.0,0.0,0.0,0.0,0.0,0.0,0.0,0.0,0.0,4.6853,4.8087,4.9961,5.2361,5.0594,4.9066,4.7831,0.0,0.0,0.0,0.0,0.0,0.0,0.0,0.0,0.0,0.0,0.0,0.0,0.0,0.0,0.0,0.0,0.0,0.0,0.0,0.0,0.0,0.0,0.0,0.0,0.0,0.0,0.0,0.0,0.0,0.0,0.0,0.0,0.0,0.0,0.0,0.0,0.0,0.0,0.0,0.0,0.0,0.0,0.0,0.0,0.0,0.0,0.0,0.0,0.0,0.0,0.0,0.0,0.0,0.0,0.0,0.0,0.0,0.0,0.0,0.0,0.0,0.0,0.0,0.0,0.0,0.0,0.0,0.0,0.0,0.0,6.2352,5.993,0.0,0.0,0.0,0.0,0.0,0.0,0.0,0.0,0.0,0.0,0.0,0.0,0.0,0.0,0.0,0.0,0.0,0.0,0.0,0.0,0.0,0.0,0.0,4.7043,4.7735,4.9279,4.9553,4.963,0.0,0.0,0.0,0.0,0.0,0.0,4.5821,4.6547,4.7197,4.7774,5.0779,5.3477,5.5818,5.5818,5.4704,5.2626,5.035,0.0,0.0,0.0,0.0,0.0,0.0,0.0,0.0,0.0,0.0,0.0,0.0,0.0,0.0,0.0,0.0,0.0,0.0,0.0,0.0,0.0,0.0,0.0,0.0,0.0,0.0,0.0,0.0,0.0,0.0,0.0,0.0,0.0,0.0,0.0,0.0,0.0,0.0,0.0,0.0,0.0,0.0,0.0,0.0,0.0,0.0,0.0,0.0,0.0,0.0,0.0,0.0,0.0,0.0,0.0,0.0,0.0,0.0,0.0,0.0,0.0,0.0,0.0,7.022,7.1027,7.1798,7.1651,7.1945,7.2298,6.7453,6.5191,6.4653,6.1153,0.0,0.0,0.0,0.0,0.0,0.0,0.0,0.0,0.0,0.0,0.0,0.0,0.0,0.0,0.0,0.0,0.0,0.0,0.0,0.0,4.6697,4.7505,4.8355,4.9317,5.0091,5.0515,5.0515,0.0,0.0,0.0,0.0,0.0,4.6697,4.6851,4.8312,5.1231,5.6005,5.9281,6.1095,6.1095,6.1275,6.1411,5.6764,5.4302,5.3533,0.0,0.0,0.0,0.0,0.0,0.0,0.0,0.0,0.0,0.0,0.0,0.0,0.0,0.0,0.0,0.0,0.0,0.0,0.0,0.0,0.0,0.0,0.0,0.0,0.0,0.0,0.0,0.0,0.0,0.0,0.0,0.0,0.0,0.0,0.0,0.0,0.0,0.0,0.0,0.0,0.0,5.8311,5.699,0.0,0.0,0.0,0.0,0.0,0.0,0.0,0.0,0.0,0.0,0.0,0.0,0.0,6.8874,7.1225,7.3523,7.5124,7.6041,7.69,7.7745,7.8494,7.7781,7.7524,7.7561,7.6041,0.0,6.8164,6.6916,0.0,0.0,0.0,0.0,0.0,0.0,0.0,0.0,0.0,0.0,0.0,0.0,0.0,0.0,0.0,0.0,0.0,0.0,0.0,0.0,0.0,4.9159,5.0582,5.1471,5.2746,5.3092,5.2164,5.051,0.0,0.0,0.0,4.6013,4.6889,4.8317,5.1395,5.6159,5.8896,6.1358,6.3518,6.4019,6.4673,6.5359,6.3089,6.0319,5.7203,5.5472,0.0,0.0,0.0,0.0,0.0,0.0,0.0,0.0,0.0,0.0,0.0,0.0,0.0,0.0,0.0,0.0,0.0,0.0,0.0,0.0,0.0,0.0,0.0,0.0,0.0,0.0,0.0,0.0,0.0,0.0,0.0,0.0,0.0,0.0,0.0,0.0,0.0,0.0,0.0,5.8425,6.0517,5.9574,6.021,5.955,0.0,0.0,0.0,0.0,0.0,0.0,0.0,0.0,0.0,6.872,7.0662,7.3016,7.5909,7.7414,7.9029,8.0739,8.1106,8.1709,8.248,8.1672,8.1048,8.0571,7.9748,7.7488,7.4147,7.1505,6.7871,6.3833,0.0,0.0,0.0,0.0,5.9648,5.9869,0.0,0.0,0.0,0.0,0.0,0.0,0.0,0.0,0.0,0.0,0.0,0.0,4.8663,5.0851,5.2659,5.3741,5.4972,5.4972,5.3313,5.163,4.9938,4.8197,4.6701,4.6317,4.7197,5.0553,5.4785,5.9819,6.1127,6.2974,6.5243,6.5904,6.6635,6.7398,6.7212,6.4865,6.1012,5.9094,5.694,5.4626,0.0,0.0,0.0,0.0,0.0,0.0,0.0,0.0,0.0,0.0,0.0,0.0,0.0,0.0,0.0,0.0,0.0,0.0,0.0,0.0,0.0,0.0,0.0,0.0,0.0,0.0,0.0,0.0,0.0,0.0,0.0,0.0,0.0,0.0,0.0,0.0,0.0,6.0906,6.2987,6.2918,6.3882,6.3466,0.0,0.0,0.0,0.0,0.0,0.0,6.7876,6.8598,7.027,7.3227,7.4978,7.7157,7.98,8.0608,8.2039,8.4022,8.4022,8.4462,8.5196,8.4168,8.3398,8.2774,8.1746,8.0498,7.8956,7.5506,7.2018,6.8802,6.7614,6.5875,6.409,6.4517,6.4664,6.4884,0.0,0.0,0.0,0.0,0.0,0.0,0.0,0.0,0.0,0.0,0.0,4.8702,5.0361,5.2087,5.378,5.5439,5.567,5.4972,5.3313,5.163,4.9938,4.8197,4.7274,4.7197,4.8005,5.3708,5.8017,6.0748,6.3205,6.5282,6.6981,6.7019,6.7513,6.8314,6.7475,6.6519,6.5404,6.2903,6.0825,5.8819,5.4741,0.0,0.0,0.0,0.0,0.0,0.0,0.0,0.0,0.0,0.0,0.0,0.0,0.0,0.0,0.0,0.0,0.0,0.0,0.0,0.0,0.0,0.0,0.0,0.0,0.0,0.0,0.0,0.0,0.0,0.0,0.0,0.0,0.0,0.0,0.0,0.0,0.0,0.0,6.7959,6.947,0.0,0.0,0.0,0.0,6.9297,6.8627,6.9678,7.3312,7.4263,7.5787,7.8164,8.0534,8.2223,8.3161,8.3985,8.4792,8.5673,8.5673,8.6114,8.6848,8.527,8.4535,8.4389,8.281,8.1672,8.0755,7.8993,7.5909,7.2239,7.2165,7.022,6.7627,6.9155,6.9743,6.9963,0.0,0.0,0.0,0.0,0.0,0.0,0.0,0.0,4.5244,4.5556,4.8052,5.0014,5.063,5.4164,5.6736,5.7319,5.8357,5.8017,5.5785,5.3549,5.1548,4.9861,4.7932,4.8812,5.2895,5.7247,6.071,6.3243,6.4166,6.4897,6.5474,6.5474,6.5667,6.5974,6.6205,6.6173,6.5788,6.432,6.2749,6.0902,5.7742,5.4818,0.0,0.0,0.0,0.0,0.0,0.0,0.0,0.0,0.0,0.0,0.0,0.0,0.0,0.0,0.0,0.0,0.0,0.0,0.0,0.0,0.0,0.0,0.0,0.0,0.0,0.0,0.0,0.0,0.0,0.0,0.0,0.0,0.0,0.0,0.0,0.0,0.0,6.9707,7.1377,0.0,7.0229,7.0349,7.0995,7.2087,7.308,7.463,7.6943,7.822,7.9517,8.0865,8.2774,8.4132,8.4939,8.5233,8.5783,8.6591,8.6591,8.6444,8.6187,8.5086,8.4315,8.3748,8.2663,8.2039,8.1746,8.1158,7.914,7.6387,7.5821,7.4588,7.312,7.3156,7.3193,7.3266,0.0,0.0,0.0,0.0,0.0,0.0,0.0,0.0,4.5782,4.636,4.9163,5.1438,5.2284,5.6165,5.8698,5.8698,5.9704,5.9171,5.6324,5.4318,5.2318,5.0361,4.9202,5.1082,5.6472,5.905,6.1473,6.3743,6.4012,6.4166,6.4166,6.4166,6.4166,6.4199,6.4782,6.5205,6.5436,6.4859,6.3974,6.2749,6.0473,5.7857,5.5088,0.0,0.0,0.0,0.0,0.0,0.0,0.0,0.0,0.0,0.0,0.0,0.0,0.0,0.0,0.0,0.0,0.0,0.0,0.0,0.0,0.0,0.0,0.0,0.0,0.0,0.0,0.0,0.0,0.0,0.0,0.0,0.0,0.0,0.0,6.749,7.0371,7.1745,7.4161,7.5162,7.3804,7.471,7.5605,7.6159,7.7353,7.8623,7.9884,8.139,8.248,8.2994,8.4572,8.5673,8.6187,8.6187,8.6481,8.6978,8.6738,8.6334,8.5747,8.4682,8.3895,8.3344,8.2553,8.2186,8.2186,8.2186,8.1269,7.969,7.8589,7.7488,7.6445,7.5894,7.5711,7.5637,0.0,0.0,0.0,0.0,0.0,0.0,4.5594,4.5594,4.6206,4.7894,5.0313,5.2851,5.5401,5.7934,5.9473,5.9473,5.9473,5.805,5.4741,5.3703,5.2087,4.9586,5.1159,5.4044,5.8236,5.9165,6.0435,6.2133,6.2858,6.3237,6.3237,6.316,6.316,6.3198,6.3198,6.3737,6.4551,6.4589,6.4628,6.4512,6.2826,6.1133,5.9204,0.0,0.0,0.0,0.0,0.0,0.0,0.0,0.0,0.0,0.0,0.0,0.0,0.0,0.0,0.0,0.0,0.0,0.0,0.0,0.0,0.0,0.0,0.0,0.0,0.0,0.0,0.0,0.0,0.0,0.0,0.0,0.0,0.0,6.5396,6.9294,7.2793,7.4385,7.8033,8.0317,8.0114,8.0597,8.1148,8.1645,8.14,8.1502,8.2166,8.3728,8.4609,8.4609,8.617,8.6978,8.6978,8.6978,8.6978,8.6978,8.6224,8.582,8.571,8.4168,8.3418,8.3308,8.2553,8.2186,8.2186,8.2186,8.2186,8.2003,8.044,7.8809,7.7362,7.7326,7.7289,7.7069,0.0,0.0,0.0,0.0,0.0,0.0,4.5594,4.5594,4.6206,4.7894,5.0313,5.2659,5.4626,5.7088,5.8627,5.8627,5.8627,5.7703,5.5516,5.401,5.262,5.1274,5.4621,5.7352,5.9127,6.0633,6.1897,6.2974,6.1973,6.1473,6.1473,6.0237,6.0006,6.0583,6.1204,6.232,6.3698,6.432,6.4974,6.5436,6.4359,6.2903,6.121,0.0,0.0,0.0,0.0,0.0,0.0,0.0,0.0,0.0,0.0,0.0,0.0,0.0,0.0,0.0,0.0,0.0,0.0,0.0,0.0,0.0,0.0,0.0,0.0,0.0,0.0,0.0,0.0,0.0,0.0,0.0,6.6786,6.8441,6.8768,7.192,7.4771,7.6274,7.8923,8.0479,8.0127,8.1009,8.1607,8.1553,8.1781,8.2015,8.2186,8.3728,8.4609,8.4609,8.617,8.6978,8.6978,8.6978,8.6978,8.6978,8.6775,8.6077,8.4903,8.4462,8.3618,8.2517,8.2296,8.2186,8.2186,8.2186,8.1856,8.1232,8.022,7.9522,7.8956,7.7766,7.7289,7.7069,0.0,0.0,0.0,0.0,0.0,0.0,4.5594,4.5594,4.6475,4.8856,5.0774,5.2813,5.5285,5.7203,5.8159,5.778,5.7434,5.6472,5.4741,5.3741,5.3428,5.401,5.6775,5.8858,6.0012,6.0671,6.1243,6.1698,6.0396,5.9742,5.9742,5.8781,5.8742,5.9511,6.0012,6.1204,6.2858,6.3698,6.4551,6.5359,6.5551,6.5057,6.4095,6.3249,6.232,6.1435,6.1089,6.0704,6.0352,6.0242,0.0,0.0,0.0,0.0,0.0,0.0,0.0,0.0,0.0,0.0,0.0,0.0,0.0,0.0,0.0,0.0,0.0,0.0,0.0,0.0,0.0,0.0,0.0,0.0,6.9774,7.182,7.2505,7.4321,7.6156,7.7651,7.977,8.0956,8.0573,8.1629,8.22,8.1901,8.2091,8.2186,8.2186,8.3728,8.4609,8.4609,8.617,8.6978,8.6978,8.6978,8.6978,8.6978,8.6664,8.6004,8.5086,8.4389,8.3581,8.27,8.2333,8.2186,8.2186,8.2186,8.1929,8.1415,0.0,0.0,0.0,0.0,7.8369,7.8112,0.0,0.0,0.0,0.0,0.0,0.0,4.5594,4.5594,4.6826,5.0245,5.1318,5.3044,5.6478,5.755,5.7703,5.6901,5.6055,5.4934,5.3428,5.351,5.4664,5.7055,5.805,5.9242,6.0633,5.9896,5.9473,5.9358,5.855,5.8159,5.8159,5.805,5.8506,5.9358,5.9358,6.0358,6.2133,6.2974,6.3814,6.4743,6.6513,6.7173,6.7019,6.6404,6.6244,6.6244,6.5436,6.4743,6.4275,6.4929,0.0,0.0,0.0,0.0,0.0,0.0,0.0,0.0,0.0,0.0,0.0,0.0,0.0,0.0,0.0,0.0,0.0,0.0,0.0,0.0,0.0,0.0,0.0,0.0,7.2957,7.5257,7.6202,7.6644,7.7379,7.8714,8.0583,8.162,8.1289,8.2258,8.2767,8.2423,8.2357,8.2333,8.2333,8.3875,0.0,0.0,0.0,8.6978,8.6978,8.6978,8.6978,8.6978,8.6261,8.5894,8.5764,8.4315,8.3564,8.3344,8.2663,8.226,8.2186,8.2186,8.2186,8.2113,8.1305,8.0571,7.9926,7.9816,7.9816,7.9559,0.0,0.0,0.0,0.0,0.0,0.0,4.5594,4.5594,4.6826,5.0245,5.0822,5.2207,5.5593,5.6093,5.6132,5.5978,5.5208,5.4587,5.428,5.5516,5.6786,5.8011,5.9511,6.0127,5.9742,5.9588,5.9165,5.8544,5.7671,5.7247,5.7247,5.6516,5.7049,5.8544,5.8544,5.9858,6.2133,6.2974,6.3814,6.482,6.7199,6.7744,6.7173,6.7705,6.8359,6.8936,6.8783,6.9013,6.936,6.8898,6.8013,6.693,6.5397,6.4205,0.0,0.0,0.0,0.0,0.0,0.0,0.0,0.0,0.0,0.0,0.0,0.0,0.0,0.0,0.0,0.0,0.0,0.0,0.0,7.4476,7.5892,7.7278,7.8745,7.945,7.9838,7.9962,8.1208,8.2082,8.2198,8.2628,8.2767,8.2423,8.2855,8.3161,8.3161,8.4682,8.5563,8.5563,8.6518,8.6978,8.6978,8.6978,8.6978,8.6978,8.6848,0.0,8.5783,8.549,8.4646,8.3381,8.3234,8.281,8.2186,8.2186,8.2186,8.2113,8.1305,8.0901,8.0681,8.0036,7.9816,7.9669,0.0,0.0,0.0,0.0,0.0,0.0,4.5594,4.5594,4.6513,4.9091,4.9784,5.1015,5.351,5.4203,5.4434,5.4434,5.4087,5.4049,5.4472,5.6055,5.7555,5.8858,5.9704,5.9935,5.9511,5.8665,5.805,5.7665,5.6786,5.6362,5.6362,5.6362,5.7055,5.8313,5.8704,6.0089,6.2133,6.2974,6.3814,6.482,6.7353,6.8122,6.7898,6.9167,7.0206,7.1014,7.1437,7.186,7.2206,7.2206,7.1661,7.0738,6.9436,6.8167,6.6667,0.0,0.0,0.0,0.0,0.0,0.0,0.0,0.0,0.0,0.0,0.0,0.0,0.0,0.0,7.193,7.3245,0.0,7.6438,7.7707,7.8939,7.9998,8.0745,8.1332,8.1499,8.0923,8.1756,8.236,8.2322,8.2505,8.2734,8.2884,8.321,8.3564,8.3985,8.5123,8.58,8.58,8.6591,8.6978,8.6978,8.6978,8.6978,8.6978,8.6978,8.6811,8.6371,8.5967,8.5343,8.4572,8.4168,8.3765,8.3361,8.2957,8.3287,8.3875,8.2663,8.1966,8.1562,8.1175,8.0991,8.0881,0.0,0.0,0.0,0.0,0.0,0.0,0.0,4.5594,4.6206,4.7894,4.8702,4.9779,5.1467,5.2428,5.2967,5.2967,5.3274,5.3818,5.4664,5.6324,5.794,5.9435,5.9511,5.9358,5.9011,5.7709,5.6907,5.6747,5.6055,5.5785,5.5978,5.667,5.7555,5.8588,5.9396,6.0633,6.2172,6.3128,6.4045,6.5051,6.743,6.8507,6.8814,7.0321,7.1437,7.229,7.3014,7.3469,7.3815,7.4469,7.4392,7.3815,7.2976,7.1745,7.0129,6.7436,6.6128,0.0,0.0,0.0,0.0,0.0,0.0,0.0,0.0,7.1321,7.2629,7.4353,7.5623,7.6899,7.8477,7.9277,7.9946,8.0615,8.1648,8.2314,8.2143,8.2606,8.2621,8.1745,8.2232,8.2559,8.2304,8.2508,8.2842,8.3361,8.3675,8.4168,8.4792,8.56,8.604,8.604,8.6664,8.6978,8.6978,8.6978,8.6978,8.6978,8.6978,8.6978,8.6978,8.6334,8.593,8.5747,8.4939,8.4609,8.4535,8.3895,8.4389,8.5416,8.4132,8.3251,8.2663,8.248,8.2443,8.2333,0.0,0.0,0.0,0.0,0.0,0.0,0.0,0.0,4.6206,4.7894,4.8197,4.8894,5.063,5.1543,5.2038,5.2038,5.3472,5.4703,5.5516,5.7203,5.855,5.9473,5.9511,5.8781,5.7324,5.7099,5.6632,5.5862,5.5747,5.6093,5.6863,5.6945,5.7863,5.9396,6.0281,6.1172,6.221,6.3782,6.4974,6.5897,6.7699,6.8853,6.9667,7.0552,7.1437,7.2213,7.2322,7.3283,7.4584,7.4661,7.5168,7.5553,7.4707,7.4284,7.3514,7.0244,6.9206,6.8744,6.7019,6.7167,6.8045,6.9013,6.9821,7.0821,0.0,7.4899,7.7053,7.8738,8.0977,8.2901,8.3862,8.4028,8.3982,8.3972,8.3414,8.2903,8.2571,8.3042,8.3221,8.2624,8.253,8.2648,8.2956,8.326,8.3431,8.3398,8.4719,8.5563,8.5654,8.6444,8.6885,8.6885,8.6941,8.6978,8.6978,8.6978,8.6978,8.6978,8.6978,8.6978,8.6978,8.6904,8.6481,8.5747,8.4939,8.4609,8.4609,8.4499,8.4572,8.4719,8.4535,8.4425,8.4242,8.3528,8.3271,8.3161,0.0,0.0,0.0,0.0,0.0,0.0,0.0,0.0,0.0,4.6552,4.7086,4.7697,4.8394,4.9663,5.0664,5.1164,5.2779,5.4318,5.5593,5.7319,5.8896,6.0204,5.9781,5.9165,5.8478,5.8017,5.7588,5.7203,5.7203,5.7396,5.778,5.8248,5.9088,6.0281,6.1172,6.2287,6.3628,6.482,6.5827,6.675,6.8475,6.936,6.9783,7.0591,7.1129,7.136,7.0898,7.1514,0.0,7.2476,7.2745,7.3245,7.4361,7.3668,7.2399,7.2014,7.086,6.9744,7.002,7.0706,7.1815,7.3668,7.4745,7.6053,7.8746,8.0592,8.2208,8.3862,8.5478,8.6508,8.6287,8.6171,8.5863,8.5198,8.4563,8.4077,8.3794,8.3674,8.3462,8.3087,8.3198,8.3366,8.354,8.394,8.4362,8.4756,8.5416,8.6004,8.6481,8.6811,8.6978,8.6978,8.6978,8.6978,8.6978,8.6978,8.6978,8.6978,8.6978,8.6978,8.6978,8.6978,8.6811,8.6481,8.6151,8.6004,8.5967,8.549,8.5563,8.5967,8.549,8.5563,8.584,8.4572,8.3785,8.3344,0.0,0.0,0.0,0.0,0.0,0.0,0.0,0.0,0.0,0.0,4.6088,4.6583,4.6809,4.8121,4.9356,5.0206,5.1826,5.3638,5.5566,5.7082,5.8704,6.0358,5.9858,5.9396,5.916,5.8583,5.8313,5.8313,5.8313,5.8544,5.9011,5.9588,6.0589,6.1897,6.2749,6.3942,6.5359,6.6205,6.7051,6.7936,6.9206,6.9821,7.009,7.0667,7.0591,7.0129,6.9552,6.986,7.0514,7.0014,7.0014,7.0591,7.2668,7.2052,7.0898,7.2629,7.2007,7.0975,7.1944,7.336,7.5091,7.74,7.8946,8.0677,8.364,8.4978,8.6055,8.7748,8.8402,8.853,8.8011,8.7415,8.67,8.5841,8.5138,8.4633,8.4368,8.3881,8.3518,8.3477,8.3864,8.4225,8.4399,8.4722,8.5159,8.5747,8.6004,8.6371,8.6978,8.6978,8.6978,8.6978,8.6978,8.6978,8.6978,8.6978,8.6978,8.6978,8.6978,8.6978,8.6978,8.6978,8.6978,8.6978,8.6978,8.6978,8.6941,8.6371,8.6481,8.6941,8.6371,8.6481,8.6867,8.571,8.4609,8.3711,0.0,0.0,0.0,0.0,0.0,0.0,0.0,0.0,0.0,0.0,0.0,0.0,0.0,4.7514,4.8363,4.9174,5.0832,5.2894,5.5429,5.6484,5.7786,5.9473,5.9511,5.9127,5.8352,5.8313,5.8313,5.8313,5.8313,5.9127,6.0704,6.0748,6.2089,6.4512,6.5397,6.625,6.7096,6.7936,6.8814,6.9629,6.9667,7.0167,7.086,7.0898,6.9898,6.8468,6.8468,6.9007,6.9475,6.7789,6.7782,6.8622,6.9552,6.9821,7.0052,7.1752,7.2783,7.3199,7.2399,7.4637,7.7592,7.9285,8.1593,8.3909,8.5632,8.6709,8.7786,8.947,8.921,8.8923,8.9595,8.8069,8.6604,8.6235,8.5079,8.4064,8.3675,8.3338,8.3299,8.383,8.4419,8.5029,8.5671,8.5764,8.5764,8.58,8.6518,8.6978,8.6978,8.6978,8.6978,8.6978,8.6978,8.6978,8.6978,8.6978,8.6978,8.6978,8.6978,8.6978,8.6978,8.6978,8.6978,8.6978,8.6978,8.6978,8.6978,8.6978,8.6978,8.6978,8.6978,8.6978,8.6978,8.6941,8.5913,8.4462,0.0,0.0,0.0,0.0,0.0,0.0,0.0,0.0,0.0,0.0,0.0,0.0,0.0,0.0,0.0,0.0,5.0258,5.176,5.3755,5.5735,5.7359,5.8516,5.9656,6.0111,5.9842,5.9852,5.9876,5.9876,6.0533,6.1095,6.1672,6.2204,6.3512,6.5474,6.5782,6.6667,6.8013,6.8891,6.9436,6.9744,7.0283,7.036,7.0052,6.9468,6.8552,6.7321,0.0,6.5199,6.5352,6.4782,6.4775,6.5468,6.8045,6.809,6.7628,6.9898,7.1937,7.3815,7.5207,7.7246,7.9631,8.247,8.4247,8.5863,8.8124,8.8855,8.9201,8.9778,8.8786,8.7504,8.6409,8.5054,8.377,8.2699,8.2774,8.2852,8.2504,8.2564,8.2907,8.3608,8.4293,8.497,8.5727,8.6261,8.6591,8.6591,8.6831,8.6978,8.6978,8.6978,8.6978,8.6978,8.6978,8.6978,8.6978,8.6978,8.6978,8.6978,8.6978,8.6978,8.6978,8.6978,8.6978,8.6978,8.6978,8.6978,8.6978,8.6978,8.6978,8.6978,8.6978,8.6978,8.6978,8.6978,8.6004,8.4572,0.0,0.0,0.0,0.0,0.0,0.0,0.0,0.0,0.0,0.0,0.0,0.0,0.0,0.0,0.0,0.0,0.0,5.0703,5.2433,5.4367,5.5957,5.7152,5.8258,5.8827,5.8827,5.8876,5.901,5.9317,6.0204,6.1144,6.2067,6.2892,6.436,6.6288,6.6314,6.7282,6.8891,6.9475,6.9513,6.9276,6.9821,6.9167,6.7821,6.7276,6.6128,0.0,6.3358,6.2474,6.2006,6.2314,6.2814,6.3737,6.6237,6.7552,6.8366,6.9398,7.236,7.563,7.7292,7.9631,8.22,8.4709,8.6393,8.7893,8.9547,8.9893,8.9816,8.9517,8.7632,8.5518,8.3835,8.2292,8.1022,8.0231,8.0711,8.1311,8.16,8.1775,8.2422,8.3783,8.4345,8.5013,8.6114,8.6701,8.6978,8.6978,8.6978,8.6978,8.6978,8.6978,8.6978,8.6978,8.6978,8.6978,8.6978,8.6978,8.6978,8.6978,8.6978,8.6978,8.6978,8.6978,8.6978,8.6978,8.6978,8.6978,8.6978,8.6978,8.6978,8.6978,8.6978,8.6978,8.6978,8.6978,8.6004,8.4609,0.0,0.0,0.0,0.0,0.0,0.0,0.0,0.0,0.0,0.0,0.0,0.0,0.0,0.0,0.0,0.0,0.0,0.0,5.1463,5.246,5.3715,5.5381,5.5529,5.5606,5.5606,5.5573,5.5957,5.6718,5.7606,5.9255,6.1665,6.2535,6.4257,6.6677,6.675,6.7737,6.9353,6.9353,6.8891,6.8122,6.8122,6.666,6.4474,6.4436,6.2897,6.0902,6.1672,6.0941,5.9704,6.055,6.205,6.366,6.4589,6.8244,7.1905,7.0437,7.4053,7.8561,7.8754,8.1823,8.5162,8.6055,8.8124,8.9893,8.9893,8.9855,8.9586,8.8671,8.5739,8.2973,8.1825,7.9829,7.8452,7.8777,7.9007,7.9601,8.1002,8.1071,8.1893,8.4278,8.4572,8.5233,8.6794,8.6978,8.6978,8.6978,8.6978,8.6978,8.6978,8.6978,8.6978,8.6978,8.6978,8.6978,8.6978,8.6978,8.6978,8.6978,8.6978,8.6978,8.6978,8.6978,8.6978,8.6978,8.6978,8.6978,8.6978,8.6978,8.6978,8.6978,8.6978,8.6978,8.6978,8.6978,8.6004,8.4646,0.0,0.0,0.0,0.0,0.0,0.0,0.0,0.0,0.0,0.0,0.0,0.0,0.0,0.0,0.0,0.0,0.0,0.0,4.9706,5.1706,5.305,5.3477,5.4771,5.5454,5.5454,5.5516,5.5623,5.5814,5.6712,5.7465,5.8117,5.9011,6.0399,6.2209,6.2267,6.322,6.4866,6.4866,6.4776,6.4583,6.4583,6.3858,6.2672,6.2012,6.1364,6.0748,6.0319,6.0281,6.0589,6.1479,6.3711,6.6397,6.7936,7.0167,7.2482,7.3976,7.6322,7.9215,8.2401,8.4516,8.6286,8.8393,8.9432,8.9893,8.9893,8.935,8.8277,8.6163,8.2421,7.9144,7.8016,7.6062,7.514,7.6593,7.7652,7.8972,8.0929,8.1071,8.1672,8.3491,8.4242,8.5013,8.6004,8.6664,8.6978,8.6978,8.6978,8.6978,8.6978,8.6978,8.6978,8.6978,8.6978,8.6978,8.6978,8.6978,8.6978,8.6978,8.6978,8.6978,8.6978,8.6978,8.6978,8.6978,8.6978,8.6978,8.6978,8.6978,8.6978,8.6978,8.6978,8.6978,8.6978,8.6978,8.6371,8.5416,0.0,0.0,0.0,0.0,0.0,0.0,0.0,0.0,0.0,0.0,0.0,0.0,0.0,0.0,0.0,0.0,0.0,0.0,0.0,5.0174,5.132,5.1697,5.2652,5.3142,5.3142,5.3191,5.3407,5.3789,5.4635,5.5457,5.6217,5.7091,5.8182,5.946,5.9485,6.0245,6.1576,6.1927,6.1882,0.0,0.0,6.1219,5.9825,5.9325,5.9132,5.9132,5.9011,6.0242,6.2243,6.4628,6.6712,6.859,7.0706,7.3014,7.5253,7.6669,7.9092,8.19,8.467,8.6547,8.8115,8.9495,8.987,8.964,8.8865,8.7382,8.5324,8.2373,7.8517,7.5354,7.421,7.2828,7.2429,7.4088,7.5675,7.7503,7.9752,8.0304,8.1195,8.3161,8.4115,8.4903,8.5727,8.6518,8.6978,8.6978,8.6978,8.6978,8.6978,8.6978,8.6978,8.6978,8.6978,8.6978,8.6978,8.6978,8.7161,8.7545,8.7545,8.7729,8.8042,8.7692,8.7545,8.7509,8.7124,8.6978,8.6978,8.6978,8.6978,8.6978,8.6978,8.6978,8.6978,8.6978,8.6481,8.5764,0.0,0.0,0.0,0.0,0.0,0.0,0.0,0.0,0.0,0.0,0.0,0.0,0.0,0.0,0.0,0.0,0.0,0.0,0.0,0.0,4.9419,5.0253,5.0265,5.0309,5.0309,5.0315,5.0659,5.1423,5.2117,5.3225,5.4753,5.5504,5.6307,5.7156,5.7212,5.7709,5.8603,5.9415,5.9331,5.8809,5.9648,5.8717,5.6802,0.0,5.7033,5.7264,5.8252,6.0636,6.3904,6.8109,6.9738,7.0552,7.343,7.6399,7.8907,7.91,8.1977,8.5239,8.6209,8.8115,8.9897,8.9952,8.9848,8.9245,8.7187,8.4689,8.1773,7.8173,7.4557,7.1673,7.0674,7.0143,7.0405,7.1959,7.3919,7.6089,7.8437,7.9449,8.0718,8.283,8.3895,8.4756,8.5563,8.6371,8.6885,8.6978,8.6978,8.6978,8.6978,8.6978,8.6978,8.6978,8.6978,8.6978,8.6978,8.7088,8.7509,8.8206,8.8316,8.8702,8.9363,8.8683,8.8316,8.8169,8.7472,8.7088,8.6978,8.6978,8.6978,8.6978,8.6978,8.6978,8.6978,8.6978,8.6554,8.593,0.0,0.0,0.0,0.0,0.0,0.0,0.0,0.0,0.0,0.0,4.5148,4.5192,0.0,0.0,0.0,0.0,0.0,0.0,0.0,0.0,0.0,5.0114,5.0175,5.0212,5.0212,5.0259,5.0359,5.055,5.0665,5.0894,5.12,5.1326,5.1867,5.2708,5.272,5.3221,5.4085,5.496,5.5264,5.5245,5.6078,5.6122,5.5827,5.655,5.7279,0.0,5.9657,6.1461,6.3692,6.7337,6.9973,7.2591,7.7246,7.9592,8.09,8.2293,8.4209,8.6247,8.7833,8.9004,8.9952,9.0541,9.012,8.874,8.5494,8.2674,7.9524,7.5361,7.1512,6.8764,6.8393,6.851,6.9595,7.2338,7.4679,7.6972,7.9281,8.0277,8.0938,8.1379,8.272,8.3911,8.4719,8.5527,8.6261,8.6941,8.6978,8.6978,8.6978,8.6978,8.6978,8.6978,8.6978,8.6978,8.6978,8.7655,8.8059,8.8206,8.8849,8.9253,8.94,8.9253,8.8812,8.8206,8.8059,8.7619,8.6978,8.6978,8.6978,8.6978,8.6978,8.6978,8.6978,8.6978,8.6904,8.6701,0.0,0.0,0.0,0.0,0.0,0.0,0.0,4.5022,4.4932,4.4865,4.4821,4.4808,4.4912,4.4956,4.4944,0.0,0.0,0.0,0.0,0.0,0.0,4.925,4.9803,5.0089,5.0089,5.0145,5.022,5.022,0.0,5.02,5.0236,5.0236,5.0483,5.0926,5.0926,5.1179,5.1635,5.2936,5.3507,5.3686,5.4939,5.5449,5.56,5.6476,5.7582,0.0,6.0156,6.169,6.3614,6.7076,6.9623,7.2202,7.6924,8.019,8.2416,8.3231,8.5223,8.7481,8.8718,8.9564,9.0095,9.0339,8.9343,8.728,8.3313,8.0011,7.6413,7.1642,6.8439,6.6411,6.6195,6.6911,6.8256,7.0548,7.3564,7.6131,7.765,7.969,8.1012,8.1012,8.2427,8.3711,8.4535,8.5306,8.6114,8.6958,8.6978,8.6978,8.6978,8.6978,8.6978,8.6978,8.6978,8.6978,8.6978,8.7802,8.8426,8.8812,8.962,9.0244,9.0629,9.0207,8.9583,8.8776,8.839,8.7729,8.6978,8.6978,8.6978,8.6978,8.6978,8.6978,8.6978,8.6978,8.6978,8.6941,0.0,0.0,0.0,0.0,0.0,0.0,0.0,4.477,4.4654,4.4568,4.4421,4.4407,4.4581,4.4635,4.4641,0.0,0.0,0.0,0.0,0.0,0.0,0.0,0.0,0.0,4.9893,0.0,0.0,5.0056,5.0056,0.0,0.0,0.0,0.0,0.0,5.028,5.0286,5.038,5.206,5.2829,0.0,0.0,5.5433,5.5596,0.0,0.0,0.0,0.0,6.1637,6.3507,6.6562,6.8755,7.0866,7.4631,7.8748,8.2247,8.2965,8.5265,8.775,8.8744,8.9571,9.0064,8.9619,8.8124,8.557,8.1013,7.7319,7.342,6.8443,6.5919,6.4542,6.431,6.5435,6.694,6.8546,7.1943,7.472,7.5726,7.8662,8.0755,8.0755,8.217,8.3528,8.4499,8.5159,8.5967,8.6904,8.6978,8.6978,8.6978,8.6978,8.6978,8.6978,8.6978,8.6978,8.6978,8.7986,8.8776,8.94,9.0391,9.1179,9.1767,9.0959,9.017,8.9363,8.8573,8.7729,8.6978,8.6978,8.6978,8.6978,8.6978,8.6978,8.6978,8.6978,8.6978,8.6978,0.0,0.0,0.0,0.0,0.0,0.0,0.0,4.4369,4.4301,4.4185,4.4155,4.4094,4.4,4.4155,4.4243,0.0,0.0,0.0,0.0,0.0,0.0,0.0,0.0,0.0,0.0,0.0,0.0,4.9835,4.9835,0.0,0.0,0.0,0.0,0.0,0.0,5.0139,5.0314,5.1986,0.0,0.0,0.0,0.0,0.0,0.0,0.0,0.0,0.0,6.1456,6.3131,6.5008,6.7128,6.9286,7.1167,7.4769,7.8913,8.1938,8.4043,8.5751,8.7329,8.8748,8.9513,8.8507,8.6818,8.4037,7.8877,7.5047,7.1366,6.7051,6.4651,6.3305,6.3173,6.4387,6.5975,6.7567,7.0601,7.3266,7.4793,7.7818,7.9926,7.9926,8.1305,8.292,8.4462,8.4682,8.5343,8.6867,8.6978,8.6978,8.6978,8.6978,8.6978,8.6978,8.6978,8.6978,8.6978,8.8519,8.9326,8.9436,9.0959,9.173,9.1767,9.0959,9.017,8.9363,8.8573,8.7729,8.6978,8.6978,8.6978,8.6978,8.6978,8.6978,8.6978,8.6978,8.6978,8.6978,0.0,0.0,0.0,0.0,0.0,0.0,4.4228,4.4147,4.4033,4.4008,4.3868,4.3771,4.3734,4.3747,4.3828,4.3961,0.0,0.0,0.0,0.0,0.0,0.0,0.0,0.0,0.0,0.0,4.9346,4.9377,4.9461,0.0,0.0,0.0,0.0,0.0,0.0,4.9997,5.0184,5.1858,0.0,0.0,0.0,0.0,0.0,0.0,0.0,0.0,0.0,0.0,6.2777,6.394,6.5463,6.7146,6.8731,7.0612,7.3393,7.9085,8.2134,8.4251,8.6946,8.8221,8.8556,8.7585,8.5912,8.3183,7.81,7.433,7.0767,6.6556,6.4291,6.3039,6.2904,6.3797,6.4934,6.6072,6.8972,7.1615,7.323,7.624,7.8662,7.9669,8.0791,8.2296,8.4389,8.4609,8.527,8.6867,8.6978,8.6978,8.6978,8.6978,8.6978,8.6978,8.6978,8.6978,8.6978,8.8133,8.8923,8.94,9.0555,9.1069,9.1069,9.0739,8.9895,8.8683,8.8353,8.7729,8.6978,8.6978,8.6978,8.6978,8.6978,8.6978,8.6978,8.6978,8.6978,8.6978,0.0,0.0,0.0,0.0,0.0,4.4017,4.3963,4.386,4.3808,4.3783,4.3667,4.3583,4.3583,4.3752,4.3916,4.4036,4.409,0.0,0.0,0.0,0.0,0.0,0.0,0.0,0.0,0.0,4.8981,4.9006,4.911,4.9193,0.0,0.0,4.9431,4.9596,0.0,0.0,0.0,0.0,0.0,0.0,0.0,0.0,0.0,0.0,0.0,0.0,0.0,0.0,0.0,0.0,0.0,6.5336,6.6561,6.718,6.8833,7.5962,7.9629,8.2136,8.5456,8.6854,8.7083,8.589,8.4052,8.1294,7.6463,7.2858,6.9476,6.5836,6.3934,6.2917,6.2805,6.3319,6.4053,6.5141,6.7614,7.0036,7.1908,7.4903,7.7546,7.9265,8.0351,8.1966,8.4389,8.5049,8.5783,8.6904,8.6978,8.6978,8.6978,8.6978,8.6978,8.6978,8.6978,8.6978,8.6978,8.7802,8.85,8.9033,8.984,9.0244,9.0244,9.0005,8.9271,8.8206,8.7949,8.7509,8.6978,8.6978,8.6978,8.6978,8.6978,8.6978,8.6978,8.6738,8.6811,8.6978,0.0,0.0,0.0,0.0,0.0,0.0,4.3651,4.3617,4.3592,4.3523,4.3515,4.3506,4.3506,4.4195,4.47,4.47,4.47,0.0,0.0,0.0,0.0,0.0,0.0,0.0,0.0,0.0,4.8669,4.8796,4.8804,4.8855,4.9018,4.9018,4.904,4.9102,0.0,0.0,0.0,0.0,0.0,0.0,0.0,0.0,0.0,0.0,0.0,0.0,0.0,0.0,0.0,0.0,0.0,0.0,0.0,6.4758,6.601,7.2832,7.6505,7.9075,8.2332,8.4331,8.5,8.318,8.0794,7.7753,7.3494,7.005,6.704,6.4617,6.3392,6.2793,6.2793,6.2793,6.3343,6.5031,6.6659,6.8568,7.0977,7.4059,7.6717,7.8405,8.0021,8.1966,8.4389,8.604,8.6978,8.6978,8.6978,8.6978,8.6978,8.6978,8.6978,8.6978,8.6978,8.6978,8.6978,8.7802,8.8206,8.8206,8.9033,8.94,8.94,8.861,8.8206,8.8169,8.7362,8.7014,8.6978,8.6978,8.6978,8.6978,8.6978,8.6978,8.6904,8.6114,8.6334,8.6885,0.0,0.0,0.0,0.0,0.0,0.0,0.0,4.354,4.3532,4.3515,4.3506,4.3506,4.3506,4.4232,4.47,4.47,4.5214,0.0,0.0,0.0,0.0,0.0,0.0,0.0,0.0,0.0,4.7859,4.8448,4.855,4.8615,4.867,4.8714,4.8794,4.889,4.8953,4.9345,0.0,0.0,0.0,0.0,0.0,0.0,5.7004,0.0,0.0,0.0,0.0,0.0,0.0,0.0,0.0,0.0,0.0,0.0,0.0,6.8177,7.1293,7.4386,7.765,7.9193,7.9593,7.848,7.7132,7.5213,7.1666,6.9242,6.7003,6.4617,6.3429,6.2793,6.2793,6.2793,6.3343,6.5031,6.6182,6.8091,7.1651,7.3949,7.6313,7.9082,8.1819,8.3985,8.527,8.6371,8.6978,8.6978,8.6978,8.6978,8.6978,8.6978,8.6978,8.6978,8.6978,8.6978,8.6978,8.7252,8.7655,8.8206,8.8463,8.8573,8.8573,8.8316,8.7912,8.7362,8.7088,8.6978,8.6978,8.6978,8.6978,8.6978,8.6978,8.6664,8.6151,8.5894,8.56,8.5416,0.0,0.0,0.0,0.0,0.0,0.0,0.0,4.3506,4.3506,4.3506,4.3506,4.3506,4.3506,4.4488,4.514,4.514,4.6177,0.0,0.0,0.0,0.0,0.0,0.0,0.0,0.0,4.7516,4.748,4.8296,4.8704,4.8769,4.8428,4.8798,4.8864,4.8624,4.9002,4.9445,0.0,0.0,0.0,0.0,0.0,0.0,5.664,0.0,0.0,0.0,0.0,0.0,0.0,0.0,0.0,0.0,0.0,0.0,0.0,0.0,6.7093,6.9549,7.3411,7.4956,7.5307,7.45,7.3435,7.1931,6.9339,6.7517,6.5828,6.398,6.3673,6.3563,6.2903,6.3563,6.4444,6.5178,6.6733,6.8825,7.1651,7.4206,7.6995,8.033,8.3287,8.5233,8.5764,8.6518,8.6978,8.6978,8.6978,8.6978,8.6978,8.6978,8.6978,8.6978,8.6978,8.6978,8.6978,8.6978,8.7252,8.7766,8.7766,8.7766,8.7766,8.7766,8.7472,8.6978,8.6978,8.6978,0.0,8.6978,8.6978,8.6978,8.6664,8.6224,8.571,8.5123,8.4976,8.5086,0.0,0.0,0.0,0.0,0.0,0.0,0.0,4.3506,4.3506,4.3506,4.3506,4.3506,4.3506,4.4938,4.5883,4.5883,0.0,0.0,0.0,0.0,0.0,0.0,0.0,0.0,0.0,4.7452,4.7452,4.8296,4.9123,4.9123,4.8416,4.9233,4.9197,4.8526,4.9394,4.981,0.0,0.0,0.0,0.0,5.5461,5.6169,0.0,0.0,0.0,0.0,0.0,0.0,0.0,0.0,0.0,0.0,0.0,0.0,0.0,0.0,0.0,0.0,0.0,7.1307,7.1821,7.105,6.9729,6.8238,6.6696,6.5154,0.0,6.2976,6.4114,6.4774,6.3123,6.4824,6.6256,6.5508,6.8054,7.0403,7.1344,7.494,7.8683,8.1966,8.4352,8.5747,8.5857,8.6554,8.6978,8.6978,8.6978,8.6978,8.6978,8.6978,8.6978,8.6978,8.6978,8.6978,8.6978,8.6978,8.6978,8.6978,8.6978,8.6978,8.6978,8.6978,8.6978,8.6978,8.6978,8.6978,8.6978,8.6978,8.6978,8.6848,8.6077,8.5764,8.5527,8.4058,8.4425,8.56,0.0,0.0,0.0,0.0,0.0,0.0,0.0,0.0,0.0,0.0,4.3506,4.3506,4.3506,4.4938,4.5883,0.0,0.0,0.0,0.0,0.0,0.0,0.0,0.0,0.0,0.0,4.6902,4.6874,4.8296,4.8526,4.882,4.9307,4.95,4.9821,5.0215,5.0455,5.0879,0.0,0.0,0.0,0.0,5.5202,5.5903,0.0,0.0,0.0,0.0,5.8099,5.8235,0.0,0.0,0.0,0.0,0.0,0.0,0.0,0.0,6.3086,6.3343,6.4481,0.0,6.694,6.6756,6.6426,6.5888,0.0,6.436,6.3833,6.2976,6.4114,6.4774,6.3123,6.4824,6.6439,6.6256,6.8385,7.0807,7.2863,7.6644,8.0388,8.3654,8.4535,8.538,8.6591,8.6885,8.6978,8.6978,8.6978,8.6978,8.6978,8.6978,8.6978,8.6978,8.6978,8.6978,8.6978,8.6978,8.6978,8.6978,8.6978,8.6978,8.6978,8.6978,8.6978,8.6978,8.6978,8.6978,8.6978,8.6978,8.6628,8.604,8.5857,8.5416,8.4829,8.4462,8.4572,8.4939,0.0,0.0,0.0,0.0,0.0,0.0,0.0,0.0,0.0,0.0,0.0,0.0,0.0,0.0,0.0,0.0,0.0,0.0,0.0,0.0,0.0,0.0,0.0,4.7012,4.826,4.7085,4.7049,4.8296,4.9067,4.9481,4.961,5.0381,5.0739,5.0839,5.1206,5.1793,0.0,0.0,0.0,0.0,5.5058,0.0,0.0,0.0,0.0,0.0,5.7997,5.7997,0.0,5.9416,6.0077,6.0639,0.0,0.0,0.0,0.0,6.2793,6.2793,6.2793,6.3453,6.415,6.415,6.415,6.404,6.3613,6.3503,6.3392,6.2903,6.4444,6.5338,6.3686,6.5705,6.7467,6.71,6.9376,7.2422,7.5998,7.9045,8.1819,8.4315,8.4818,8.55,8.6746,8.6786,8.6733,8.6733,8.6733,8.6768,8.6856,8.6856,8.6908,8.7014,8.6978,8.6978,8.6978,8.6978,8.6978,8.6978,8.6978,8.6978,8.6978,8.6978,8.6978,8.6978,8.6978,8.6978,8.6978,8.6591,8.6187,8.5747,8.538,8.4976,8.4609,8.4609,8.4829,8.5196,0.0,0.0,0.0,0.0,0.0,0.0,0.0,0.0,0.0,0.0,0.0,0.0,0.0,0.0,0.0,0.0,0.0,0.0,0.0,0.0,0.0,0.0,0.0,4.748,4.826,4.7516,4.748,4.8296,4.9848,5.0335,4.9821,5.1289,5.1683,5.1206,5.1867,5.2564,0.0,0.0,0.0,5.3324,5.4961,0.0,0.0,0.0,0.0,0.0,0.0,0.0,0.0,5.8939,5.9747,6.0529,6.1337,0.0,0.0,0.0,0.0,0.0,6.2793,6.2903,6.3013,6.3013,6.3086,6.3196,6.3196,6.3196,6.3196,6.3196,6.5044,6.6219,6.4763,6.699,6.8862,6.8178,7.0881,7.4625,7.9155,8.1142,8.2741,8.4338,8.5101,8.5784,8.657,8.6483,8.6411,8.6411,8.6411,8.6465,8.6662,8.6661,8.6786,8.6943,8.696,8.6978,8.6978,8.6978,8.6978,8.6978,8.6978,8.6978,8.6978,8.6978,8.6978,8.6978,8.6978,8.6978,8.6958,8.6114,8.571,8.5527,8.4866,8.4609,8.4609,8.4756,8.5306,8.5967,0.0,0.0,0.0,0.0,0.0,0.0,0.0,0.0,0.0,0.0,0.0,0.0,0.0,0.0,0.0,0.0,0.0,0.0,0.0,0.0,0.0,4.8296,4.7526,4.748,4.826,4.7516,4.748,4.8296,4.9307,5.0078,5.0655,5.1583,5.2307,5.2847,5.2957,5.3067,5.3214,0.0,5.3214,5.3324,5.4961,0.0,0.0,0.0,0.0,0.0,0.0,0.0,0.0,5.8939,5.9747,6.0529,6.1337,0.0,0.0,0.0,0.0,0.0,6.2793,6.3356,6.3906,6.3906,6.442,6.4921,6.4921,6.4921,6.4921,6.4921,6.6292,6.7223,6.6292,6.8201,6.9889,6.9743,7.301,7.6533,7.9412,8.1029,8.2541,8.4169,8.4874,8.5553,8.6356,8.6429,8.6411,8.6411,8.6411,8.6392,8.6429,8.6626,8.6696,8.6768,8.6908,8.6978,8.6978,8.6978,8.6978,8.6978,8.6978,8.6978,8.6978,8.6978,8.6978,8.6978,8.6978,8.6978,8.6958,8.6114,8.538,8.4756,8.4646,8.4609,8.4682,8.5343,8.6114,8.6811,0.0,0.0,0.0,0.0,0.0,0.0,0.0,0.0,0.0,0.0,0.0,0.0,0.0,0.0,0.0,0.0,0.0,0.0,0.0,0.0,0.0,4.8296,4.7966,4.7929,4.8296,4.7929,4.7929,4.8296,4.9591,5.0435,5.0839,5.2087,5.2858,5.3214,5.3214,5.3214,5.3214,5.3654,5.3838,5.3985,0.0,0.0,0.0,0.0,0.0,0.0,0.0,0.0,0.0,0.0,5.9086,5.9893,6.0713,0.0,0.0,0.0,0.0,0.0,6.2793,6.3747,6.4751,6.4751,6.5031,6.5398,6.5852,6.5962,6.6072,6.6512,6.754,6.8238,6.7871,6.9412,7.1293,7.2966,7.5883,7.8453,7.993,8.1419,8.283,8.3998,8.4662,8.5355,8.6156,8.6173,8.6135,8.6135,8.6135,8.6155,8.6229,8.6411,8.6609,8.6715,8.6891,8.6978,8.6978,8.6978,8.6978,8.6978,8.6978,8.6978,8.6978,8.6978,8.6978,8.6978,8.6978,8.6775,8.6297,8.549,8.4939,8.4609,8.4609,8.4866,8.5343,8.6151,8.6701,8.6978,0.0,0.0,0.0,0.0,0.0,0.0,0.0,0.0,0.0,0.0,0.0,0.0,0.0,0.0,0.0,0.0,0.0,0.0,0.0,0.0,4.8113,4.8296,4.8296,4.8296,4.8296,4.8296,4.8296,4.8296,4.9994,5.0986,5.1389,5.2627,5.3214,5.3214,5.3214,5.3287,5.3508,5.4142,5.4509,5.4803,0.0,0.0,0.0,0.0,0.0,0.0,0.0,0.0,0.0,0.0,0.0,0.0,0.0,0.0,0.0,6.2572,6.2793,6.2793,6.2793,6.3894,6.5081,6.5251,6.5729,6.6279,6.6916,6.7357,6.7797,6.8421,6.9192,6.9816,7.0,7.1462,7.3443,7.5775,7.8158,7.9941,8.0594,8.2038,8.3332,8.4116,8.4755,8.5372,8.5989,8.5967,8.5909,8.5909,8.5909,8.5948,8.6062,8.621,8.6411,8.6608,8.6821,8.6943,8.6978,8.6978,8.6978,8.6978,8.6978,8.6978,8.6978,8.6978,8.6978,8.6978,8.6978,8.6664,8.6004,8.5196,8.4866,8.4866,8.4866,8.538,8.6151,8.6757,8.6978,8.6978,0.0,0.0,0.0,0.0,0.0,0.0,0.0,0.0,0.0,0.0,0.0,0.0,0.0,0.0,0.0,0.0,0.0,0.0,0.0,0.0,4.7516,4.826,4.8296,4.8296,4.8296,4.8296,4.8296,4.8296,4.9994,5.1563,5.3031,5.3141,5.3214,5.3214,5.3214,5.3618,5.4326,5.4363,5.484,5.5585,5.6455,0.0,0.0,0.0,0.0,0.0,0.0,0.0,0.0,0.0,0.0,0.0,0.0,0.0,6.1741,6.2572,6.2793,6.2793,6.2793,6.3466,6.4347,6.5105,6.6976,6.8678,6.8701,6.9876,7.0977,7.1013,7.1674,7.2459,7.323,7.5187,7.6747,7.7003,7.8869,8.0594,8.1416,8.2717,8.3919,8.4719,8.5424,8.5856,8.5892,8.5928,8.5909,8.5909,8.5909,8.5873,8.5892,8.6062,8.621,8.6429,8.6626,8.6821,8.6978,8.6978,8.6978,8.6978,8.6978,8.6978,8.6978,8.6978,8.6978,8.6978,8.6978,8.6978,8.6831,8.604,8.571,8.571,8.571,8.6224,8.6904,8.6978,8.6978,8.6978,0.0,0.0,0.0,0.0,0.0,0.0,0.0,0.0,0.0,0.0,0.0,0.0,0.0,0.0,0.0,0.0,0.0,0.0,0.0,4.6388,4.7223,4.7553,4.8039,4.8296,4.8296,4.8296,4.8296,4.8296,4.9994,5.1599,5.3214,5.3214,5.3214,5.3214,5.3214,5.3361,5.3728,5.473,5.5328,5.5695,5.7005,5.7556,0.0,0.0,0.0,0.0,0.0,0.0,0.0,0.0,5.8217,5.8584,5.938,6.0224,6.1006,6.1814,6.2389,6.2793,6.2793,6.3429,6.4273,6.5105,6.7123,6.9302,7.0807,7.2371,7.3986,7.5542,7.5637,7.5417,7.5212,7.6652,7.7959,7.8342,8.0308,8.1845,8.2013,8.3357,8.4427,8.4753,8.544,8.5909,8.5909,8.5909,8.5909,8.5909,8.5909,8.5909,8.5909,8.6025,8.6192,8.6374,8.6609,8.6803,8.6978,8.6978,8.6978,8.6978,8.6978,8.6978,8.6978,8.6978,8.6978,8.6978,8.6978,8.6738,8.6224,8.593,8.58,8.5874,8.6334,8.6738,8.6978,8.6978,8.6978,8.6978,0.0,0.0,0.0,0.0,0.0,0.0,0.0,0.0,0.0,0.0,0.0,0.0,0.0,0.0,0.0,0.0,0.0,0.0,4.4663,4.5718,4.6461,4.6718,4.7489,4.7929,4.7929,4.8186,4.8296,4.8296,4.9994,5.1499,5.2821,5.3067,5.3214,5.3214,5.3214,5.3324,5.3654,5.473,5.5511,5.6099,5.7189,5.7776,0.0,0.0,0.0,0.0,0.0,0.0,0.0,0.0,5.7997,5.8143,5.8939,5.9747,6.0566,6.1374,6.2181,6.2793,6.2793,6.3429,6.4273,6.5105,6.7123,6.9655,7.2606,7.45,7.6298,7.8516,7.8919,7.861,7.7818,7.8583,7.9559,8.0229,8.1554,8.2631,8.3012,8.4008,8.4786,8.504,8.5547,8.5909,8.5909,8.5909,8.5909,8.5909,8.5656,8.5511,8.5511,8.5352,8.541,8.5645,8.5788,8.5982,8.6244,8.6244,8.6244,8.6244,8.6244,8.65,8.6978,8.6978,8.6978,8.6978,8.6978,8.6701,8.6187,8.6187,8.6187,8.6224,8.6775,8.6978,8.6978,8.6978,8.6978,8.6978,0.0,0.0,0.0,0.0,0.0,0.0,0.0,0.0,0.0,0.0,0.0,0.0,0.0,0.0,0.0,0.0,0.0,0.0,4.4626,4.47,4.5067,4.5847,4.6682,4.7113,4.7113,4.7893,4.8296,4.8296,4.9985,5.1206,5.2024,5.2821,5.3214,5.3214,5.3214,5.3654,5.4399,5.4399,5.5317,5.6774,5.6811,5.7299,5.7997,0.0,0.0,0.0,0.0,0.0,0.0,0.0,5.7997,5.8143,5.8939,5.9747,6.0566,6.1374,6.2181,6.2793,6.2793,6.3466,6.4323,6.5118,6.7123,7.0,7.4023,7.6188,7.7803,7.9522,8.1101,8.1966,8.1158,8.134,8.187,8.2673,8.2539,8.2885,8.446,8.4714,8.5004,8.5801,8.5909,8.5909,8.5909,8.5873,8.5873,8.5873,8.5149,8.4678,8.4678,8.3936,8.3665,8.3987,8.4004,8.4197,8.4609,8.4609,8.4609,8.4609,8.4609,8.5453,8.6978,8.6978,8.6978,8.6978,8.6978,8.6978,8.6978,8.6978,8.6978,8.6978,8.6978,8.6978,8.6978,8.6978,8.6978,8.6978,0.0,0.0,0.0,0.0,0.0,0.0,0.0,0.0,0.0,0.0,0.0,0.0,0.0,0.0,0.0,0.0,0.0,0.0,4.3836,4.4378,4.481,4.503,4.6388,4.7113,4.7113,4.7893,4.86,4.9197,5.0288,5.1206,5.2024,5.2821,5.3214,5.3214,5.3214,5.3324,5.3581,5.4179,5.4987,5.6014,5.6554,5.7299,5.7997,0.0,0.0,0.0,0.0,0.0,0.0,0.0,0.0,0.0,5.8939,5.9747,6.0566,6.1374,6.2585,6.3723,6.3723,6.4714,6.5962,6.6769,6.8788,7.1637,7.5674,7.7892,7.9837,8.259,8.3544,8.3471,8.2113,8.2181,8.2527,8.2746,8.3483,8.4153,8.4605,8.5185,8.5619,8.5873,8.5909,8.5909,8.5909,8.5402,8.504,8.504,8.4316,8.3863,8.3863,8.372,8.3755,8.3987,8.4145,8.4335,8.4609,8.4609,8.4609,8.4609,8.4609,8.5159,8.6151,8.6151,8.6481,8.6978,8.6978,8.6978,8.6978,8.6978,8.6978,8.6978,8.6978,8.6978,8.6978,8.6978,8.6978,8.6978,0.0,0.0,0.0,0.0,0.0,0.0,0.0,0.0,0.0,0.0,0.0,0.0,0.0,0.0,0.0,0.0,0.0,0.0,0.0,4.3938,4.4232,4.4232,4.5764,4.6938,4.7562,4.8039,4.871,4.961,5.0398,5.1059,5.1536,5.2664,5.3214,5.3214,5.3214,5.3214,5.3214,5.3728,5.4583,5.5658,5.6124,5.7005,5.7997,0.0,0.0,0.0,0.0,0.0,0.0,0.0,0.0,0.0,5.9049,6.0187,6.1435,6.1924,6.3246,6.464,6.4971,6.6219,6.765,6.8471,7.0697,7.3876,7.8243,8.0755,8.2753,8.4682,8.5343,8.5159,8.3875,8.3749,8.3998,8.431,8.4645,8.5027,8.5318,8.579,8.6117,8.6117,8.6117,8.6117,8.6117,8.539,8.4882,8.4882,8.3865,8.3211,8.3211,8.2991,8.295,8.3161,8.3298,8.3434,8.3654,8.3654,8.3654,8.3654,8.3985,8.4535,8.5306,8.5637,8.6224,8.6978,8.6978,8.6978,8.6978,8.6978,8.6978,8.6978,8.6978,8.6978,8.6978,8.6978,8.6978,8.6978,0.0,0.0,0.0,0.0,0.0,0.0,0.0,0.0,0.0,0.0,0.0,0.0,0.0,0.0,0.0,0.0,0.0,0.0,0.0,0.0,4.3506,4.3506,4.5039,4.6654,4.826,4.8296,4.8673,4.95,5.0362,5.0839,5.0949,5.248,5.3214,5.3214,5.3214,5.3214,5.3214,5.3214,5.4142,5.5585,5.5585,5.6576,5.7997,5.7997,0.0,0.0,0.0,0.0,0.0,0.0,0.0,0.0,5.9306,6.0921,6.2829,6.2903,6.415,6.5692,6.6586,6.8054,6.9559,7.044,7.312,7.6775,8.1379,8.4242,8.5894,8.5894,8.6481,8.6775,8.604,8.5756,8.5855,8.6569,8.5898,8.5554,8.6301,8.6411,8.6411,8.6411,8.6411,8.6374,8.6301,8.5554,8.5043,8.497,8.3548,8.2709,8.2709,8.1997,8.1717,8.1885,8.1902,8.2038,8.2186,8.2186,8.2186,8.2186,8.2957,8.3711,8.4535,8.538,8.6224,8.6978,8.6978,8.6978,8.6978,8.6978,8.6978,8.6978,8.6978,8.6978,8.6978,8.6978,8.6978,8.6978,0.0,0.0,0.0,0.0,0.0,0.0,0.0,0.0,0.0,0.0,0.0,0.0,0.0,0.0,0.0,0.0,0.0,0.0,0.0,0.0,4.3506,4.3506,4.5039,4.6654,4.826,4.8296,4.837,4.86,5.0068,5.1132,5.1767,5.2737,5.3214,5.3214,5.3214,5.3214,5.3214,5.3214,5.4142,5.5585,5.5585,5.6576,5.7997,5.7997,5.7997,0.0,0.0,0.0,0.0,0.0,0.0,0.0,5.993,6.1361,6.2939,6.3613,6.5424,6.7517,6.8935,7.0954,7.301,7.4441,7.7745,8.1232,8.3544,8.5453,8.6738,8.6738,8.6867,8.6941,8.6757,8.6582,8.6496,8.6679,8.6409,8.6192,8.6374,8.6411,8.6411,8.6411,8.6411,8.6156,8.5517,8.4751,8.4004,8.3366,8.2417,8.187,8.187,8.1824,8.1852,8.1885,8.2071,8.2154,8.2186,8.2186,8.2186,8.2186,8.237,8.2884,8.3711,8.5159,8.6224,8.6978,8.6978,8.6978,8.6978,8.6978,8.6978,8.6978,8.6978,8.6978,8.6978,8.6978,8.6978,8.6978,0.0,0.0,0.0,0.0,0.0,0.0,0.0,0.0,0.0,0.0,0.0,0.0,0.0,0.0,0.0,0.0,0.0,0.0,0.0,0.0,4.3836,4.4607,4.5443,4.6654,4.826,4.8296,4.8489,4.894,5.0178,5.1022,5.1463,5.2627,5.3214,5.3214,5.3214,5.3214,5.3214,5.3214,5.4142,5.5585,5.5585,5.6576,5.7997,5.7997,5.7997,5.7997,5.7997,0.0,0.0,0.0,0.0,0.0,0.0,0.0,6.415,6.5007,6.6696,6.8715,7.0697,7.2716,7.5028,7.8222,8.0901,8.3214,8.4792,8.6114,8.6978,8.6978,8.6978,8.6978,8.6978,8.6908,8.6856,8.6856,8.6768,8.6697,8.6697,8.6697,8.6697,8.6697,8.6697,8.6368,8.5581,8.4759,8.3954,8.3149,8.2344,8.1885,8.1885,8.2005,8.2055,8.2055,8.2137,8.2003,8.1636,8.1636,8.1415,8.1064,8.1819,8.281,8.4005,8.4829,8.5453,8.5857,8.5857,8.5857,8.5857,8.5857,8.5857,8.5857,8.5857,8.5857,8.5857,8.5857,8.6077,8.6444,0.0,0.0,0.0,0.0,0.0,0.0,0.0,0.0,0.0,0.0,0.0,0.0,0.0,0.0,0.0,0.0,0.0,0.0,0.0,0.0,0.0,4.5626,4.5847,4.6581,4.8076,4.8223,4.8636,4.938,5.0618,5.1196,5.1232,5.27,5.3398,5.3398,5.3398,5.3398,5.3398,5.3251,5.4142,5.5585,5.5585,5.6576,5.7997,5.7997,5.7997,5.7997,5.7997,5.7997,5.8107,5.8939,0.0,0.0,0.0,0.0,6.5472,6.6439,6.7834,6.9669,7.2239,7.439,7.6995,8.1342,8.303,8.3968,8.5453,8.6407,8.6978,8.6978,8.6978,8.6978,8.6978,8.6978,8.6978,8.6978,8.6978,8.6978,8.6978,8.6867,8.6811,8.6811,8.6811,8.6407,8.549,8.4903,8.4205,8.3271,8.259,8.2186,8.2186,8.2186,8.215,8.2003,8.2003,8.1599,8.0791,8.0791,8.0534,8.0036,8.1489,8.2884,8.4205,8.4205,8.4352,8.4609,8.4609,8.4609,8.4609,8.4609,8.4609,8.4609,8.4609,8.4609,8.4609,8.4609,8.5013,8.56,0.0,0.0,0.0,0.0,0.0,0.0,0.0,0.0,0.0,0.0,4.3506,0.0,0.0,0.0,0.0,0.0,0.0,0.0,4.3506,0.0,0.0,4.481,4.5516,4.6324,4.7223,4.7929,4.837,4.8489,5.1416,5.2884,5.2884,5.3812,5.4252,5.4252,5.4252,5.4252,5.4179,5.3508,5.4142,5.5585,5.5585,5.6576,5.7997,5.7997,5.7997,5.7997,5.7997,5.7997,5.8107,5.8939,5.9747,0.0,0.0,0.0,6.5582,6.7113,6.8692,7.0624,7.3729,7.7326,8.0681,8.272,8.3838,8.4682,8.56,8.6407,8.6978,8.6978,8.6978,8.6978,8.6978,8.6978,8.6978,8.6978,8.6978,8.6978,8.6978,8.6407,8.5967,8.5967,8.5967,8.538,8.3858,8.4242,8.3985,8.248,8.226,8.2186,8.2186,8.2186,8.1893,8.1195,8.1158,8.0755,7.9963,7.9963,8.0241,8.0865,8.1746,8.2296,8.2517,8.2517,8.3287,8.4609,8.4609,8.4609,8.4609,8.4609,8.4609,8.4609,8.4609,8.4609,8.4609,8.4609,8.4682,8.4866,0.0,0.0,0.0,0.0,0.0,0.0,0.0,0.0,0.0,0.0,0.0,4.3506,0.0,0.0,0.0,4.3506,4.3506,4.3506,4.3506,4.3506,4.3873,4.4663,4.503,4.5581,4.6425,4.7232,4.7636,4.7636,5.0902,5.2737,5.3251,5.4939,5.5757,5.5721,5.528,5.5071,5.506,5.4693,5.5207,5.6271,5.6271,5.6969,5.7997,5.7997,5.7997,5.7997,5.7997,5.7997,5.818,5.9453,6.0114,6.0786,6.2879,0.0,0.0,0.0,6.9816,7.2165,7.538,7.8259,8.0718,8.2333,8.3324,8.4132,8.4939,8.5416,8.5783,8.6224,8.6334,8.6481,8.6904,8.6978,8.6978,8.6978,8.6628,8.6334,8.6334,8.5637,8.5123,8.5123,8.5123,8.4682,8.3491,8.3711,8.3471,8.2296,8.2186,8.2003,8.1562,8.1525,8.1158,8.0351,8.0314,7.9947,7.9155,7.914,7.9507,8.0351,8.1122,8.1746,8.2186,8.2186,8.259,8.3251,8.3251,8.3251,8.3251,8.3251,8.3251,8.3251,8.3251,8.3251,8.3251,8.3251,8.3544,8.4058,0.0,0.0,0.0,0.0,0.0,0.0,0.0,0.0,0.0,0.0,0.0,0.0,0.0,0.0,0.0,0.0,4.3506,4.3506,4.3506,4.3506,4.3763,4.4378,4.459,4.4993,4.559,4.6571,4.7113,4.7113,5.0618,5.2601,5.3251,5.5673,5.6921,5.7068,5.6271,5.5904,5.5879,5.5695,5.6051,5.6811,5.6811,5.7299,5.7997,5.7997,5.8253,5.8621,5.8621,5.8621,5.8841,6.0481,6.0737,6.086,6.3576,6.5375,0.0,0.0,0.0,7.3986,7.6592,7.8369,7.989,8.1489,8.2517,8.3308,8.4132,8.4462,8.4756,8.538,8.5654,8.593,8.6334,8.6721,8.6904,8.6738,8.6187,8.571,8.5527,8.4792,8.4315,8.4315,8.4315,8.3985,8.3161,8.3271,8.2977,8.1966,8.1893,8.1525,8.0755,8.0681,8.0314,7.9522,7.9522,7.9103,7.8295,7.8479,7.8883,7.9522,8.0314,8.1012,8.1615,8.1615,8.1709,8.1893,8.2113,8.2186,8.2186,8.2186,8.2186,8.2186,8.2186,8.2186,8.2186,8.2186,8.27,8.3528,0.0,0.0,0.0,0.0,0.0,0.0,0.0,0.0,0.0,0.0,0.0,0.0,4.3506,4.3506,4.3506,4.3506,4.3506,4.3506,4.3506,4.3506,4.3506,4.3543,4.4305,0.0,4.4773,4.6305,4.7113,4.7113,5.1159,5.3177,5.3251,5.5673,5.7226,5.7886,5.7116,5.6737,5.6712,5.5915,5.6051,5.6811,5.6811,5.7299,5.7997,5.7997,5.8951,6.0272,6.0272,6.0272,6.0517,6.2132,6.1655,6.097,6.4224,6.5815,6.7136,0.0,0.0,0.0,7.7069,7.7949,7.9066,8.0681,8.1672,8.248,8.3271,8.4042,8.4609,8.4646,8.527,8.5563,8.4866,8.5967,8.6775,8.5967,8.5837,8.5527,8.4756,8.3968,8.3454,8.3454,8.3454,8.3124,8.2333,8.2957,8.2757,8.1195,8.1048,8.0718,7.9926,7.9853,7.9486,7.8699,7.8662,7.8259,7.7399,7.8185,7.8626,7.8662,7.9486,7.989,7.9926,7.9926,8.0351,8.1122,8.1856,8.2186,8.2186,8.2186,8.2186,8.2186,8.2186,8.2186,8.2186,8.2186,8.27,8.3528,0.0,0.0,0.0,0.0,0.0,0.0,0.0,0.0,0.0,0.0,0.0,0.0,0.0,4.3506,4.3506,4.3506,4.3506,4.3506,4.3506,4.3506,4.3506,4.3506,4.4268,4.47,4.47,4.6269,4.7113,4.7113,5.0168,5.2186,5.3214,5.4609,5.5978,5.7226,5.6921,5.7068,5.7556,5.7262,5.7299,5.7556,5.7556,5.774,5.8107,5.9134,5.9905,6.0529,6.1582,6.1288,6.0639,6.2242,6.2071,6.1667,6.442,6.6573,6.8788,7.2518,7.4793,7.6276,7.7069,7.7949,7.8736,7.9323,8.0057,8.0865,8.1672,8.2076,8.259,8.3618,8.4058,8.4352,8.4572,8.549,8.5967,8.5159,8.4609,8.4168,8.3858,8.2684,8.206,8.259,8.2186,8.1966,8.2186,8.2003,8.1636,8.1048,8.0534,7.9874,7.9066,7.9045,7.8626,7.7803,7.7766,7.7619,7.7289,7.8185,7.8589,7.8589,7.9412,7.9816,7.9816,7.9816,7.9963,8.0277,8.1085,8.1709,8.2186,8.2186,8.2186,8.2186,8.2186,8.2517,8.2994,8.2994,8.3471,8.4278,0.0,0.0,0.0,0.0,0.0,0.0,0.0,0.0,0.0,0.0,0.0,0.0,0.0,0.0,4.3506,4.3506,4.3763,4.38,4.3506,4.3763,4.3901,4.3901,4.4672,4.5104,4.5104,4.6415,4.7113,4.7113,4.9297,5.0949,5.2013,5.3078,5.4326,5.56,5.5856,5.6602,5.7593,5.7593,5.774,5.7997,5.7997,5.7997,5.8143,5.9501,6.0481,6.1361,6.2756,6.2548,6.1851,6.3196,6.2903,6.2401,6.4591,6.7343,7.0389,7.3876,7.5469,7.6276,7.7069,7.7729,7.8222,7.8516,7.8993,7.9633,8.0424,8.0608,8.0975,8.2317,8.2794,8.3177,8.3691,8.4462,8.4829,8.4278,8.3748,8.3197,8.2684,8.1672,8.1085,8.1342,8.0901,8.0791,8.1358,8.0901,8.0498,8.0204,7.969,7.9029,7.8222,7.7928,7.7488,7.6922,7.6885,7.7032,7.7289,7.7876,7.8185,7.8185,7.8442,7.8568,7.8568,7.8259,7.8442,7.8993,7.9543,8.0534,8.1819,8.2076,8.2186,8.2186,8.2186,8.2517,8.3014,8.3308,8.3895,8.4719,0.0,0.0,0.0,0.0,0.0,0.0,0.0,0.0,0.0,4.3579,0.0,0.0,0.0,0.0,0.0,4.3579,4.4268,4.4415,4.3616,4.4305,4.4737,4.4737,4.5516,4.592,4.592,4.6718,4.7149,4.7149,4.8756,4.9574,4.9647,5.1216,5.238,5.3214,5.3995,5.5207,5.6737,5.6774,5.7262,5.796,5.7997,5.7997,5.8107,5.8939,6.0737,6.2903,6.3833,6.4139,6.4249,6.5081,6.4224,6.316,6.4884,6.8151,7.1784,7.4169,7.5469,7.6276,0.0,0.0,0.0,7.8369,7.8552,7.8772,7.9596,7.9779,8.0,8.0791,8.1599,8.2113,8.2113,8.2774,8.3271,8.3271,8.3308,8.2794,8.1232,8.0975,8.0645,7.989,7.9779,7.9779,7.9816,7.9779,7.9449,7.8662,7.8552,7.8148,7.7326,7.6518,7.6093,7.6093,7.6093,7.6481,7.7252,7.7252,7.7252,7.7215,7.646,7.6056,7.6056,7.527,7.5747,7.7252,7.7289,7.8683,8.0975,8.1819,8.2186,8.2186,8.2186,8.2223,8.2333,8.3124,8.3931,8.4719,0.0,0.0,0.0,0.0,0.0,0.0,4.5149,0.0,4.5232,0.0,0.0,0.0,4.5232,4.5232,4.5232,4.5232,4.5443,4.548,4.5259,4.5443,4.5553,4.5553,4.6351,4.6755,4.6755,4.7562,4.7966,4.7966,4.8416,4.8976,4.961,5.0051,5.0996,5.2344,5.2564,5.3555,5.5133,5.6308,5.6921,5.7178,5.7776,5.7997,5.8217,6.0199,6.1337,6.2254,6.4897,6.5094,6.4323,6.5705,6.5472,6.5105,6.7907,7.033,7.2422,7.367,7.4992,7.6166,7.6387,0.0,0.0,0.0,0.0,0.0,7.8736,7.8919,7.914,7.9963,8.033,8.0477,8.0477,8.0661,8.0791,8.0791,8.1269,8.1525,8.1048,7.9984,7.9396,7.9779,7.9302,7.914,7.9743,7.9265,7.8846,7.8626,7.7488,7.668,7.646,7.624,7.6093,7.6093,7.6093,7.6203,7.6423,7.5858,7.5564,7.5564,7.5344,7.5234,7.5197,7.5014,7.5124,7.5637,7.6812,7.7693,7.8463,8.0498,8.1672,8.2186,8.2186,8.2553,8.3161,8.3985,8.4425,8.4792,0.0,0.0,0.0,0.0,0.0,4.4957,4.5773,4.5883,4.5883,0.0,0.0,0.0,4.6351,4.6985,4.7131,4.6461,4.6728,4.6617,4.5957,4.6214,4.6388,4.6388,4.7159,4.759,4.759,4.8076,4.8296,4.8296,4.8296,4.8563,4.9087,4.9417,5.0261,5.1499,5.184,5.2711,5.3995,5.5611,5.6492,5.6847,5.7666,5.7997,5.818,5.9942,6.0823,6.1484,6.442,6.491,6.436,6.5962,6.6402,6.6806,6.9706,7.1248,7.2224,7.3377,7.4588,7.5689,7.6019,7.6665,7.7289,7.7289,0.0,0.0,7.7949,7.8075,7.8295,7.914,7.9302,7.9412,7.9743,7.9816,7.9816,7.9816,7.991,7.9984,7.9984,7.9176,7.8626,7.8736,7.8332,7.8259,7.8699,7.8332,7.7928,7.7598,7.6644,7.5946,7.5616,7.5285,7.5249,7.5579,7.5285,7.5249,7.5616,7.5124,7.4903,7.4903,7.4551,7.4404,7.4404,7.4059,7.4059,7.4441,7.5395,7.6371,7.7436,7.9234,8.0681,8.1746,8.2076,8.248,8.2994,8.3801,8.4095,8.4335,0.0,0.0,4.391,4.47,4.492,4.525,4.603,4.6177,4.6177,0.0,4.625,4.6617,4.7406,4.8783,4.9077,4.7626,4.8076,4.7829,4.6397,4.6902,4.7223,4.7223,4.7929,4.8343,4.8453,4.8333,4.8343,4.8453,4.8343,4.8296,4.8333,4.9087,4.9931,5.0839,5.1536,5.2344,5.3324,5.4924,5.6051,5.6884,5.7886,5.8364,5.8621,5.9416,6.0187,6.1117,6.3503,6.436,6.4617,6.6219,6.7357,6.8458,7.061,7.1344,7.1711,7.3156,7.4184,7.505,7.5763,7.6628,7.7289,7.7179,7.7179,0.0,7.7069,7.7032,7.7252,7.8038,7.8185,7.8442,7.9229,7.9412,7.9412,7.9522,7.8919,7.8479,7.8589,7.8516,7.8185,7.7399,7.7289,7.7289,7.7289,7.7215,7.6885,7.6166,7.5946,7.5469,7.4683,7.4037,7.4037,7.472,7.4074,7.4037,7.4757,7.4683,7.461,7.461,7.3927,7.356,7.3523,7.2826,7.2899,7.356,7.367,7.4955,7.7105,7.8075,7.947,8.1085,8.1893,8.2186,8.2296,8.3087,8.3344,8.3491,0.0,4.4011,4.4709,4.5516,4.6205,4.6902,4.7709,4.7829,4.7829,4.7829,4.8426,4.9197,4.9994,5.0362,5.0435,5.0095,4.9627,4.9197,4.8913,4.8379,4.8076,4.8076,4.8223,4.8636,4.9344,4.8673,4.8636,4.9344,4.8636,4.8296,4.8296,4.8489,4.937,5.0802,5.0949,5.183,5.3324,5.4924,5.6051,5.6994,5.9098,6.0701,6.1949,6.2805,6.3246,6.3625,6.5375,6.6035,6.6292,6.7907,6.9412,7.0683,7.116,7.1747,7.2349,7.2642,7.3766,7.494,7.5087,7.6188,7.7142,7.6497,7.635,0.0,7.5527,7.538,7.5417,7.5601,7.5601,7.5858,7.668,7.6827,7.7047,7.7693,7.7656,7.7803,7.8516,7.8002,7.7509,7.7326,7.7289,7.7289,7.7289,7.6702,7.6276,7.6093,7.4882,7.3817,7.301,7.3413,7.378,7.3927,7.3795,7.3795,7.3927,7.3303,7.2973,7.2973,7.2826,7.2716,7.2716,7.2569,7.2606,7.2789,7.3413,7.4331,7.5491,7.6959,7.8904,8.1085,8.1893,8.2186,8.2296,8.3087,8.2994,8.2663,4.4011,4.4415,4.5067,4.6278,4.6819,4.7369,4.8186,4.8673,4.894,4.894,5.0372,5.1536,5.193,5.2711,5.2858,5.2076,5.1646,0.0,0.0,4.9774,4.9554,4.9554,4.9554,4.9738,5.0188,4.938,4.916,4.961,4.871,4.8296,4.8296,4.8296,4.9177,5.0802,5.0802,5.1673,5.3324,5.4924,5.6319,5.7556,5.9612,6.1117,6.2291,6.3135,6.3723,6.4323,6.5925,6.7283,6.8421,6.9229,7.0279,7.1454,7.2239,7.2789,7.3193,7.3597,7.4536,7.5506,7.5506,7.6078,7.6592,7.6203,7.5799,0.0,0.0,7.4903,7.4903,7.4903,7.4903,7.5014,7.5417,7.5506,7.5637,7.6041,7.6114,7.6261,7.668,7.7069,7.7289,7.7289,7.7289,7.7142,7.6738,7.635,7.5763,7.4955,7.378,7.3083,7.3083,7.3083,7.3303,7.367,7.3303,7.3083,7.3083,7.2716,7.2496,7.2496,7.2496,7.2496,7.2496,7.2496,7.2496,7.2532,7.2936,7.378,7.4977,7.6188,7.8148,8.0461,8.1305,8.1856,8.226,8.2663,8.2553,8.237,4.4553,4.481,4.5397,4.6856,4.7223,4.7562,4.8186,4.905,4.9757,5.0225,5.227,5.3765,5.4095,5.5574,5.5941,5.4499,5.4058,5.3214,5.161,5.1206,5.0949,5.0802,5.0802,5.0875,5.1022,5.0225,4.9821,4.9821,4.8967,4.8453,4.8296,4.8489,4.937,5.0802,5.0949,5.194,5.3544,5.4997,5.6539,5.8143,5.9758,6.097,6.1887,6.2536,6.3539,6.4763,6.6366,6.8421,7.0293,7.0146,7.0844,7.1967,7.3303,7.3832,7.4037,7.4515,7.5249,7.5836,7.5689,7.5763,7.5836,7.5689,7.5139,7.461,0.0,0.0,0.0,7.4426,7.4426,7.45,7.4647,7.4661,7.472,7.4867,7.4903,7.4903,7.4903,7.6004,7.6848,7.6848,7.6848,7.6592,7.5946,7.5726,7.5028,7.356,7.2863,7.2716,7.3193,7.2789,7.2716,7.323,7.2753,7.2496,7.2496,7.2496,7.2496,7.2496,7.2496,7.2496,7.2496,7.2496,7.2496,7.2496,7.2496,7.334,7.472,7.5542,7.7231,7.9433,8.0571,8.1489,8.2186,8.2186,8.2186,8.2296,4.4663,4.5259,4.6067,4.6929,4.7709,4.8186,4.8296,4.905,5.0372,5.2517,5.4252,5.5879,5.7299,5.8877,5.949,5.8609,5.7214,5.571,5.4106,5.2648,5.1536,5.0839,5.0802,5.1132,5.184,5.1059,5.0655,5.0655,4.9858,4.905,4.8333,4.9087,4.9931,5.0839,5.1536,5.2747,5.4326,5.5218,5.6539,5.8143,5.9758,6.1288,6.2683,6.2756,6.4224,6.6439,6.8054,6.9729,7.105,7.033,7.1578,7.345,7.3648,7.4184,7.4647,7.4001,7.4404,7.4867,7.4147,7.4478,7.4882,7.4147,7.3891,7.3634,7.2936,0.0,7.2789,7.2789,0.0,7.2973,7.3707,0.0,0.0,7.4793,7.4903,7.4903,7.4903,7.505,7.516,7.516,7.516,7.5124,7.505,7.4404,7.3597,7.2716,7.2569,7.2239,7.16,7.2151,7.2224,7.16,7.2202,7.2496,7.2496,7.2496,7.2496,7.2496,7.2496,7.2496,7.2496,7.2496,7.2496,7.2496,7.2496,7.301,7.3891,7.4698,7.6041,7.7803,8.0131,8.1489,8.2186,8.2186,8.2186,8.2223,4.5406,4.6021,4.6865,4.7672,4.8076,4.8489,4.8976,5.0545,5.2234,5.3702,5.5684,5.7604,5.9208,6.0811,6.1655,6.1325,6.0236,5.8914,5.7288,5.5684,5.4436,5.3628,5.3151,5.2821,5.2711,5.1903,5.1499,5.1499,5.0225,4.9417,4.905,4.9417,5.0041,5.0839,5.1646,5.2894,5.4473,5.5757,5.6969,5.8143,5.9758,6.108,6.2144,6.2609,6.464,6.7407,6.9009,7.0316,7.1197,7.0367,7.1394,7.3156,7.4111,7.461,7.494,7.5065,7.4992,7.483,7.4478,7.4294,7.4111,7.378,7.334,7.2936,7.2569,0.0,7.2496,7.2496,0.0,0.0,0.0,0.0,0.0,0.0,7.3509,7.3509,7.3509,7.3105,7.3325,7.472,7.4903,7.4536,7.3597,7.2789,7.1982,7.1174,7.1101,7.0954,7.0624,7.0917,7.1174,7.1307,7.1637,7.2041,7.2496,7.2496,7.2496,7.2496,7.2496,7.2496,7.2496,7.2496,7.2496,7.2496,7.2496,7.2973,7.3744,7.4588,7.5858,7.7509,7.9507,8.0791,8.1562,8.2039,8.2186,8.2186,4.6507,4.6865,4.7333,4.815,4.8489,4.9077,5.0408,5.2454,5.4289,5.5537,5.8217,6.0529,6.1924,6.3894,6.4958,6.4517,6.3723,6.2511,6.0664,5.8792,5.7336,5.6319,5.55,5.4583,5.3544,5.2968,5.2428,5.1987,5.0812,5.0151,4.9931,5.0151,5.0555,5.1169,5.1977,5.3225,5.4803,5.5978,5.7189,5.8437,5.9832,6.1153,6.2401,6.3686,6.5778,6.8214,6.9596,7.0624,7.1197,7.0367,7.1174,7.2753,7.4147,7.472,7.4977,7.5322,7.5028,7.45,7.428,7.3817,7.3377,7.3377,7.2936,0.0,0.0,0.0,0.0,7.2496,7.2496,0.0,0.0,0.0,7.2422,7.2202,0.0,7.2092,7.1872,7.1344,7.1711,7.3692,7.3729,7.312,7.1945,7.1307,7.0734,7.0146,7.011,7.0,6.9779,6.9963,7.0257,7.0646,7.1087,7.1564,7.2165,7.2386,7.2496,7.2496,7.2496,7.2496,7.2496,7.2496,7.2496,7.2496,7.2496,7.2826,7.345,7.4478,7.5601,7.6848,7.8736,7.9947,8.0791,8.1819,8.2186,8.2186,4.8076,4.7636,4.7333,4.815,4.9013,5.0372,5.2737,5.4473,5.6381,5.8756,6.2572,6.5362,6.6219,6.9142,7.0389,6.8848,6.7981,6.6489,6.4103,6.1667,5.9575,5.7997,5.7152,5.5978,5.4399,5.4326,5.3555,5.1987,5.195,5.1499,5.0765,5.1583,5.195,5.1987,5.281,5.4069,5.5548,5.5622,5.7005,5.9233,6.0077,6.1851,6.4286,6.6636,6.8091,6.8972,6.9816,7.0624,7.1197,7.0367,7.1174,0.0,0.0,7.4258,7.4757,7.4001,7.3758,7.356,7.2789,7.2569,7.2532,7.2532,0.0,0.0,0.0,0.0,7.2496,0.0,0.0,0.0,7.2496,7.2496,0.0,0.0,7.1344,0.0,0.0,7.0146,7.0477,7.1307,7.0734,7.022,7.0183,7.0146,7.011,7.011,7.011,6.9743,6.8958,6.9669,6.9743,6.8995,7.0499,7.1307,7.1344,7.2114,7.2496,7.2496,7.2496,7.2496,7.2496,7.2496,7.2496,7.2496,7.2496,7.2496,7.2679,7.4243,7.494,7.5197,7.7671,7.914,8.0036,8.1615,8.2186,8.2186,4.9911,4.9728,4.9618,4.9921,5.0215,5.1022,5.292,5.593,5.8462,5.982,6.4016,6.7393,6.8752,7.0807,7.1872,7.1321,7.055,6.9045,6.6636,6.4213,6.2108,6.0456,5.8584,5.7079,5.6014,5.495,5.4142,5.3592,5.2527,5.1877,5.161,5.1877,5.1987,5.2024,5.2847,5.4106,5.5622,5.6161,5.7813,6.0114,6.1435,6.316,6.5118,6.6966,6.8201,6.8995,6.9816,7.0257,7.0367,6.9596,7.0036,7.1064,7.1872,7.2298,7.2445,7.2188,7.2114,7.1945,0.0,0.0,7.1711,7.1711,0.0,0.0,0.0,0.0,0.0,0.0,0.0,0.0,0.0,7.2041,7.1637,0.0,7.083,7.0403,0.0,6.9633,6.9229,6.8935,6.9633,6.9889,6.9376,6.9302,6.9082,6.8545,6.8508,6.8398,6.8141,6.8348,6.8641,6.8885,6.9435,6.9949,7.0513,7.077,7.1174,7.1711,7.1711,7.1967,7.2496,7.2496,7.2496,7.2496,7.2496,7.2496,7.2569,7.367,7.4441,7.5087,7.6995,7.8259,7.9176,8.0791,8.1746,8.2186,5.2013,5.161,5.1132,5.0839,5.1269,5.2186,5.3812,5.7691,6.0884,6.1985,6.6623,7.0234,7.1248,7.3083,7.3839,7.301,7.2459,7.1138,6.8728,6.6562,6.4506,6.2561,6.0713,5.8951,5.7251,5.6198,5.5244,5.4399,5.3371,5.2711,5.2417,5.2417,5.2417,5.2454,5.2957,5.4106,5.5622,5.6161,5.7923,6.0603,6.2793,6.4664,6.6329,6.7944,6.8678,6.8995,6.9816,7.011,6.9963,6.9192,6.9229,6.9816,7.0624,7.0866,7.0866,7.0866,7.0866,7.0756,7.022,7.0477,0.0,7.0866,7.1087,0.0,7.1967,0.0,7.2496,0.0,0.0,0.0,0.0,0.0,7.1123,7.0536,0.0,6.9559,0.0,6.8568,6.7944,6.7737,6.8618,6.9045,6.8531,6.8201,6.7834,6.7297,6.699,6.6843,6.6843,6.71,6.7504,6.8017,6.8591,6.9155,6.9669,6.9963,7.0367,7.0881,7.116,7.1564,7.2078,7.2386,7.2496,7.2496,7.2496,7.2496,7.2569,7.3377,7.4184,7.5014,7.6371,7.7598,7.8772,8.0424,8.1525,8.2186,5.4179,5.3151,5.1877,5.1096,5.2297,5.3911,5.5548,5.9869,6.3563,6.5251,7.0293,7.378,7.3832,7.5894,7.6335,7.3964,7.3758,7.2716,7.0257,6.8618,6.6709,6.4323,6.3319,6.1361,5.829,5.8107,5.6932,5.4583,5.4509,5.4069,5.3251,5.3214,5.3214,5.3214,5.3214,5.4069,5.5548,5.5585,5.7446,6.0676,6.382,6.6072,6.77,6.9339,6.9522,6.8972,6.9816,7.011,6.9963,6.9119,6.8848,6.8972,6.9706,6.9926,6.9926,6.9926,6.9963,6.9963,6.9963,7.0,7.0036,7.0036,7.066,0.0,0.0,0.0,7.2496,0.0,0.0,0.0,0.0,0.0,0.0,6.9142,0.0,6.8495,6.77,6.6916,6.6733,6.748,6.759,6.759,6.7627,6.6916,6.6439,6.6439,6.5742,6.5288,6.5288,6.6035,6.6439,6.6439,6.7981,6.8775,6.8775,6.9596,7.0,7.0036,7.0866,7.127,7.1344,7.2114,7.2496,7.2496,7.2496,7.2496,7.2569,7.334,7.4147,7.4977,7.5726,7.7084,7.8772,8.0351,8.1452,8.215,5.3471,5.3665,5.3702,5.3518,5.4792,5.6407,5.8022,6.2438,6.6145,6.7747,7.1821,7.4808,7.5432,7.6555,7.6555,7.4757,7.4588,7.3303,7.0293,6.9155,6.7797,6.5962,6.3894,6.2426,6.1582,5.982,5.8279,5.7079,5.5879,5.4876,5.4069,5.3471,5.3214,5.3214,5.3214,5.3765,5.473,5.5365,5.7446,6.0529,6.1961,6.3539,6.5277,6.748,6.8178,6.8201,6.961,7.011,6.9889,6.8471,6.8031,6.7944,6.754,6.743,6.743,6.743,6.7847,6.8325,6.8325,6.8752,6.9229,6.9229,6.9816,7.055,0.0,0.0,0.0,0.0,0.0,0.0,0.0,0.0,0.0,6.8958,6.7907,6.6843,6.6035,6.5729,6.5692,6.5888,6.5925,6.6145,6.6733,6.6072,6.5632,6.5632,6.5398,6.5288,6.5288,6.5508,6.5632,6.5632,6.6586,6.7136,6.7136,6.7907,6.8605,6.9229,7.0036,7.0734,7.1344,7.2114,7.2496,7.2496,7.2496,7.2496,7.2532,7.2716,7.3634,7.4903,7.5124,7.6607,7.8699,7.9727,8.0608,8.1305,5.5317,5.5097,5.5155,5.5945,5.8015,5.9584,5.9722,6.3576,6.732,6.9655,7.3142,7.5711,7.6518,7.7362,7.7069,7.505,7.4903,7.3692,7.0807,6.9889,6.8715,6.71,6.5338,6.3894,6.2829,6.1471,6.004,5.8499,5.6895,5.5721,5.4913,5.3728,5.3214,5.3214,5.3214,5.3654,5.4509,5.6014,5.7886,6.004,6.1924,6.3699,0.0,6.7847,6.8985,6.9339,6.9889,6.9853,6.9339,6.7724,6.7187,6.7026,6.6219,6.5999,6.5999,6.5999,6.6292,6.6659,6.6659,6.7247,6.7871,6.7871,6.8972,7.0146,7.0243,7.116,7.1872,0.0,7.1101,7.0683,0.0,0.0,0.0,6.7981,6.6806,6.5815,6.5362,6.5007,6.4897,6.5251,6.4664,6.4517,6.5375,6.5044,6.4787,6.4787,6.4407,6.4224,6.4224,6.4567,6.4787,6.4787,6.5888,6.6512,6.6512,6.7297,6.7921,6.8385,6.9559,7.033,7.0793,7.1982,7.2496,7.2496,7.2496,7.2496,7.2496,7.2496,7.323,7.4441,7.5139,7.6497,7.8112,7.8552,7.947,8.0534,5.7749,5.6683,5.6312,5.7954,6.1036,6.2879,6.1617,6.4765,6.8375,7.1262,7.4147,7.624,7.7069,7.7818,7.7378,7.5087,7.4903,7.3876,7.1454,7.066,6.9522,6.7921,6.71,6.5595,6.3343,6.3086,6.1875,5.9673,5.7838,5.6565,5.5732,5.3995,5.3214,5.3214,5.3214,5.3691,5.4693,5.7005,5.8547,5.9636,6.2915,6.5228,6.688,6.9082,7.044,7.105,7.033,6.9596,6.8628,6.7026,6.6512,6.6366,6.5545,6.5288,6.5325,6.5435,6.5472,6.5472,6.5472,6.6035,6.6623,6.6512,6.8238,6.9743,6.9082,7.0059,7.094,7.022,7.0,6.9743,6.9045,0.0,0.0,6.6586,6.5668,6.5105,6.4995,6.4383,6.42,6.4884,6.3673,0.0,6.3699,6.3882,6.3882,6.3772,6.3172,6.2756,6.2646,6.3466,6.3906,6.3906,6.5411,6.6219,6.6329,6.715,6.759,6.7737,6.9353,7.011,7.0146,7.1762,7.2496,7.2496,7.2496,7.2496,7.2496,7.2496,7.3046,7.4001,7.5506,7.6607,7.7289,7.7289,7.8222,7.9596,5.6409,5.6528,5.7118,5.8269,6.1664,6.4844,6.663,6.959,7.2078,7.3343,7.4441,7.5417,7.624,7.646,7.6093,7.5014,7.4903,7.3876,7.1454,7.116,7.0353,6.8752,6.7907,6.6966,6.5888,6.453,6.3319,6.2169,5.9245,5.7373,5.6528,5.4242,5.3214,5.3214,5.3214,5.4032,5.5511,5.7274,5.8841,6.0493,6.3759,6.6035,6.7627,6.8715,6.9596,7.0293,7.0146,6.9596,6.8628,6.7026,6.6512,6.6366,6.5545,6.5288,6.5435,6.6109,6.6292,6.6292,6.6292,6.688,6.7333,6.6659,6.7834,6.9082,6.8921,6.9633,7.0257,7.011,6.9559,6.9082,6.8921,0.0,0.0,0.0,0.0,0.0,0.0,6.3123,6.3086,6.3233,6.2976,6.2609,6.2071,6.2658,6.2756,6.2071,6.2511,6.2499,6.1851,6.2585,6.3013,6.3013,6.4016,6.4824,6.5508,6.6329,6.7026,6.7737,6.9353,7.011,7.0146,7.1762,7.2496,7.2496,7.2496,7.2496,7.2496,7.2496,7.3377,7.4771,7.5726,7.6607,7.7289,7.7289,7.7509,7.7839,5.8577,5.9005,5.9919,6.0951,6.4167,6.7543,7.0485,7.3087,7.4835,7.5205,7.5426,7.5689,7.6056,7.6481,7.6225,7.5014,7.527,7.4698,7.2679,7.2165,7.138,7.0206,6.8972,6.7944,6.715,6.5962,6.4714,6.3466,6.1043,5.9024,5.7409,5.6235,5.4792,5.3214,5.3214,5.4546,5.6907,5.7666,5.9685,6.2475,6.4481,6.6256,6.7811,6.8605,6.9412,7.011,7.011,6.9596,6.8715,6.7504,6.6843,6.6366,6.5545,6.5288,6.5362,6.5778,6.5888,6.5888,6.5888,6.6476,6.699,6.6586,6.7724,6.8788,6.8385,6.8898,6.9376,6.8949,6.8531,6.8164,6.7724,6.6329,0.0,0.0,0.0,0.0,0.0,6.2793,6.2646,6.2218,6.2181,6.1851,6.1043,6.1337,6.1398,6.1006,6.1337,6.141,6.1006,6.1741,6.2181,6.2181,6.3429,6.4494,6.5288,6.6109,6.688,6.7737,6.9353,7.011,7.0146,7.1762,7.2496,7.2496,7.2496,7.2496,7.2496,7.2496,7.3435,7.494,7.5322,7.6225,7.7289,7.7289,7.7289,7.7436,6.156,6.1985,6.2949,6.4048,6.7063,7.0252,7.299,7.5245,7.647,7.6177,7.5978,7.5836,7.5836,7.6408,7.6335,7.5234,7.5726,7.5506,7.4037,7.3193,7.2422,7.16,7.0022,6.8788,6.7958,6.699,6.5888,6.4617,6.2597,6.0456,5.8253,5.807,5.6638,5.4242,5.4388,5.5967,5.8547,5.9061,6.1263,6.442,6.5411,6.6769,6.8251,6.8715,6.9522,7.0367,7.0367,6.9743,6.8825,6.8361,6.743,6.6402,6.5742,6.5545,6.5582,6.5778,6.5815,6.5765,6.5582,6.6145,6.6696,6.6549,6.7577,6.8421,6.7627,6.7944,6.8164,6.7357,6.7187,6.699,6.6366,6.5081,0.0,0.0,0.0,0.0,0.0,6.2646,6.2316,6.1679,6.1447,6.097,5.9979,5.9905,5.9758,5.9428,6.0015,6.0334,6.015,6.0896,6.141,6.1594,6.2891,6.4053,6.5044,6.5852,6.6659,6.748,6.9242,7.011,7.0146,7.1762,7.2496,7.2496,7.2496,7.2496,7.2496,7.2496,7.3435,7.4903,7.4903,7.5894,7.7289,7.7289,7.7289,7.7399,6.3584,6.4067,6.4904,6.6132,6.9553,7.2422,7.3353,7.5263,7.6286,7.544,7.5117,7.5014,7.5014,7.5087,7.5344,7.5946,7.6056,7.5726,7.483,7.4037,7.323,7.2422,7.0844,6.9596,6.8825,6.7283,6.6439,6.6292,6.3148,6.075,5.9086,5.8327,5.785,5.7593,5.8315,5.9196,0.0,6.2548,6.4163,6.5325,6.6843,6.8435,6.9779,6.9155,6.9839,7.1197,7.1197,7.0206,6.9009,6.9633,6.8348,6.6476,6.6402,6.6402,6.6512,6.726,6.748,6.7333,6.6586,6.6953,6.7407,6.6659,6.7173,6.759,6.6806,6.6659,6.6512,6.5692,6.5508,6.5508,6.5435,6.4677,6.4103,0.0,0.0,0.0,0.0,6.2181,6.1667,6.1606,6.097,5.9905,5.8364,5.8217,5.7629,5.6172,5.8731,6.0077,5.9343,6.0077,6.086,6.1569,6.1753,6.2597,6.4213,6.5007,6.5815,6.6623,6.8972,7.011,7.0146,7.1762,7.2496,7.2496,7.2496,7.2496,7.2496,7.2496,7.3435,7.4903,7.4903,7.5894,7.7289,7.7289,7.7289,7.7326,6.6112,6.6951,6.805,6.8593,7.0753,7.2919,7.4521,7.5726,7.6302,7.5809,7.5661,7.5616,7.5616,7.6041,7.6078,7.5432,7.5836,7.5542,7.4258,7.4331,7.3854,7.2569,7.1872,7.0954,6.9633,6.8531,6.7467,6.6512,6.5191,6.2732,5.9196,5.9869,5.9648,5.8756,5.9563,6.0933,6.2695,6.3699,6.5131,6.6843,6.7981,6.9082,7.0073,6.9743,7.0624,7.1967,7.1454,7.0573,6.9669,7.0,6.8825,6.7223,6.7223,6.7223,6.7297,6.7627,6.77,6.7627,6.7297,6.748,6.7627,6.7297,6.748,6.748,6.6659,6.6512,6.6256,6.5472,6.4934,6.4567,6.4567,6.3906,6.3319,6.3319,0.0,0.0,0.0,0.0,6.141,6.0933,5.9758,5.851,5.7409,5.6822,5.6282,5.5658,5.6796,5.7593,5.7765,5.851,5.9318,6.0114,6.108,6.2144,6.3319,6.4628,6.5705,6.6512,6.8935,7.011,7.0146,7.1762,7.2496,7.2496,7.2496,7.2496,7.2496,7.2496,7.3435,7.4903,7.4903,7.5894,7.7289,7.7289,7.7289,7.7289,6.8325,6.9329,7.0433,7.074,7.2236,7.3846,7.5306,7.6013,7.6324,7.6108,7.5909,7.5836,7.6056,7.6408,7.6225,7.5307,7.5579,7.5249,7.4111,7.4573,7.428,7.2899,7.2642,7.1872,7.0477,6.9449,6.8348,6.721,6.6733,6.4494,6.0664,6.1557,6.163,0.0,6.1838,6.3172,6.4837,6.5057,6.6269,6.8091,6.8678,6.9669,7.077,7.055,7.1468,7.2753,7.1931,7.0991,7.011,7.011,6.9022,6.77,6.77,6.77,6.77,6.77,6.77,6.77,6.77,6.77,6.77,6.77,6.77,6.748,6.6659,6.6329,6.5852,6.4774,6.4127,6.3723,6.3723,6.3196,6.2793,6.2793,0.0,0.0,0.0,6.2108,6.119,6.015,5.8841,5.7483,5.6223,5.5574,5.5144,5.4913,5.4887,5.5354,5.6381,5.7226,5.8033,5.8829,6.0419,6.163,6.2426,6.4334,6.5582,6.6182,6.8825,7.011,7.0146,7.1762,7.2496,7.2496,7.2496,7.2496,7.2496,7.2496,7.3435,7.4903,7.4903,7.5894,7.7289,7.7289,7.7289,7.7289,6.9926,7.0819,7.151,7.232,7.4399,7.5804,7.5365,7.5918,7.6324,7.6108,7.5432,7.5197,7.6019,7.538,7.5234,7.6019,7.538,7.4903,7.4903,7.4903,7.4551,7.3707,7.2936,7.2129,7.1307,6.9729,6.8885,6.8848,6.7283,6.5668,6.4029,0.0,6.3673,6.5251,6.6072,6.6439,6.6512,6.7333,6.8128,6.8898,6.8885,7.0316,7.2386,7.16,7.2275,7.356,7.2789,7.1468,7.011,7.011,6.9022,6.77,6.77,6.77,6.77,6.77,6.77,6.77,6.77,6.77,6.77,6.77,6.77,6.748,6.6659,6.5888,6.4848,6.316,6.2829,6.2829,6.2829,6.2793,6.2793,6.2793,0.0,0.0,0.0,6.2108,0.0,5.9416,5.851,5.7042,5.4656,5.4436,5.4069,5.3287,5.3214,5.3922,5.5548,5.6381,0.0,5.7997,5.9575,0.0,6.1606,6.409,6.5288,6.5362,6.8568,7.011,7.0146,7.1762,7.2496,7.2496,7.2496,7.2496,7.2496,7.2496,7.3435,7.4903,7.4903,7.5894,7.7289,7.7289,7.7289,7.7289,6.9973,7.1164,7.2013,7.2187,7.3159,7.3992,7.4296,7.447,7.472,7.5212,7.505,7.5014,7.5234,7.505,7.4771,7.4478,7.4221,7.3854,7.3303,7.378,7.3964,7.3722,7.345,7.2936,7.2151,7.1087,7.0279,6.9706,0.0,0.0,0.0,6.4053,6.398,6.4567,6.6489,6.7614,6.8164,6.8421,6.8972,6.9816,7.0917,7.2129,7.3303,7.3046,7.3597,7.4258,7.2371,7.0991,7.0,6.9486,6.8568,6.77,6.77,6.77,6.77,6.77,6.77,6.77,6.77,6.77,6.77,6.77,6.77,6.748,6.6659,6.5448,6.4163,6.3013,6.2793,6.2793,6.2793,6.2793,6.2793,6.2793,6.2793,0.0,6.2793,0.0,5.9783,5.9269,5.7519,5.6062,5.5291,5.5218,5.5108,5.4851,5.484,5.5071,5.5585,5.5842,0.0,0.0,5.9013,0.0,6.0786,6.3246,6.4751,6.5325,6.8568,7.066,7.1762,7.2275,7.2496,7.2496,7.2496,7.2496,7.2496,7.2496,7.312,7.4147,7.4683,7.5527,7.6555,7.7105,7.7289,7.7289,7.0156,7.1168,7.1913,7.2327,7.2902,7.3397,7.3756,7.4022,7.4221,7.4441,7.4441,7.4331,7.4023,7.3986,7.3927,7.3707,7.3413,7.3046,7.2532,7.323,7.356,7.3266,7.3817,7.3634,7.2532,7.2004,7.1344,7.055,7.0257,6.9082,6.71,6.6586,6.6329,6.6416,6.7921,6.8862,6.9339,6.9339,6.9816,7.066,7.1637,7.2716,7.3685,7.334,7.3744,7.4184,7.2041,7.077,6.9963,6.9192,6.8385,6.77,6.77,6.77,6.77,6.77,6.77,6.77,6.77,6.77,6.77,6.77,6.77,6.748,6.6659,6.5485,6.431,6.3466,6.3013,6.2793,6.2793,6.2793,6.2793,6.2793,6.2793,6.2793,6.2793,0.0,5.9416,5.8829,5.7152,5.5794,5.5218,5.5438,5.5732,5.6014,5.6051,5.6308,5.6932,5.6675,5.7237,5.8841,5.9967,6.0958,6.1777,6.3906,6.5411,6.6256,6.9155,7.1248,7.2496,7.2496,7.2496,7.2496,7.2496,7.2496,7.2496,7.2496,7.2973,7.3758,7.4258,7.5139,7.6166,7.6665,7.7032,7.7289,7.0249,7.0797,7.1165,7.2418,7.3249,7.3683,7.3553,7.4221,7.4463,7.3707,7.3611,7.334,7.2569,7.2496,7.2789,7.345,7.2899,7.2496,7.2496,7.3193,7.3303,7.2606,7.3949,7.4059,7.2716,7.2569,7.2114,7.138,7.0587,7.0183,7.0183,7.011,7.011,7.011,7.011,7.0146,7.0257,7.0257,7.0734,7.1454,7.1527,7.2408,7.3611,7.2863,7.301,7.3413,7.1784,7.0697,6.9889,6.9082,6.8311,6.77,6.77,6.77,6.77,6.77,6.77,6.77,6.77,6.77,6.77,6.77,6.77,6.748,6.6659,6.5925,6.5141,6.4286,6.3466,6.2866,6.2793,6.2793,6.2793,6.2793,6.2793,6.2793,6.2793,6.1398,5.9832,5.8253,5.7373,0.0,5.4803,5.539,5.6172,5.6994,5.7031,5.7765,5.938,0.0,5.8988,6.0456,6.2059,6.3319,6.4176,6.5778,6.7026,6.7994,7.022,7.1711,7.2496,7.2496,7.2496,7.2496,7.2496,7.2496,7.2496,7.2496,7.2936,7.3611,7.3685,7.4661,7.6019,7.6093,7.6592,7.7289,6.7814,6.8926,6.9771,6.9968,7.1057,7.19,7.1872,7.2555,7.301,7.2826,7.2789,7.2716,7.2532,7.2496,7.2349,7.1894,7.2275,7.2496,7.2496,7.2679,7.2973,7.3377,7.3193,7.3435,7.4316,7.3105,7.2422,7.2224,7.1417,7.1013,7.1013,7.0403,7.011,7.011,7.011,7.077,7.1945,7.1945,7.2386,7.3193,7.3802,7.3927,7.3685,7.3487,7.3156,7.2569,7.0954,6.9889,6.9082,6.8238,6.7847,6.77,6.77,6.77,6.77,6.77,6.77,6.77,6.77,6.77,6.77,6.77,6.77,6.748,6.6659,6.6366,6.5815,6.4396,6.3956,6.3576,6.2903,6.2793,6.2793,6.2793,6.2793,6.2793,6.2793,6.1398,6.004,5.9013,5.8217,5.7556,5.7189,5.7886,5.8682,0.0,5.9538,6.026,6.1875,6.1765,6.1557,6.13,6.2915,6.42,6.5007,6.6623,6.8421,7.0463,7.1013,7.1711,7.2496,7.2496,7.2496,7.2496,7.2496,7.2496,7.2496,7.2496,7.2606,7.2863,7.345,7.4294,7.527,7.5873,7.6592,7.7289,6.6605,6.7847,6.8739,6.8961,6.9968,7.077,7.077,7.1138,7.1394,7.1394,7.1394,7.1394,7.1394,7.1394,7.1248,7.0807,7.1505,7.1798,7.1431,7.1762,7.2165,7.2569,7.2899,7.3303,7.378,7.3303,7.2863,7.2496,7.2041,7.1857,7.1821,7.1394,7.1211,7.1211,7.1211,7.1688,7.2496,7.2496,7.2753,7.3193,7.3634,7.3325,7.2606,7.2606,7.2092,7.1248,7.0,6.9265,6.8788,6.7958,6.77,6.77,6.77,6.77,6.77,6.77,6.77,6.77,6.77,6.77,6.77,6.77,6.77,6.759,6.7136,6.6769,6.6145,6.4897,6.4347,6.3833,6.2976,6.2793,6.2793,6.2793,6.2793,6.2793,6.2793,6.1398,6.0224,5.9783,5.9049,5.8535,5.8535,5.9269,6.0077,6.0896,6.0933,0.0,6.3319,6.3747,6.3906,6.3833,6.5094,6.6109,6.694,6.8531,6.9986,7.1307,7.1674,7.2078,7.2496,7.2496,7.2496,7.2496,7.2496,7.2496,7.2496,7.2496,7.2496,7.2532,7.2973,7.3891,7.494,7.5395,7.6298,7.7289,6.569,6.6769,6.7539,6.8251,6.9009,6.9596,6.9706,6.9853,6.9963,7.0073,7.011,7.011,7.011,7.011,7.0036,6.9926,7.0536,7.0683,7.0146,7.072,7.1123,7.1123,7.2422,7.2899,7.2349,7.312,7.3193,7.2496,7.2496,7.2496,7.2496,7.2496,7.2496,7.2496,7.2496,7.2569,7.2679,7.2569,7.2496,7.2496,7.2386,7.1821,7.1123,7.1123,7.0624,6.9816,6.9155,6.8811,6.8605,6.7921,6.77,6.77,6.77,6.77,6.77,6.77,6.77,6.77,6.77,6.77,6.77,6.77,6.77,6.77,6.77,6.7187,6.6402,6.5472,6.4751,6.398,6.2976,6.2793,6.2793,6.2793,6.2609,6.2536,6.2756,0.0,6.0456,6.0566,5.9967,5.9563,5.9563,6.0187,6.0896,6.1704,6.1777,6.2511,6.4213,6.4934,6.5742,6.6659,6.759,6.8495,6.9449,7.0793,7.149,7.149,7.2165,7.2496,7.2496,7.2496,7.2496,7.2496,7.2496,7.2496,7.2496,7.2496,7.2496,7.2496,7.2496,7.3472,7.4903,7.4903,7.5931,7.7289,6.3197,6.4091,6.4936,6.5705,6.6512,6.7283,6.7958,6.8641,6.9339,7.0,7.011,7.011,7.011,7.011,6.9816,6.9155,6.9178,6.9522,7.0073,7.022,7.0293,7.0293,7.0513,7.0917,7.1454,7.2275,7.2642,7.2496,7.2496,7.2496,7.2496,7.2496,7.2496,7.2496,7.2496,7.2899,7.345,7.2789,7.2496,7.2459,7.1747,7.0977,7.0293,7.0293,6.9779,6.9082,6.8935,6.8458,6.7884,6.7737,6.77,6.77,6.77,6.77,6.77,6.77,6.77,6.77,6.77,6.77,6.77,6.77,6.77,6.77,6.77,6.759,6.71,6.5632,6.5178,6.4628,6.3086,6.2793,6.2793,6.2793,6.1655,6.1251,6.2609,0.0,6.0639,6.1337,6.13,6.1227,6.1227,6.1337,6.1741,6.2536,6.2609,6.3343,6.5031,6.5215,6.5999,6.748,6.8949,7.044,7.1945,7.2202,7.2312,7.2312,7.2459,7.2496,7.2496,7.2496,7.2496,7.2496,7.2496,7.2496,7.2496,7.2496,7.2496,7.2496,7.2496,7.3472,7.4903,7.4903,7.5931,7.7289,6.1251,6.2536,6.3539,6.3894,6.4995,6.5999,6.6366,6.6733,6.7086,6.7467,6.7504,6.7504,6.7504,6.7504,6.7357,6.6976,6.694,6.7136,6.7504,6.8715,6.9449,6.9449,6.9853,7.0257,7.066,7.1027,7.1211,7.1211,7.1211,7.1211,7.1211,7.1211,7.1211,7.1211,7.1211,7.1394,7.1725,7.1358,7.1211,7.1174,7.0807,7.0183,6.9449,6.9449,6.8935,6.8238,6.8238,6.8031,6.77,6.77,6.77,6.77,6.77,6.77,6.77,6.77,6.77,6.77,6.77,6.77,6.77,6.77,6.77,6.77,6.77,6.77,6.737,6.6182,6.5582,6.4921,6.3723,6.3123,6.2793,6.2793,6.2169,6.1949,6.2683,6.2169,6.1838,6.2218,6.2254,6.2254,6.2254,6.2254,6.2401,6.2756,6.2793,6.3527,6.5215,6.5288,6.6242,6.8274,6.9486,7.0881,7.2496,7.2496,7.2496,7.2496,7.2496,7.2496,7.2496,7.2496,7.2496,7.2496,7.2496,7.2496,7.2496,7.2496,7.2496,7.2496,7.2496,7.323,7.4294,7.472,7.5637,7.6702,5.9575,6.0994,6.2022,6.2205,6.3306,6.4297,6.4664,6.4701,6.4848,6.5251,6.5288,6.5288,6.5288,6.5288,6.5288,6.5288,6.5288,6.5288,6.5288,6.7013,6.8041,6.8041,6.8641,6.9082,6.9265,6.9265,6.9339,6.9522,6.9522,6.9522,6.9522,6.9522,6.9522,6.9522,6.9522,6.9522,6.9522,6.9339,6.9265,6.9229,6.9045,6.8715,6.8348,6.8348,6.8054,6.77,6.77,6.77,6.77,6.77,6.77,6.77,6.77,6.77,6.77,6.77,6.77,6.77,6.77,6.77,6.77,6.77,6.77,6.77,6.77,6.77,6.748,6.6659,6.5852,6.5031,6.4249,6.3392,6.2793,6.2793,0.0,6.2352,6.2756,6.2646,6.2683,6.305,6.327,6.338,6.338,6.338,6.338,6.338,6.338,6.4004,6.5521,6.5582,6.6696,6.9119,6.9963,7.1064,7.2496,7.2496,7.2496,7.2496,7.2496,7.2496,7.2496,7.2496,7.2496,7.2496,7.2496,7.2496,7.2496,7.2496,7.2496,7.2496,7.2496,7.2973,7.378,7.4404,7.5249,7.6203,5.7997,5.8866,5.971,6.0456,6.0676,6.1251,6.2756,6.2976,6.3527,6.5105,6.5288,6.5288,6.5288,6.5288,6.5288,6.5288,6.5288,6.5288,6.5288,6.5472,6.5582,6.5582,6.5618,6.5999,6.6733,6.6769,6.7136,6.7884,6.7884,6.7884,6.7884,6.7884,6.7884,6.7884,6.7884,6.7884,6.7847,6.7063,6.6769,6.6696,6.5949,6.6072,6.6696,6.6696,6.71,6.77,6.77,6.77,6.77,6.77,6.77,6.77,6.77,6.77,6.77,6.77,6.77,6.77,6.77,6.77,6.77,6.77,6.77,6.77,6.77,6.77,6.748,6.6659,6.5852,6.5031,6.4249,6.3392,6.2793,6.2793,0.0,0.0,6.2572,6.2144,6.2267,6.3809,6.4677,6.5105,6.5105,6.5105,6.5105,6.5105,6.5105,6.5472,6.6366,6.6402,6.7504,6.9926,7.0793,7.1637,7.2496,7.2496,7.2496,7.2496,7.2496,7.2496,7.2496,7.2496,7.2496,7.2496,7.2496,7.2496,7.2496,7.2496,7.2496,7.2496,7.2496,7.2973,7.3722,7.378,7.4771,7.6093,5.6356,5.7556,5.8547,5.8841,5.9758,6.0591,6.1215,6.1288,6.1741,6.2842,6.3025,6.3209,6.371,6.3747,6.3747,6.3747,6.3747,6.3747,6.3747,6.3747,6.4224,6.5251,6.5288,6.5435,6.5742,6.5778,6.5925,6.6219,6.6219,6.6219,6.6219,6.6219,6.6219,6.6219,6.6219,6.6219,6.6182,6.5888,6.5778,6.5742,6.5398,6.5472,6.5778,6.5778,6.5962,6.6219,6.6219,6.6512,6.6966,6.6966,6.7297,6.77,6.77,6.77,6.77,6.77,6.77,6.77,6.77,6.77,6.77,6.77,6.77,6.77,6.77,6.77,6.7627,6.7297,6.6586,6.5815,6.5007,6.4163,6.3429,6.2903,0.0,6.2095,6.2719,6.2989,6.3405,6.4029,6.4824,6.5288,6.5288,6.5288,6.5288,6.5288,6.5288,6.5655,6.6476,6.7467,6.8641,7.0036,7.0866,7.1674,7.2496,7.2496,7.2496,7.2496,7.2496,7.2496,7.2496,7.2496,7.2496,7.2496,7.2496,7.2496,7.2496,7.2496,7.2496,7.2496,7.2496,7.2679,7.301,7.3523,7.4074,7.4661,5.5071,5.6319,5.7336,5.7593,5.8547,5.9453,5.993,6.0003,6.0297,6.1117,6.1227,6.1447,6.1985,6.2059,6.2059,6.2059,6.2279,6.2426,6.2426,6.2646,6.3306,6.4444,6.4517,6.4517,6.4517,6.4517,6.4517,6.4517,6.4517,6.4517,6.4517,6.4517,6.4517,6.4517,6.4517,6.4517,6.4517,6.4517,6.4517,6.4517,6.4517,6.4664,6.4934,6.4934,6.5068,6.5288,6.5288,6.5655,6.6109,6.6109,6.6476,6.6953,6.6953,6.71,6.737,6.7627,6.77,6.77,6.77,6.77,6.77,6.77,6.77,6.77,6.77,6.77,6.77,6.77,6.7063,6.6256,6.5435,6.464,6.3796,6.2939,6.2793,6.2903,6.3172,6.3943,6.4567,6.4837,6.5558,6.6035,6.6035,6.6035,6.6035,6.6035,6.6035,6.6292,6.6843,6.7907,6.9009,7.0073,7.066,7.1431,7.2496,7.2496,7.2496,7.2496,7.2496,7.2496,7.2496,7.2496,7.2496,7.2496,7.2496,7.2496,7.2496,7.2496,7.2496,7.2496,7.2496,7.2496,7.2569,7.312,7.3487,7.3795,5.4216,5.5034,5.5842,5.6638,5.6774,5.7324,5.8939,5.9196,5.949,6.026,6.037,6.037,6.0419,6.0419,6.0419,6.0419,6.1117,6.1594,6.1594,6.2352,6.2793,6.2793,6.2793,6.2793,6.2793,6.2793,6.2793,6.2793,6.2793,6.2793,6.2793,6.2793,6.2793,6.2793,6.2793,6.2793,6.2793,6.2793,6.2793,6.2793,6.2793,6.3319,6.4103,6.4103,6.4604,6.5288,6.5288,6.5288,6.5288,6.5288,6.5288,6.5288,6.5288,6.5852,6.6659,6.7444,6.77,6.77,6.77,6.77,6.77,6.77,6.77,6.77,6.77,6.77,6.77,6.77,6.7076,6.6256,6.5472,6.464,6.3833,6.2976,6.2829,6.3123,6.3992,6.4787,6.5632,6.6402,6.7223,6.77,6.77,6.77,6.77,6.77,6.77,6.77,6.77,6.77,6.8435,7.0036,7.011,7.0881,7.2496,7.2496,7.2496,7.2496,7.2496,7.2496,7.2496,7.2496,7.2496,7.2496,7.2496,7.2496,7.2496,7.2496,7.2496,7.2496,7.2496,7.2496,7.2496,7.2496,7.301,7.367,5.2564,5.3371,5.4179,5.4987,5.5574,5.6124,5.6602,5.7141,5.7802,5.8621,5.9196,5.9783,6.0346,6.0419,6.0419,6.0419,6.0639,6.075,6.075,6.152,6.1961,6.1961,6.2499,6.2793,6.2793,6.2793,6.2793,6.2793,6.2793,6.2793,6.2793,6.2793,6.2793,6.2793,6.2793,6.2793,6.2793,6.2793,6.2793,6.2793,6.2793,6.2976,6.3196,6.3196,6.3343,6.3563,6.3563,6.3943,6.4457,6.4457,6.4824,6.5288,6.5288,6.5472,6.5815,6.6623,6.6843,6.699,6.7554,6.77,6.77,6.77,6.77,6.77,6.77,6.77,6.77,6.77,6.7517,6.7113,6.6292,6.5962,6.5521,6.4701,6.4554,6.4664,6.4897,6.5632,6.6219,6.6476,6.7223,6.77,6.77,6.77,6.77,6.77,6.77,6.77,6.77,6.8238,6.9009,7.0073,7.066,7.1417,7.2496,7.2496,7.2496,7.2496,7.2496,7.2496,7.2496,7.2496,7.2496,7.2496,7.2496,7.2496,7.2496,7.2496,7.2496,7.2496,7.2496,7.2496,7.2496,7.2496,7.2642,7.2863,5.1363,5.216,5.2957,5.3775,5.4583,5.5218,5.5548,5.6014,5.6492,5.698,5.7728,5.8425,5.8902,5.9281,5.9465,5.9465,5.9747,6.004,6.0382,6.086,6.1117,6.1117,6.1582,6.2132,6.2793,6.2793,6.2793,6.2793,6.2793,6.2793,6.2793,6.2793,6.2793,6.2793,6.2793,6.2793,6.2793,6.2793,6.2793,6.2793,6.2793,6.2793,6.2793,6.2793,6.2793,6.2793,6.2793,6.3135,6.3576,6.3576,6.3906,6.4371,6.4714,6.4824,6.4971,6.5778,6.6035,6.6219,6.699,6.7223,6.7223,6.7223,6.748,6.77,6.77,6.77,6.77,6.77,6.77,6.7444,6.6659,6.6512,6.6256,6.5435,6.5288,6.5398,6.5742,6.6182,6.6623,6.6953,6.7407,6.77,6.77,6.77,6.77,6.77,6.77,6.77,6.77,6.8458,6.9265,7.0073,7.0866,7.1674,7.2496,7.2496,7.2496,7.2496,7.2496,7.2496,7.2496,7.2496,7.2496,7.2496,7.2496,7.2496,7.2496,7.2496,7.2496,7.2496,7.2496,7.2496,7.2496,7.2496,7.2496,7.2496,5.0545,5.1279,5.206,5.292,5.3702,5.4473,5.5254,5.5438,5.5475,5.5475,5.6198,5.6701,5.6701,5.7409,5.7886,5.7886,5.8646,5.9416,6.0126,6.026,6.0309,6.0309,6.037,6.1068,6.2536,6.2572,6.2572,6.2572,6.2572,6.2572,6.2572,6.2646,6.2683,6.2683,6.2756,6.2793,6.2793,6.2793,6.2793,6.2793,6.2793,6.2793,6.2793,6.2793,6.2793,6.2793,6.2793,6.2793,6.2793,6.2793,6.2793,6.2939,6.3723,6.3992,6.4127,6.4958,6.5178,6.5362,6.6182,6.6402,6.6402,6.6402,6.6953,6.748,6.748,6.748,6.7517,6.759,6.759,6.7407,6.6733,6.6623,6.6366,6.5618,6.5508,6.5765,6.6512,6.6623,6.688,6.7627,6.77,6.77,6.77,6.77,6.77,6.77,6.77,6.77,6.77,6.8531,6.9339,7.0073,7.094,7.1747,7.2496,7.2496,7.2496,7.2496,7.2496,7.2496,7.2496,7.2496,7.2496,7.2496,7.2496,7.2496,7.2496,7.2496,7.2496,7.2496,7.2496,7.2496,7.2496,7.2496,7.2496,7.2496,4.9674,5.0004,5.0555,5.2024,5.238,5.2784,5.3592,5.4252,5.4656,5.4656,5.5365,5.5879,5.5879,5.6565,5.7068,5.7068,5.7813,5.8327,5.851,5.9123,5.9453,5.9453,6.004,6.0566,6.0921,6.0921,6.0921,6.0921,6.0921,6.0921,6.0921,6.1557,6.1851,6.1887,6.2499,6.2793,6.2793,6.2793,6.2793,6.2793,6.2793,6.2793,6.2793,6.2793,6.2793,6.2793,6.2793,6.2793,6.2793,6.2793,6.2793,6.2829,6.3013,6.3086,6.3246,6.4127,6.4347,6.453,6.5338,6.5545,6.5545,6.5545,6.5692,6.5815,6.5815,6.5815,6.5999,6.6623,6.6769,6.688,6.737,6.7444,6.737,6.7223,6.7187,6.726,6.7407,6.7444,6.7517,6.7664,6.77,6.77,6.77,6.77,6.77,6.77,6.77,6.77,6.77,6.9045,6.9926,7.0073,7.1505,7.2312,7.2496,7.2496,7.2496,7.2496,7.2496,7.2496,7.2496,7.2496,7.2496,7.2496,7.2496,7.2496,7.2496,7.2496,7.2496,7.2496,7.2496,7.2496,7.2496,7.2496,7.2496,7.2496,4.8893,4.9307,4.9867,5.0665,5.1473,5.2134,5.2564,5.3287,5.3838,5.3838,5.4509,5.5034,5.5034,5.5757,5.6381,5.6774,5.7178,5.7593,5.796,5.84,5.8609,5.8609,5.9024,5.9245,5.9245,5.9245,5.9648,6.0419,6.0419,6.0419,6.0419,6.0823,6.1227,6.163,6.2034,6.2426,6.2793,6.2793,6.2793,6.2793,6.2793,6.2793,6.2793,6.2793,6.2793,6.2793,6.2793,6.2793,6.2793,6.2793,6.2793,6.2793,6.2793,6.2793,6.2903,6.3356,6.3466,6.3649,6.4494,6.4714,6.4714,6.4714,6.4714,6.4824,6.5215,6.5288,6.5398,6.5852,6.6219,6.6623,6.704,6.7444,6.77,6.77,6.77,6.77,6.77,6.77,6.77,6.77,6.77,6.77,6.77,6.77,6.77,6.77,6.77,6.77,6.77,6.8862,6.9706,7.0073,7.1284,7.2114,7.2496,7.2496,7.2496,7.2496,7.2496,7.2496,7.2496,7.2496,7.2496,7.2496,7.2496,7.2496,7.2496,7.2496,7.2496,7.2496,7.2496,7.2496,7.2496,7.2496,7.2496,7.2496,4.8296,4.8893,4.9417,4.949,5.0775,5.184,5.1987,5.2674,5.3214,5.3214,5.3775,5.4179,5.4179,5.4913,5.5732,5.6517,5.6701,5.7079,5.774,5.7923,5.7997,5.7997,5.7997,5.7997,5.7997,5.7997,5.8657,5.9979,5.9979,5.9979,5.9979,6.0126,6.0566,6.119,6.1484,6.1961,6.2609,6.2756,6.2793,6.2793,6.2793,6.2793,6.2793,6.2793,6.2793,6.2793,6.2793,6.2793,6.2793,6.2793,6.2793,6.2793,6.2793,6.2793,6.2793,6.2793,6.2793,6.2976,6.3686,6.3882,6.3882,6.3882,6.3882,6.4053,6.4701,6.4884,6.4958,6.5251,6.5852,6.6366,6.6659,6.726,6.77,6.77,6.77,6.77,6.77,6.77,6.77,6.77,6.77,6.77,6.77,6.77,6.77,6.77,6.77,6.77,6.77,6.8458,6.9265,7.0073,7.0866,7.1674,7.2496,7.2496,7.2496,7.2496,7.2496,7.2496,7.2496,7.2496,7.2496,7.2496,7.2496,7.2496,7.2496,7.2496,7.2496,7.2496,7.2496,7.2496,7.2496,7.2496,7.2496,7.2496,4.8296,4.837,4.871,4.9454,5.0372,5.1206,5.1877,5.2674,5.3214,5.3214,5.3287,5.3361,5.3361,5.4069,5.4876,5.5695,5.6418,5.6847,5.6957,5.7593,5.7997,5.7997,5.7997,5.7997,5.7997,5.7997,5.8107,5.8327,5.8327,5.8327,5.8327,5.9049,5.9416,5.96,6.097,6.1667,6.1814,6.2499,6.2793,6.2793,6.2793,6.2793,6.2793,6.2793,6.2793,6.2793,6.2793,6.2793,6.2793,6.2793,6.2793,6.2793,6.2793,6.2793,6.2793,6.2793,6.2793,6.2829,6.2939,6.2976,6.2976,6.2976,6.2976,6.3013,6.3123,6.3123,6.3563,6.4995,6.5398,6.5888,6.7297,6.7627,6.77,6.77,6.77,6.77,6.77,6.77,6.77,6.77,6.77,6.77,6.77,6.77,6.77,6.77,6.77,6.77,6.77,6.8458,6.9265,7.0073,7.0866,7.1674,7.2496,7.2496,7.2496,7.2496,7.2496,7.2496,7.2496,7.2496,7.2496,7.2496,7.2496,7.2496,7.2496,7.2496,7.2496,7.2496,7.2496,7.2496,7.2496,7.2496,7.2496,7.2496,4.8296,4.8296,4.8406,4.882,4.9564,5.0408,5.1206,5.2013,5.2711,5.3141,5.3214,5.3214,5.3214,5.3508,5.4069,5.4851,5.5244,5.5831,5.6737,5.7152,5.7519,5.796,5.7997,5.7997,5.7997,5.7997,5.7997,5.7997,5.7997,5.7997,5.7997,5.8364,5.8756,5.9233,5.993,6.075,6.163,6.1998,6.2389,6.2793,6.2793,6.2793,6.2793,6.2793,6.2793,6.2793,6.2793,6.2793,6.2793,6.2793,6.2793,6.2793,6.2793,6.2793,6.2793,6.2793,6.2793,6.2793,6.2793,6.2793,6.2793,6.2793,6.2793,6.2793,6.2793,6.2793,6.316,6.4383,6.5007,6.5655,6.6806,6.7407,6.77,6.77,6.77,6.77,6.77,6.77,6.77,6.77,6.77,6.77,6.77,6.77,6.77,6.77,6.77,6.77,6.77,6.8031,6.8605,6.9412,7.022,7.1027,7.1821,7.2275,7.2496,7.2496,7.2496,7.2496,7.2496,7.2496,7.2496,7.2496,7.2496,7.2496,7.2496,7.2496,7.2496,7.2496,7.2496,7.2496,7.2496,7.2496,7.2496,7.2496]}]]